<?xml version="1.0" encoding="UTF-8" standalone="no" ?>
<gpx xmlns="http://www.topografix.com/GPX/1/1" xmlns:xsi="http://www.w3.org/2001/XMLSchema-instance" xsi:schemaLocation="http://www.topografix.com/GPX/1/1 http://www.topografix.com/GPX/1/1/gpx.xsd" version="1.1" creator="VisuGPX - https://www.visugpx.com">
  <metadata>
    <name>Villers St Paul</name>
    <desc><![CDATA[Villers St Paul]]></desc>
  </metadata>
  <trk>
    <name><![CDATA[Villers St Paul_1]]></name>
    <trkseg>
      <trkpt lat="49.29206" lon="2.50014">
        <ele>45.7</ele>
        <time>2014-04-27T09:17:55.66</time>
      </trkpt>
      <trkpt lat="49.29207" lon="2.50014">
        <ele>44.6</ele>
        <time>2014-04-27T09:17:55.71</time>
      </trkpt>
      <trkpt lat="49.29206" lon="2.50017">
        <ele>50.1</ele>
        <time>2014-04-27T09:18:02.65</time>
      </trkpt>
      <trkpt lat="49.29209" lon="2.50017">
        <ele>58.9</ele>
        <time>2014-04-27T09:18:09.65</time>
      </trkpt>
      <trkpt lat="49.2921" lon="2.50017">
        <ele>57.7</ele>
        <time>2014-04-27T09:18:16.67</time>
      </trkpt>
      <trkpt lat="49.29216" lon="2.50013">
        <ele>54.1</ele>
        <time>2014-04-27T09:18:23.67</time>
      </trkpt>
      <trkpt lat="49.29223" lon="2.5001">
        <ele>52.5</ele>
        <time>2014-04-27T09:18:29.65</time>
      </trkpt>
      <trkpt lat="49.29231" lon="2.50006">
        <ele>50.2</ele>
        <time>2014-04-27T09:18:35.65</time>
      </trkpt>
      <trkpt lat="49.29238" lon="2.50004">
        <ele>46.7</ele>
        <time>2014-04-27T09:18:42.65</time>
      </trkpt>
      <trkpt lat="49.29243" lon="2.5">
        <ele>44.9</ele>
        <time>2014-04-27T09:18:49.65</time>
      </trkpt>
      <trkpt lat="49.29251" lon="2.49995">
        <ele>44.1</ele>
        <time>2014-04-27T09:18:55.65</time>
      </trkpt>
      <trkpt lat="49.29258" lon="2.49993">
        <ele>43.1</ele>
        <time>2014-04-27T09:19:01.64</time>
      </trkpt>
      <trkpt lat="49.29264" lon="2.4999">
        <ele>42.3</ele>
        <time>2014-04-27T09:19:08.64</time>
      </trkpt>
      <trkpt lat="49.29271" lon="2.49984">
        <ele>41</ele>
        <time>2014-04-27T09:19:15.64</time>
      </trkpt>
      <trkpt lat="49.29278" lon="2.4998">
        <ele>39.8</ele>
        <time>2014-04-27T09:19:21.65</time>
      </trkpt>
      <trkpt lat="49.29285" lon="2.49977">
        <ele>37.7</ele>
        <time>2014-04-27T09:19:26.65</time>
      </trkpt>
      <trkpt lat="49.29292" lon="2.49971">
        <ele>35.7</ele>
        <time>2014-04-27T09:19:33.65</time>
      </trkpt>
      <trkpt lat="49.29296" lon="2.49966">
        <ele>33.8</ele>
        <time>2014-04-27T09:19:40.65</time>
      </trkpt>
      <trkpt lat="49.29299" lon="2.49962">
        <ele>33.8</ele>
        <time>2014-04-27T09:19:47.65</time>
      </trkpt>
      <trkpt lat="49.29303" lon="2.4996">
        <ele>33.9</ele>
        <time>2014-04-27T09:19:54.66</time>
      </trkpt>
      <trkpt lat="49.29309" lon="2.49954">
        <ele>33.3</ele>
        <time>2014-04-27T09:20:01.65</time>
      </trkpt>
      <trkpt lat="49.2931" lon="2.49947">
        <ele>33.1</ele>
        <time>2014-04-27T09:20:08.65</time>
      </trkpt>
      <trkpt lat="49.29314" lon="2.49945">
        <ele>32.5</ele>
        <time>2014-04-27T09:20:15.65</time>
      </trkpt>
      <trkpt lat="49.29319" lon="2.49935">
        <ele>31.1</ele>
        <time>2014-04-27T09:20:20.65</time>
      </trkpt>
      <trkpt lat="49.29325" lon="2.49926">
        <ele>27.4</ele>
        <time>2014-04-27T09:20:25.65</time>
      </trkpt>
      <trkpt lat="49.29335" lon="2.4992">
        <ele>27.2</ele>
        <time>2014-04-27T09:20:28.65</time>
      </trkpt>
      <trkpt lat="49.2934" lon="2.4991">
        <ele>25.2</ele>
        <time>2014-04-27T09:20:34.67</time>
      </trkpt>
      <trkpt lat="49.29345" lon="2.49901">
        <ele>22.5</ele>
        <time>2014-04-27T09:20:39.65</time>
      </trkpt>
      <trkpt lat="49.29352" lon="2.49896">
        <ele>21.1</ele>
        <time>2014-04-27T09:20:44.65</time>
      </trkpt>
      <trkpt lat="49.29359" lon="2.49889">
        <ele>20.1</ele>
        <time>2014-04-27T09:20:49.65</time>
      </trkpt>
      <trkpt lat="49.29364" lon="2.49882">
        <ele>19.5</ele>
        <time>2014-04-27T09:20:56.65</time>
      </trkpt>
      <trkpt lat="49.29372" lon="2.49878">
        <ele>20.4</ele>
        <time>2014-04-27T09:21:03.65</time>
      </trkpt>
      <trkpt lat="49.29378" lon="2.49877">
        <ele>21.8</ele>
        <time>2014-04-27T09:21:10.65</time>
      </trkpt>
      <trkpt lat="49.29381" lon="2.49877">
        <ele>23.2</ele>
        <time>2014-04-27T09:21:17.65</time>
      </trkpt>
      <trkpt lat="49.29389" lon="2.49877">
        <ele>22.3</ele>
        <time>2014-04-27T09:21:24.66</time>
      </trkpt>
      <trkpt lat="49.29395" lon="2.49877">
        <ele>22.7</ele>
        <time>2014-04-27T09:21:31.65</time>
      </trkpt>
      <trkpt lat="49.294" lon="2.49874">
        <ele>22.8</ele>
        <time>2014-04-27T09:21:38.65</time>
      </trkpt>
      <trkpt lat="49.29407" lon="2.49871">
        <ele>24.7</ele>
        <time>2014-04-27T09:21:42.65</time>
      </trkpt>
      <trkpt lat="49.29422" lon="2.49866">
        <ele>27.1</ele>
        <time>2014-04-27T09:21:49.65</time>
      </trkpt>
      <trkpt lat="49.29428" lon="2.49862">
        <ele>27.3</ele>
        <time>2014-04-27T09:21:56.65</time>
      </trkpt>
      <trkpt lat="49.29433" lon="2.49859">
        <ele>26.2</ele>
        <time>2014-04-27T09:22:03.65</time>
      </trkpt>
      <trkpt lat="49.29437" lon="2.49858">
        <ele>21.2</ele>
        <time>2014-04-27T09:22:10.65</time>
      </trkpt>
      <trkpt lat="49.29446" lon="2.49854">
        <ele>18.8</ele>
        <time>2014-04-27T09:22:17.65</time>
      </trkpt>
      <trkpt lat="49.29451" lon="2.49848">
        <ele>19.6</ele>
        <time>2014-04-27T09:22:24.65</time>
      </trkpt>
      <trkpt lat="49.29458" lon="2.49845">
        <ele>21.2</ele>
        <time>2014-04-27T09:22:31.65</time>
      </trkpt>
      <trkpt lat="49.29465" lon="2.4984">
        <ele>22.7</ele>
        <time>2014-04-27T09:22:38.65</time>
      </trkpt>
      <trkpt lat="49.29473" lon="2.49837">
        <ele>24.1</ele>
        <time>2014-04-27T09:22:45.65</time>
      </trkpt>
      <trkpt lat="49.29478" lon="2.49833">
        <ele>24</ele>
        <time>2014-04-27T09:22:52.65</time>
      </trkpt>
      <trkpt lat="49.29489" lon="2.49828">
        <ele>26.8</ele>
        <time>2014-04-27T09:22:57.65</time>
      </trkpt>
      <trkpt lat="49.29495" lon="2.49823">
        <ele>27.7</ele>
        <time>2014-04-27T09:23:04.65</time>
      </trkpt>
      <trkpt lat="49.295" lon="2.49819">
        <ele>29.5</ele>
        <time>2014-04-27T09:23:11.65</time>
      </trkpt>
      <trkpt lat="49.295" lon="2.49817">
        <ele>31.1</ele>
        <time>2014-04-27T09:23:18.65</time>
      </trkpt>
      <trkpt lat="49.29502" lon="2.49814">
        <ele>32.2</ele>
        <time>2014-04-27T09:23:25.65</time>
      </trkpt>
      <trkpt lat="49.29505" lon="2.4981">
        <ele>32.3</ele>
        <time>2014-04-27T09:23:32.65</time>
      </trkpt>
      <trkpt lat="49.29513" lon="2.49808">
        <ele>33.9</ele>
        <time>2014-04-27T09:23:37.68</time>
      </trkpt>
      <trkpt lat="49.29525" lon="2.49805">
        <ele>36.3</ele>
        <time>2014-04-27T09:23:43.65</time>
      </trkpt>
      <trkpt lat="49.29532" lon="2.49802">
        <ele>37.1</ele>
        <time>2014-04-27T09:23:49.65</time>
      </trkpt>
      <trkpt lat="49.29539" lon="2.49801">
        <ele>37.7</ele>
        <time>2014-04-27T09:23:53.65</time>
      </trkpt>
      <trkpt lat="49.2954" lon="2.49802">
        <ele>38</ele>
        <time>2014-04-27T09:24:00.65</time>
      </trkpt>
      <trkpt lat="49.2954" lon="2.49801">
        <ele>38.9</ele>
        <time>2014-04-27T09:24:07.66</time>
      </trkpt>
      <trkpt lat="49.29545" lon="2.49798">
        <ele>40.5</ele>
        <time>2014-04-27T09:24:14.65</time>
      </trkpt>
      <trkpt lat="49.29553" lon="2.49796">
        <ele>40.1</ele>
        <time>2014-04-27T09:24:21.65</time>
      </trkpt>
      <trkpt lat="49.29564" lon="2.49795">
        <ele>41.2</ele>
        <time>2014-04-27T09:24:26.65</time>
      </trkpt>
      <trkpt lat="49.29575" lon="2.49795">
        <ele>42.4</ele>
        <time>2014-04-27T09:24:32.65</time>
      </trkpt>
      <trkpt lat="49.29578" lon="2.49798">
        <ele>43.1</ele>
        <time>2014-04-27T09:24:39.65</time>
      </trkpt>
      <trkpt lat="49.29579" lon="2.49802">
        <ele>44.9</ele>
        <time>2014-04-27T09:24:46.67</time>
      </trkpt>
      <trkpt lat="49.29602" lon="2.49803">
        <ele>49.7</ele>
        <time>2014-04-27T09:24:54.65</time>
      </trkpt>
      <trkpt lat="49.2961" lon="2.498">
        <ele>50.5</ele>
        <time>2014-04-27T09:24:55.65</time>
      </trkpt>
      <trkpt lat="49.29611" lon="2.49802">
        <ele>50.5</ele>
        <time>2014-04-27T09:25:02.65</time>
      </trkpt>
      <trkpt lat="49.29616" lon="2.49804">
        <ele>50.8</ele>
        <time>2014-04-27T09:25:09.65</time>
      </trkpt>
      <trkpt lat="49.29621" lon="2.49807">
        <ele>51.7</ele>
        <time>2014-04-27T09:25:16.65</time>
      </trkpt>
      <trkpt lat="49.29622" lon="2.49812">
        <ele>53.8</ele>
        <time>2014-04-27T09:25:23.65</time>
      </trkpt>
      <trkpt lat="49.29632" lon="2.49813">
        <ele>56.3</ele>
        <time>2014-04-27T09:25:27.65</time>
      </trkpt>
      <trkpt lat="49.29636" lon="2.49814">
        <ele>57.7</ele>
        <time>2014-04-27T09:25:34.65</time>
      </trkpt>
      <trkpt lat="49.29638" lon="2.49822">
        <ele>57.9</ele>
        <time>2014-04-27T09:25:41.65</time>
      </trkpt>
      <trkpt lat="49.29638" lon="2.49831">
        <ele>58.8</ele>
        <time>2014-04-27T09:25:48.65</time>
      </trkpt>
      <trkpt lat="49.29641" lon="2.49838">
        <ele>60.1</ele>
        <time>2014-04-27T09:25:55.65</time>
      </trkpt>
      <trkpt lat="49.29671" lon="2.49834">
        <ele>64.6</ele>
        <time>2014-04-27T09:26:03.65</time>
      </trkpt>
      <trkpt lat="49.29679" lon="2.49831">
        <ele>65.8</ele>
        <time>2014-04-27T09:26:11.68</time>
      </trkpt>
      <trkpt lat="49.29686" lon="2.49823">
        <ele>65.9</ele>
        <time>2014-04-27T09:26:17.65</time>
      </trkpt>
      <trkpt lat="49.29688" lon="2.49822">
        <ele>66.3</ele>
        <time>2014-04-27T09:26:24.65</time>
      </trkpt>
      <trkpt lat="49.2969" lon="2.49818">
        <ele>65.5</ele>
        <time>2014-04-27T09:26:31.65</time>
      </trkpt>
      <trkpt lat="49.29689" lon="2.49818">
        <ele>66</ele>
        <time>2014-04-27T09:26:38.65</time>
      </trkpt>
      <trkpt lat="49.29706" lon="2.49811">
        <ele>85</ele>
        <time>2014-04-27T09:26:40.65</time>
      </trkpt>
      <trkpt lat="49.29708" lon="2.4981">
        <ele>78.3</ele>
        <time>2014-04-27T09:26:47.65</time>
      </trkpt>
      <trkpt lat="49.29707" lon="2.4981">
        <ele>77</ele>
        <time>2014-04-27T09:26:54.65</time>
      </trkpt>
      <trkpt lat="49.29704" lon="2.49815">
        <ele>77.6</ele>
        <time>2014-04-27T09:27:01.65</time>
      </trkpt>
      <trkpt lat="49.29704" lon="2.49813">
        <ele>79.1</ele>
        <time>2014-04-27T09:27:08.65</time>
      </trkpt>
      <trkpt lat="49.29705" lon="2.49813">
        <ele>79.9</ele>
        <time>2014-04-27T09:27:15.66</time>
      </trkpt>
      <trkpt lat="49.29705" lon="2.49815">
        <ele>81.7</ele>
        <time>2014-04-27T09:27:22.65</time>
      </trkpt>
      <trkpt lat="49.29708" lon="2.49817">
        <ele>84.5</ele>
        <time>2014-04-27T09:27:23.67</time>
      </trkpt>
      <trkpt lat="49.29707" lon="2.49821">
        <ele>80.2</ele>
        <time>2014-04-27T09:27:30.65</time>
      </trkpt>
      <trkpt lat="49.29709" lon="2.49823">
        <ele>76.8</ele>
        <time>2014-04-27T09:27:37.66</time>
      </trkpt>
      <trkpt lat="49.29706" lon="2.49828">
        <ele>77.3</ele>
        <time>2014-04-27T09:27:42.66</time>
      </trkpt>
      <trkpt lat="49.29701" lon="2.49831">
        <ele>80</ele>
        <time>2014-04-27T09:27:49.66</time>
      </trkpt>
      <trkpt lat="49.29701" lon="2.49819">
        <ele>88.1</ele>
        <time>2014-04-27T09:27:56.66</time>
      </trkpt>
      <trkpt lat="49.29703" lon="2.49809">
        <ele>85.7</ele>
        <time>2014-04-27T09:28:03.64</time>
      </trkpt>
      <trkpt lat="49.29698" lon="2.49805">
        <ele>84.4</ele>
        <time>2014-04-27T09:28:10.65</time>
      </trkpt>
      <trkpt lat="49.29692" lon="2.49799">
        <ele>81.9</ele>
        <time>2014-04-27T09:28:17.64</time>
      </trkpt>
      <trkpt lat="49.29687" lon="2.49793">
        <ele>79.9</ele>
        <time>2014-04-27T09:28:24.64</time>
      </trkpt>
      <trkpt lat="49.29685" lon="2.49782">
        <ele>77.3</ele>
        <time>2014-04-27T09:28:31.64</time>
      </trkpt>
      <trkpt lat="49.29685" lon="2.49771">
        <ele>75.7</ele>
        <time>2014-04-27T09:28:38.64</time>
      </trkpt>
      <trkpt lat="49.29686" lon="2.49761">
        <ele>75.2</ele>
        <time>2014-04-27T09:28:45.64</time>
      </trkpt>
      <trkpt lat="49.29687" lon="2.49751">
        <ele>75.5</ele>
        <time>2014-04-27T09:28:52.66</time>
      </trkpt>
      <trkpt lat="49.29691" lon="2.49744">
        <ele>75.6</ele>
        <time>2014-04-27T09:28:59.64</time>
      </trkpt>
      <trkpt lat="49.29694" lon="2.49738">
        <ele>75.7</ele>
        <time>2014-04-27T09:29:06.64</time>
      </trkpt>
      <trkpt lat="49.29701" lon="2.49731">
        <ele>75.4</ele>
        <time>2014-04-27T09:29:12.64</time>
      </trkpt>
      <trkpt lat="49.29706" lon="2.49722">
        <ele>75.3</ele>
        <time>2014-04-27T09:29:18.64</time>
      </trkpt>
      <trkpt lat="49.29709" lon="2.49714">
        <ele>74.1</ele>
        <time>2014-04-27T09:29:25.64</time>
      </trkpt>
      <trkpt lat="49.29715" lon="2.49707">
        <ele>74.3</ele>
        <time>2014-04-27T09:29:32.64</time>
      </trkpt>
      <trkpt lat="49.2972" lon="2.49696">
        <ele>78.7</ele>
        <time>2014-04-27T09:29:39.64</time>
      </trkpt>
      <trkpt lat="49.29724" lon="2.49689">
        <ele>78.9</ele>
        <time>2014-04-27T09:29:46.64</time>
      </trkpt>
      <trkpt lat="49.29728" lon="2.49686">
        <ele>78.9</ele>
        <time>2014-04-27T09:29:53.64</time>
      </trkpt>
      <trkpt lat="49.29732" lon="2.49687">
        <ele>79.1</ele>
        <time>2014-04-27T09:30:00.64</time>
      </trkpt>
      <trkpt lat="49.29739" lon="2.49691">
        <ele>80.3</ele>
        <time>2014-04-27T09:30:07.64</time>
      </trkpt>
      <trkpt lat="49.29746" lon="2.49694">
        <ele>81.6</ele>
        <time>2014-04-27T09:30:14.64</time>
      </trkpt>
      <trkpt lat="49.29753" lon="2.49696">
        <ele>83.8</ele>
        <time>2014-04-27T09:30:22.25</time>
      </trkpt>
      <trkpt lat="49.29759" lon="2.49699">
        <ele>84.9</ele>
        <time>2014-04-27T09:30:29.35</time>
      </trkpt>
      <trkpt lat="49.29764" lon="2.49701">
        <ele>86.8</ele>
        <time>2014-04-27T09:30:36.25</time>
      </trkpt>
      <trkpt lat="49.29772" lon="2.49701">
        <ele>87.8</ele>
        <time>2014-04-27T09:30:42.25</time>
      </trkpt>
      <trkpt lat="49.2978" lon="2.49701">
        <ele>89.5</ele>
        <time>2014-04-27T09:30:48.25</time>
      </trkpt>
      <trkpt lat="49.29788" lon="2.49697">
        <ele>91.4</ele>
        <time>2014-04-27T09:30:55.25</time>
      </trkpt>
      <trkpt lat="49.29792" lon="2.49691">
        <ele>92.3</ele>
        <time>2014-04-27T09:31:02.25</time>
      </trkpt>
      <trkpt lat="49.29806" lon="2.49687">
        <ele>93.1</ele>
        <time>2014-04-27T09:31:04.25</time>
      </trkpt>
      <trkpt lat="49.29809" lon="2.49676">
        <ele>93.2</ele>
        <time>2014-04-27T09:31:10.25</time>
      </trkpt>
      <trkpt lat="49.29809" lon="2.49664">
        <ele>92.7</ele>
        <time>2014-04-27T09:31:16.25</time>
      </trkpt>
      <trkpt lat="49.29803" lon="2.49656">
        <ele>94.5</ele>
        <time>2014-04-27T09:31:22.25</time>
      </trkpt>
      <trkpt lat="49.29799" lon="2.49646">
        <ele>95.7</ele>
        <time>2014-04-27T09:31:28.25</time>
      </trkpt>
      <trkpt lat="49.29793" lon="2.49639">
        <ele>96.5</ele>
        <time>2014-04-27T09:31:34.25</time>
      </trkpt>
      <trkpt lat="49.29788" lon="2.49631">
        <ele>97.6</ele>
        <time>2014-04-27T09:31:41.25</time>
      </trkpt>
      <trkpt lat="49.29783" lon="2.49623">
        <ele>97.9</ele>
        <time>2014-04-27T09:31:48.35</time>
      </trkpt>
      <trkpt lat="49.29776" lon="2.49614">
        <ele>98.4</ele>
        <time>2014-04-27T09:31:55.25</time>
      </trkpt>
      <trkpt lat="49.29771" lon="2.49606">
        <ele>98.3</ele>
        <time>2014-04-27T09:32:01.25</time>
      </trkpt>
      <trkpt lat="49.29766" lon="2.49596">
        <ele>97.9</ele>
        <time>2014-04-27T09:32:08.25</time>
      </trkpt>
      <trkpt lat="49.29761" lon="2.49593">
        <ele>97.1</ele>
        <time>2014-04-27T09:32:15.25</time>
      </trkpt>
      <trkpt lat="49.29759" lon="2.49592">
        <ele>96.6</ele>
        <time>2014-04-27T09:32:22.25</time>
      </trkpt>
      <trkpt lat="49.29755" lon="2.49587">
        <ele>96.9</ele>
        <time>2014-04-27T09:32:29.35</time>
      </trkpt>
      <trkpt lat="49.29754" lon="2.4958">
        <ele>97.1</ele>
        <time>2014-04-27T09:32:36.25</time>
      </trkpt>
      <trkpt lat="49.29748" lon="2.49573">
        <ele>97</ele>
        <time>2014-04-27T09:32:43.25</time>
      </trkpt>
      <trkpt lat="49.29743" lon="2.49565">
        <ele>97</ele>
        <time>2014-04-27T09:32:48.25</time>
      </trkpt>
      <trkpt lat="49.29737" lon="2.49557">
        <ele>97.2</ele>
        <time>2014-04-27T09:32:53.25</time>
      </trkpt>
      <trkpt lat="49.29731" lon="2.49549">
        <ele>97.3</ele>
        <time>2014-04-27T09:32:59.25</time>
      </trkpt>
      <trkpt lat="49.29726" lon="2.4954">
        <ele>97.4</ele>
        <time>2014-04-27T09:33:05.25</time>
      </trkpt>
      <trkpt lat="49.29721" lon="2.49531">
        <ele>98</ele>
        <time>2014-04-27T09:33:09.25</time>
      </trkpt>
      <trkpt lat="49.29716" lon="2.49522">
        <ele>98.3</ele>
        <time>2014-04-27T09:33:15.25</time>
      </trkpt>
      <trkpt lat="49.2971" lon="2.49513">
        <ele>98.4</ele>
        <time>2014-04-27T09:33:20.25</time>
      </trkpt>
      <trkpt lat="49.29705" lon="2.49505">
        <ele>98.5</ele>
        <time>2014-04-27T09:33:25</time>
      </trkpt>
      <trkpt lat="49.29699" lon="2.49497">
        <ele>98.9</ele>
        <time>2014-04-27T09:33:31.25</time>
      </trkpt>
      <trkpt lat="49.29693" lon="2.49489">
        <ele>99.8</ele>
        <time>2014-04-27T09:33:37.25</time>
      </trkpt>
      <trkpt lat="49.29688" lon="2.49479">
        <ele>100.7</ele>
        <time>2014-04-27T09:33:43.25</time>
      </trkpt>
      <trkpt lat="49.29683" lon="2.49471">
        <ele>100.9</ele>
        <time>2014-04-27T09:33:49.25</time>
      </trkpt>
      <trkpt lat="49.29677" lon="2.49463">
        <ele>100.5</ele>
        <time>2014-04-27T09:33:56.25</time>
      </trkpt>
      <trkpt lat="49.2967" lon="2.49454">
        <ele>100.9</ele>
        <time>2014-04-27T09:34:03.25</time>
      </trkpt>
      <trkpt lat="49.29665" lon="2.49447">
        <ele>101.2</ele>
        <time>2014-04-27T09:34:09.45</time>
      </trkpt>
      <trkpt lat="49.2966" lon="2.49437">
        <ele>100.9</ele>
        <time>2014-04-27T09:34:15.25</time>
      </trkpt>
      <trkpt lat="49.29654" lon="2.49428">
        <ele>100.9</ele>
        <time>2014-04-27T09:34:21.25</time>
      </trkpt>
      <trkpt lat="49.29649" lon="2.4942">
        <ele>101</ele>
        <time>2014-04-27T09:34:27.25</time>
      </trkpt>
      <trkpt lat="49.29644" lon="2.49412">
        <ele>101.1</ele>
        <time>2014-04-27T09:34:33.25</time>
      </trkpt>
      <trkpt lat="49.29638" lon="2.49403">
        <ele>101.3</ele>
        <time>2014-04-27T09:34:40.25</time>
      </trkpt>
      <trkpt lat="49.29632" lon="2.49394">
        <ele>101.3</ele>
        <time>2014-04-27T09:34:47.45</time>
      </trkpt>
      <trkpt lat="49.29627" lon="2.49385">
        <ele>101.4</ele>
        <time>2014-04-27T09:34:54.25</time>
      </trkpt>
      <trkpt lat="49.29621" lon="2.49377">
        <ele>101.9</ele>
        <time>2014-04-27T09:35:01.15</time>
      </trkpt>
      <trkpt lat="49.29615" lon="2.49369">
        <ele>101.9</ele>
        <time>2014-04-27T09:35:07.15</time>
      </trkpt>
      <trkpt lat="49.29609" lon="2.49361">
        <ele>102.1</ele>
        <time>2014-04-27T09:35:13.15</time>
      </trkpt>
      <trkpt lat="49.29603" lon="2.49353">
        <ele>101.8</ele>
        <time>2014-04-27T09:35:19.15</time>
      </trkpt>
      <trkpt lat="49.29597" lon="2.49345">
        <ele>101.6</ele>
        <time>2014-04-27T09:35:25.15</time>
      </trkpt>
      <trkpt lat="49.29592" lon="2.49337">
        <ele>101.2</ele>
        <time>2014-04-27T09:35:31.15</time>
      </trkpt>
      <trkpt lat="49.29586" lon="2.49328">
        <ele>100.9</ele>
        <time>2014-04-27T09:35:36.15</time>
      </trkpt>
      <trkpt lat="49.2958" lon="2.4932">
        <ele>101</ele>
        <time>2014-04-27T09:35:42.15</time>
      </trkpt>
      <trkpt lat="49.29574" lon="2.49312">
        <ele>101.3</ele>
        <time>2014-04-27T09:35:48.15</time>
      </trkpt>
      <trkpt lat="49.29568" lon="2.49305">
        <ele>101.1</ele>
        <time>2014-04-27T09:35:54.15</time>
      </trkpt>
      <trkpt lat="49.29562" lon="2.49296">
        <ele>101.2</ele>
        <time>2014-04-27T09:36:00.15</time>
      </trkpt>
      <trkpt lat="49.29556" lon="2.49286">
        <ele>101.2</ele>
        <time>2014-04-27T09:36:06.15</time>
      </trkpt>
      <trkpt lat="49.29551" lon="2.49279">
        <ele>101.2</ele>
        <time>2014-04-27T09:36:12.15</time>
      </trkpt>
      <trkpt lat="49.29545" lon="2.4927">
        <ele>101.1</ele>
        <time>2014-04-27T09:36:19.15</time>
      </trkpt>
      <trkpt lat="49.29539" lon="2.49261">
        <ele>100.9</ele>
        <time>2014-04-27T09:36:25.15</time>
      </trkpt>
      <trkpt lat="49.29533" lon="2.49253">
        <ele>101.1</ele>
        <time>2014-04-27T09:36:31.15</time>
      </trkpt>
      <trkpt lat="49.29527" lon="2.49245">
        <ele>101.5</ele>
        <time>2014-04-27T09:36:37.15</time>
      </trkpt>
      <trkpt lat="49.29521" lon="2.49235">
        <ele>101.6</ele>
        <time>2014-04-27T09:36:43.15</time>
      </trkpt>
      <trkpt lat="49.29515" lon="2.49226">
        <ele>101.6</ele>
        <time>2014-04-27T09:36:49.15</time>
      </trkpt>
      <trkpt lat="49.2951" lon="2.49218">
        <ele>101.5</ele>
        <time>2014-04-27T09:36:54.15</time>
      </trkpt>
      <trkpt lat="49.29505" lon="2.4921">
        <ele>101.7</ele>
        <time>2014-04-27T09:36:59.15</time>
      </trkpt>
      <trkpt lat="49.295" lon="2.49201">
        <ele>101.4</ele>
        <time>2014-04-27T09:37:05.15</time>
      </trkpt>
      <trkpt lat="49.29495" lon="2.49191">
        <ele>101.1</ele>
        <time>2014-04-27T09:37:11.25</time>
      </trkpt>
      <trkpt lat="49.29489" lon="2.49182">
        <ele>101.1</ele>
        <time>2014-04-27T09:37:17.15</time>
      </trkpt>
      <trkpt lat="49.29485" lon="2.49174">
        <ele>100.8</ele>
        <time>2014-04-27T09:37:22.15</time>
      </trkpt>
      <trkpt lat="49.2948" lon="2.49164">
        <ele>100.6</ele>
        <time>2014-04-27T09:37:29.15</time>
      </trkpt>
      <trkpt lat="49.29475" lon="2.49153">
        <ele>100.7</ele>
        <time>2014-04-27T09:37:35.25</time>
      </trkpt>
      <trkpt lat="49.29471" lon="2.49145">
        <ele>100.8</ele>
        <time>2014-04-27T09:37:40.15</time>
      </trkpt>
      <trkpt lat="49.29464" lon="2.49136">
        <ele>100.5</ele>
        <time>2014-04-27T09:37:46.15</time>
      </trkpt>
      <trkpt lat="49.29458" lon="2.49128">
        <ele>100.5</ele>
        <time>2014-04-27T09:37:51.15</time>
      </trkpt>
      <trkpt lat="49.29454" lon="2.4912">
        <ele>99.8</ele>
        <time>2014-04-27T09:37:57.15</time>
      </trkpt>
      <trkpt lat="49.29449" lon="2.49111">
        <ele>99.6</ele>
        <time>2014-04-27T09:38:02.15</time>
      </trkpt>
      <trkpt lat="49.29444" lon="2.49103">
        <ele>99.5</ele>
        <time>2014-04-27T09:38:08.15</time>
      </trkpt>
      <trkpt lat="49.29439" lon="2.49094">
        <ele>99.8</ele>
        <time>2014-04-27T09:38:14.15</time>
      </trkpt>
      <trkpt lat="49.29437" lon="2.49083">
        <ele>99.5</ele>
        <time>2014-04-27T09:38:19.15</time>
      </trkpt>
      <trkpt lat="49.29432" lon="2.49073">
        <ele>98.9</ele>
        <time>2014-04-27T09:38:25.15</time>
      </trkpt>
      <trkpt lat="49.29428" lon="2.49063">
        <ele>98.4</ele>
        <time>2014-04-27T09:38:30.15</time>
      </trkpt>
      <trkpt lat="49.29424" lon="2.49053">
        <ele>98.1</ele>
        <time>2014-04-27T09:38:36.15</time>
      </trkpt>
      <trkpt lat="49.2942" lon="2.49041">
        <ele>97.9</ele>
        <time>2014-04-27T09:38:42.15</time>
      </trkpt>
      <trkpt lat="49.29418" lon="2.4903">
        <ele>98.1</ele>
        <time>2014-04-27T09:38:48.15</time>
      </trkpt>
      <trkpt lat="49.29414" lon="2.4902">
        <ele>98.2</ele>
        <time>2014-04-27T09:38:53.15</time>
      </trkpt>
      <trkpt lat="49.29411" lon="2.49009">
        <ele>97.7</ele>
        <time>2014-04-27T09:38:59.15</time>
      </trkpt>
      <trkpt lat="49.29408" lon="2.48999">
        <ele>97.4</ele>
        <time>2014-04-27T09:39:05.15</time>
      </trkpt>
      <trkpt lat="49.29404" lon="2.48988">
        <ele>96.5</ele>
        <time>2014-04-27T09:39:12.15</time>
      </trkpt>
      <trkpt lat="49.294" lon="2.48978">
        <ele>96</ele>
        <time>2014-04-27T09:39:19.15</time>
      </trkpt>
      <trkpt lat="49.29397" lon="2.48966">
        <ele>95.9</ele>
        <time>2014-04-27T09:39:25.15</time>
      </trkpt>
      <trkpt lat="49.29395" lon="2.48955">
        <ele>96.1</ele>
        <time>2014-04-27T09:39:32.15</time>
      </trkpt>
      <trkpt lat="49.29391" lon="2.48944">
        <ele>96.1</ele>
        <time>2014-04-27T09:39:38.15</time>
      </trkpt>
      <trkpt lat="49.29388" lon="2.48933">
        <ele>95.8</ele>
        <time>2014-04-27T09:39:44.15</time>
      </trkpt>
      <trkpt lat="49.29383" lon="2.48922">
        <ele>95.8</ele>
        <time>2014-04-27T09:39:49.25</time>
      </trkpt>
      <trkpt lat="49.29379" lon="2.48913">
        <ele>96.1</ele>
        <time>2014-04-27T09:39:54.25</time>
      </trkpt>
      <trkpt lat="49.29377" lon="2.48901">
        <ele>96</ele>
        <time>2014-04-27T09:40:00.25</time>
      </trkpt>
      <trkpt lat="49.29374" lon="2.48892">
        <ele>96.4</ele>
        <time>2014-04-27T09:40:06.25</time>
      </trkpt>
      <trkpt lat="49.2937" lon="2.48882">
        <ele>97</ele>
        <time>2014-04-27T09:40:11.25</time>
      </trkpt>
      <trkpt lat="49.29366" lon="2.48872">
        <ele>97.7</ele>
        <time>2014-04-27T09:40:17.25</time>
      </trkpt>
      <trkpt lat="49.29363" lon="2.48861">
        <ele>98.7</ele>
        <time>2014-04-27T09:40:24.25</time>
      </trkpt>
      <trkpt lat="49.29359" lon="2.4885">
        <ele>99.7</ele>
        <time>2014-04-27T09:40:30.25</time>
      </trkpt>
      <trkpt lat="49.29355" lon="2.48839">
        <ele>100.3</ele>
        <time>2014-04-27T09:40:36.25</time>
      </trkpt>
      <trkpt lat="49.29351" lon="2.48828">
        <ele>100.6</ele>
        <time>2014-04-27T09:40:42.25</time>
      </trkpt>
      <trkpt lat="49.29347" lon="2.48817">
        <ele>101.5</ele>
        <time>2014-04-27T09:40:48.25</time>
      </trkpt>
      <trkpt lat="49.29343" lon="2.48806">
        <ele>102.1</ele>
        <time>2014-04-27T09:40:54.25</time>
      </trkpt>
      <trkpt lat="49.2934" lon="2.48794">
        <ele>102.8</ele>
        <time>2014-04-27T09:41:00.25</time>
      </trkpt>
      <trkpt lat="49.29337" lon="2.48785">
        <ele>103.4</ele>
        <time>2014-04-27T09:41:07.25</time>
      </trkpt>
      <trkpt lat="49.29334" lon="2.48774">
        <ele>103.9</ele>
        <time>2014-04-27T09:41:14.25</time>
      </trkpt>
      <trkpt lat="49.2933" lon="2.48763">
        <ele>104.4</ele>
        <time>2014-04-27T09:41:19.25</time>
      </trkpt>
      <trkpt lat="49.29327" lon="2.48754">
        <ele>104.6</ele>
        <time>2014-04-27T09:41:25</time>
      </trkpt>
      <trkpt lat="49.29325" lon="2.48742">
        <ele>104.4</ele>
        <time>2014-04-27T09:41:32.25</time>
      </trkpt>
      <trkpt lat="49.29322" lon="2.4873">
        <ele>104.4</ele>
        <time>2014-04-27T09:41:39.25</time>
      </trkpt>
      <trkpt lat="49.29319" lon="2.48719">
        <ele>104.5</ele>
        <time>2014-04-27T09:41:45.25</time>
      </trkpt>
      <trkpt lat="49.29316" lon="2.48708">
        <ele>104.8</ele>
        <time>2014-04-27T09:41:52.25</time>
      </trkpt>
      <trkpt lat="49.29314" lon="2.48702">
        <ele>105.1</ele>
        <time>2014-04-27T09:41:59.25</time>
      </trkpt>
      <trkpt lat="49.29309" lon="2.48691">
        <ele>105</ele>
        <time>2014-04-27T09:42:05.25</time>
      </trkpt>
      <trkpt lat="49.29306" lon="2.48681">
        <ele>104.9</ele>
        <time>2014-04-27T09:42:11.25</time>
      </trkpt>
      <trkpt lat="49.29301" lon="2.48671">
        <ele>104.8</ele>
        <time>2014-04-27T09:42:17.25</time>
      </trkpt>
      <trkpt lat="49.29297" lon="2.4866">
        <ele>104.8</ele>
        <time>2014-04-27T09:42:24.25</time>
      </trkpt>
      <trkpt lat="49.29292" lon="2.48652">
        <ele>104.9</ele>
        <time>2014-04-27T09:42:30.25</time>
      </trkpt>
      <trkpt lat="49.29288" lon="2.48641">
        <ele>104.9</ele>
        <time>2014-04-27T09:42:36.25</time>
      </trkpt>
      <trkpt lat="49.29284" lon="2.48631">
        <ele>104.7</ele>
        <time>2014-04-27T09:42:41.45</time>
      </trkpt>
      <trkpt lat="49.29281" lon="2.48621">
        <ele>104.8</ele>
        <time>2014-04-27T09:42:47.25</time>
      </trkpt>
      <trkpt lat="49.29278" lon="2.48611">
        <ele>104.7</ele>
        <time>2014-04-27T09:42:54.25</time>
      </trkpt>
      <trkpt lat="49.29276" lon="2.486">
        <ele>104.7</ele>
        <time>2014-04-27T09:43:00.25</time>
      </trkpt>
      <trkpt lat="49.29276" lon="2.48587">
        <ele>104.4</ele>
        <time>2014-04-27T09:43:05.25</time>
      </trkpt>
      <trkpt lat="49.29278" lon="2.48575">
        <ele>104.1</ele>
        <time>2014-04-27T09:43:10.25</time>
      </trkpt>
      <trkpt lat="49.29283" lon="2.48567">
        <ele>103.8</ele>
        <time>2014-04-27T09:43:17.25</time>
      </trkpt>
      <trkpt lat="49.29288" lon="2.48561">
        <ele>103.6</ele>
        <time>2014-04-27T09:43:24.25</time>
      </trkpt>
      <trkpt lat="49.2929" lon="2.48559">
        <ele>103.4</ele>
        <time>2014-04-27T09:43:31.25</time>
      </trkpt>
      <trkpt lat="49.29294" lon="2.48562">
        <ele>102.4</ele>
        <time>2014-04-27T09:43:34.35</time>
      </trkpt>
      <trkpt lat="49.29294" lon="2.48551">
        <ele>101.4</ele>
        <time>2014-04-27T09:43:36.35</time>
      </trkpt>
      <trkpt lat="49.29297" lon="2.48544">
        <ele>100.8</ele>
        <time>2014-04-27T09:43:43.15</time>
      </trkpt>
      <trkpt lat="49.29301" lon="2.48534">
        <ele>100.2</ele>
        <time>2014-04-27T09:43:49.15</time>
      </trkpt>
      <trkpt lat="49.29305" lon="2.48524">
        <ele>99.8</ele>
        <time>2014-04-27T09:43:54.15</time>
      </trkpt>
      <trkpt lat="49.29308" lon="2.48513">
        <ele>99.4</ele>
        <time>2014-04-27T09:44:00.15</time>
      </trkpt>
      <trkpt lat="49.29309" lon="2.48501">
        <ele>99.1</ele>
        <time>2014-04-27T09:44:06.15</time>
      </trkpt>
      <trkpt lat="49.2931" lon="2.48492">
        <ele>98.7</ele>
        <time>2014-04-27T09:44:13.15</time>
      </trkpt>
      <trkpt lat="49.2931" lon="2.48482">
        <ele>98.1</ele>
        <time>2014-04-27T09:44:20.15</time>
      </trkpt>
      <trkpt lat="49.29309" lon="2.48474">
        <ele>97.6</ele>
        <time>2014-04-27T09:44:27.15</time>
      </trkpt>
      <trkpt lat="49.29312" lon="2.48472">
        <ele>97.1</ele>
        <time>2014-04-27T09:44:34.15</time>
      </trkpt>
      <trkpt lat="49.29318" lon="2.48472">
        <ele>96.8</ele>
        <time>2014-04-27T09:44:41.15</time>
      </trkpt>
      <trkpt lat="49.29325" lon="2.48471">
        <ele>96.4</ele>
        <time>2014-04-27T09:44:48.15</time>
      </trkpt>
      <trkpt lat="49.29334" lon="2.4847">
        <ele>96.2</ele>
        <time>2014-04-27T09:44:54.15</time>
      </trkpt>
      <trkpt lat="49.2934" lon="2.48473">
        <ele>96.1</ele>
        <time>2014-04-27T09:45:01.15</time>
      </trkpt>
      <trkpt lat="49.29348" lon="2.48475">
        <ele>96.4</ele>
        <time>2014-04-27T09:45:07.15</time>
      </trkpt>
      <trkpt lat="49.29354" lon="2.48475">
        <ele>97.8</ele>
        <time>2014-04-27T09:45:14.15</time>
      </trkpt>
      <trkpt lat="49.29361" lon="2.48477">
        <ele>98.9</ele>
        <time>2014-04-27T09:45:21.15</time>
      </trkpt>
      <trkpt lat="49.2937" lon="2.48481">
        <ele>99.2</ele>
        <time>2014-04-27T09:45:28.15</time>
      </trkpt>
      <trkpt lat="49.29377" lon="2.48487">
        <ele>99.1</ele>
        <time>2014-04-27T09:45:35.55</time>
      </trkpt>
      <trkpt lat="49.29385" lon="2.48487">
        <ele>98.8</ele>
        <time>2014-04-27T09:45:40.15</time>
      </trkpt>
      <trkpt lat="49.29392" lon="2.48491">
        <ele>98.6</ele>
        <time>2014-04-27T09:45:47.15</time>
      </trkpt>
      <trkpt lat="49.29399" lon="2.48494">
        <ele>98.5</ele>
        <time>2014-04-27T09:45:53.15</time>
      </trkpt>
      <trkpt lat="49.29407" lon="2.48496">
        <ele>98.4</ele>
        <time>2014-04-27T09:45:59.55</time>
      </trkpt>
      <trkpt lat="49.29413" lon="2.48496">
        <ele>98.2</ele>
        <time>2014-04-27T09:46:06.35</time>
      </trkpt>
      <trkpt lat="49.29422" lon="2.48498">
        <ele>97.8</ele>
        <time>2014-04-27T09:46:13.25</time>
      </trkpt>
      <trkpt lat="49.2943" lon="2.48499">
        <ele>97.3</ele>
        <time>2014-04-27T09:46:19.55</time>
      </trkpt>
      <trkpt lat="49.29439" lon="2.48501">
        <ele>96.8</ele>
        <time>2014-04-27T09:46:23.15</time>
      </trkpt>
      <trkpt lat="49.29446" lon="2.485">
        <ele>96.4</ele>
        <time>2014-04-27T09:46:27.15</time>
      </trkpt>
      <trkpt lat="49.29454" lon="2.48501">
        <ele>95.5</ele>
        <time>2014-04-27T09:46:31.15</time>
      </trkpt>
      <trkpt lat="49.29462" lon="2.48502">
        <ele>93.8</ele>
        <time>2014-04-27T09:46:37.15</time>
      </trkpt>
      <trkpt lat="49.2947" lon="2.48502">
        <ele>92.5</ele>
        <time>2014-04-27T09:46:43.15</time>
      </trkpt>
      <trkpt lat="49.29476" lon="2.48504">
        <ele>93.4</ele>
        <time>2014-04-27T09:46:50.75</time>
      </trkpt>
      <trkpt lat="49.29475" lon="2.48508">
        <ele>95.6</ele>
        <time>2014-04-27T09:46:57.15</time>
      </trkpt>
      <trkpt lat="49.29482" lon="2.48512">
        <ele>95.4</ele>
        <time>2014-04-27T09:47:02.15</time>
      </trkpt>
      <trkpt lat="49.2949" lon="2.48513">
        <ele>95.8</ele>
        <time>2014-04-27T09:47:06.15</time>
      </trkpt>
      <trkpt lat="49.29498" lon="2.48516">
        <ele>95.7</ele>
        <time>2014-04-27T09:47:13.15</time>
      </trkpt>
      <trkpt lat="49.29506" lon="2.48519">
        <ele>95.8</ele>
        <time>2014-04-27T09:47:19.15</time>
      </trkpt>
      <trkpt lat="49.29513" lon="2.4852">
        <ele>96</ele>
        <time>2014-04-27T09:47:26.15</time>
      </trkpt>
      <trkpt lat="49.2952" lon="2.48521">
        <ele>94.4</ele>
        <time>2014-04-27T09:47:30.15</time>
      </trkpt>
      <trkpt lat="49.29528" lon="2.48523">
        <ele>95.8</ele>
        <time>2014-04-27T09:47:36.15</time>
      </trkpt>
      <trkpt lat="49.29536" lon="2.48527">
        <ele>95.9</ele>
        <time>2014-04-27T09:47:42.15</time>
      </trkpt>
      <trkpt lat="49.29542" lon="2.48531">
        <ele>96.8</ele>
        <time>2014-04-27T09:47:49.15</time>
      </trkpt>
      <trkpt lat="49.29551" lon="2.48532">
        <ele>98</ele>
        <time>2014-04-27T09:47:56.25</time>
      </trkpt>
      <trkpt lat="49.29558" lon="2.48533">
        <ele>98.4</ele>
        <time>2014-04-27T09:47:59.15</time>
      </trkpt>
      <trkpt lat="49.2956" lon="2.48533">
        <ele>98.1</ele>
        <time>2014-04-27T09:48:06.15</time>
      </trkpt>
      <trkpt lat="49.29565" lon="2.48538">
        <ele>99.2</ele>
        <time>2014-04-27T09:48:13.15</time>
      </trkpt>
      <trkpt lat="49.29569" lon="2.48541">
        <ele>100.4</ele>
        <time>2014-04-27T09:48:20.15</time>
      </trkpt>
      <trkpt lat="49.29576" lon="2.48544">
        <ele>99.9</ele>
        <time>2014-04-27T09:48:26.15</time>
      </trkpt>
      <trkpt lat="49.29583" lon="2.48545">
        <ele>99.9</ele>
        <time>2014-04-27T09:48:33.15</time>
      </trkpt>
      <trkpt lat="49.2959" lon="2.48544">
        <ele>100.4</ele>
        <time>2014-04-27T09:48:39.15</time>
      </trkpt>
      <trkpt lat="49.29598" lon="2.48546">
        <ele>100.7</ele>
        <time>2014-04-27T09:48:46.15</time>
      </trkpt>
      <trkpt lat="49.29605" lon="2.48548">
        <ele>101.7</ele>
        <time>2014-04-27T09:48:49.15</time>
      </trkpt>
      <trkpt lat="49.29611" lon="2.48547">
        <ele>102.9</ele>
        <time>2014-04-27T09:48:56.15</time>
      </trkpt>
      <trkpt lat="49.29614" lon="2.48548">
        <ele>104.2</ele>
        <time>2014-04-27T09:49:03.15</time>
      </trkpt>
      <trkpt lat="49.29619" lon="2.48549">
        <ele>104.7</ele>
        <time>2014-04-27T09:49:10.15</time>
      </trkpt>
      <trkpt lat="49.29625" lon="2.48547">
        <ele>104.8</ele>
        <time>2014-04-27T09:49:17.15</time>
      </trkpt>
      <trkpt lat="49.29633" lon="2.48548">
        <ele>104.7</ele>
        <time>2014-04-27T09:49:23.15</time>
      </trkpt>
      <trkpt lat="49.2964" lon="2.48549">
        <ele>104.6</ele>
        <time>2014-04-27T09:49:30.15</time>
      </trkpt>
      <trkpt lat="49.29648" lon="2.48548">
        <ele>104.9</ele>
        <time>2014-04-27T09:49:36.15</time>
      </trkpt>
      <trkpt lat="49.29655" lon="2.48547">
        <ele>105</ele>
        <time>2014-04-27T09:49:41.15</time>
      </trkpt>
      <trkpt lat="49.29663" lon="2.48546">
        <ele>105</ele>
        <time>2014-04-27T09:49:47.15</time>
      </trkpt>
      <trkpt lat="49.29671" lon="2.48546">
        <ele>104.7</ele>
        <time>2014-04-27T09:49:53.15</time>
      </trkpt>
      <trkpt lat="49.29679" lon="2.48544">
        <ele>105.6</ele>
        <time>2014-04-27T09:49:58.15</time>
      </trkpt>
      <trkpt lat="49.29686" lon="2.48543">
        <ele>106.1</ele>
        <time>2014-04-27T09:50:05.15</time>
      </trkpt>
      <trkpt lat="49.29695" lon="2.48542">
        <ele>106.6</ele>
        <time>2014-04-27T09:50:12.15</time>
      </trkpt>
      <trkpt lat="49.29702" lon="2.48539">
        <ele>105.5</ele>
        <time>2014-04-27T09:50:17.15</time>
      </trkpt>
      <trkpt lat="49.29709" lon="2.48539">
        <ele>105.5</ele>
        <time>2014-04-27T09:50:24.15</time>
      </trkpt>
      <trkpt lat="49.29717" lon="2.48538">
        <ele>105.3</ele>
        <time>2014-04-27T09:50:30.15</time>
      </trkpt>
      <trkpt lat="49.29725" lon="2.48538">
        <ele>104.7</ele>
        <time>2014-04-27T09:50:37.15</time>
      </trkpt>
      <trkpt lat="49.29734" lon="2.48536">
        <ele>103.6</ele>
        <time>2014-04-27T09:50:44.15</time>
      </trkpt>
      <trkpt lat="49.29742" lon="2.48537">
        <ele>104.5</ele>
        <time>2014-04-27T09:50:50.15</time>
      </trkpt>
      <trkpt lat="49.2975" lon="2.48534">
        <ele>104.4</ele>
        <time>2014-04-27T09:50:56.15</time>
      </trkpt>
      <trkpt lat="49.29758" lon="2.48532">
        <ele>105.2</ele>
        <time>2014-04-27T09:51:03.15</time>
      </trkpt>
      <trkpt lat="49.29765" lon="2.4853">
        <ele>105.1</ele>
        <time>2014-04-27T09:51:10.15</time>
      </trkpt>
      <trkpt lat="49.29774" lon="2.48528">
        <ele>105</ele>
        <time>2014-04-27T09:51:17.15</time>
      </trkpt>
      <trkpt lat="49.29782" lon="2.48528">
        <ele>105</ele>
        <time>2014-04-27T09:51:23.15</time>
      </trkpt>
      <trkpt lat="49.2979" lon="2.48528">
        <ele>104.5</ele>
        <time>2014-04-27T09:51:29.25</time>
      </trkpt>
      <trkpt lat="49.29797" lon="2.48527">
        <ele>104</ele>
        <time>2014-04-27T09:51:35.15</time>
      </trkpt>
      <trkpt lat="49.29804" lon="2.48526">
        <ele>104.5</ele>
        <time>2014-04-27T09:51:41.15</time>
      </trkpt>
      <trkpt lat="49.29812" lon="2.48525">
        <ele>105</ele>
        <time>2014-04-27T09:51:47.15</time>
      </trkpt>
      <trkpt lat="49.2982" lon="2.48525">
        <ele>105.9</ele>
        <time>2014-04-27T09:51:53.15</time>
      </trkpt>
      <trkpt lat="49.29828" lon="2.48526">
        <ele>106.3</ele>
        <time>2014-04-27T09:51:59.15</time>
      </trkpt>
      <trkpt lat="49.29836" lon="2.48525">
        <ele>107</ele>
        <time>2014-04-27T09:52:06.15</time>
      </trkpt>
      <trkpt lat="49.29843" lon="2.48526">
        <ele>107</ele>
        <time>2014-04-27T09:52:13.15</time>
      </trkpt>
      <trkpt lat="49.29851" lon="2.48525">
        <ele>106.4</ele>
        <time>2014-04-27T09:52:19.15</time>
      </trkpt>
      <trkpt lat="49.29858" lon="2.48525">
        <ele>106.8</ele>
        <time>2014-04-27T09:52:26.15</time>
      </trkpt>
      <trkpt lat="49.29866" lon="2.48524">
        <ele>107.1</ele>
        <time>2014-04-27T09:52:32.25</time>
      </trkpt>
      <trkpt lat="49.29874" lon="2.48525">
        <ele>108</ele>
        <time>2014-04-27T09:52:38.15</time>
      </trkpt>
      <trkpt lat="49.29882" lon="2.48526">
        <ele>107.4</ele>
        <time>2014-04-27T09:52:44.15</time>
      </trkpt>
      <trkpt lat="49.29889" lon="2.48527">
        <ele>107.9</ele>
        <time>2014-04-27T09:52:51.15</time>
      </trkpt>
      <trkpt lat="49.29896" lon="2.48529">
        <ele>107.8</ele>
        <time>2014-04-27T09:52:57.15</time>
      </trkpt>
      <trkpt lat="49.29905" lon="2.4853">
        <ele>107.4</ele>
        <time>2014-04-27T09:53:04.15</time>
      </trkpt>
      <trkpt lat="49.29912" lon="2.48532">
        <ele>107.1</ele>
        <time>2014-04-27T09:53:10.15</time>
      </trkpt>
      <trkpt lat="49.29919" lon="2.48534">
        <ele>106.5</ele>
        <time>2014-04-27T09:53:16.15</time>
      </trkpt>
      <trkpt lat="49.29927" lon="2.48537">
        <ele>106.7</ele>
        <time>2014-04-27T09:53:22.15</time>
      </trkpt>
      <trkpt lat="49.29934" lon="2.48539">
        <ele>107.1</ele>
        <time>2014-04-27T09:53:28.15</time>
      </trkpt>
      <trkpt lat="49.29942" lon="2.48542">
        <ele>107.1</ele>
        <time>2014-04-27T09:53:34.15</time>
      </trkpt>
      <trkpt lat="49.2995" lon="2.48544">
        <ele>106.9</ele>
        <time>2014-04-27T09:53:41.15</time>
      </trkpt>
      <trkpt lat="49.29954" lon="2.48546">
        <ele>107.4</ele>
        <time>2014-04-27T09:53:48.15</time>
      </trkpt>
      <trkpt lat="49.29958" lon="2.48547">
        <ele>107.1</ele>
        <time>2014-04-27T09:53:55.15</time>
      </trkpt>
      <trkpt lat="49.29958" lon="2.48547">
        <ele>107.6</ele>
        <time>2014-04-27T09:54:02.15</time>
      </trkpt>
      <trkpt lat="49.29964" lon="2.48528">
        <ele>108.3</ele>
        <time>2014-04-27T09:54:03.35</time>
      </trkpt>
      <trkpt lat="49.29965" lon="2.48516">
        <ele>108.5</ele>
        <time>2014-04-27T09:54:08.15</time>
      </trkpt>
      <trkpt lat="49.29963" lon="2.48505">
        <ele>108.6</ele>
        <time>2014-04-27T09:54:15</time>
      </trkpt>
      <trkpt lat="49.29959" lon="2.48494">
        <ele>108.6</ele>
        <time>2014-04-27T09:54:22.15</time>
      </trkpt>
      <trkpt lat="49.29958" lon="2.48483">
        <ele>108.6</ele>
        <time>2014-04-27T09:54:28.15</time>
      </trkpt>
      <trkpt lat="49.29955" lon="2.48471">
        <ele>108.5</ele>
        <time>2014-04-27T09:54:34.25</time>
      </trkpt>
      <trkpt lat="49.29954" lon="2.4846">
        <ele>108.6</ele>
        <time>2014-04-27T09:54:40.15</time>
      </trkpt>
      <trkpt lat="49.29953" lon="2.48448">
        <ele>108.6</ele>
        <time>2014-04-27T09:54:46.15</time>
      </trkpt>
      <trkpt lat="49.29952" lon="2.48436">
        <ele>108.6</ele>
        <time>2014-04-27T09:54:52.15</time>
      </trkpt>
      <trkpt lat="49.29947" lon="2.48426">
        <ele>108.9</ele>
        <time>2014-04-27T09:54:58.15</time>
      </trkpt>
      <trkpt lat="49.29944" lon="2.48415">
        <ele>109.3</ele>
        <time>2014-04-27T09:55:04.15</time>
      </trkpt>
      <trkpt lat="49.29942" lon="2.48404">
        <ele>110.1</ele>
        <time>2014-04-27T09:55:11.15</time>
      </trkpt>
      <trkpt lat="49.29941" lon="2.48393">
        <ele>110.7</ele>
        <time>2014-04-27T09:55:17.15</time>
      </trkpt>
      <trkpt lat="49.29938" lon="2.48381">
        <ele>111.3</ele>
        <time>2014-04-27T09:55:23.15</time>
      </trkpt>
      <trkpt lat="49.29935" lon="2.48369">
        <ele>111.5</ele>
        <time>2014-04-27T09:55:29.35</time>
      </trkpt>
      <trkpt lat="49.29934" lon="2.48359">
        <ele>112</ele>
        <time>2014-04-27T09:55:35.15</time>
      </trkpt>
      <trkpt lat="49.29932" lon="2.48348">
        <ele>112</ele>
        <time>2014-04-27T09:55:41.15</time>
      </trkpt>
      <trkpt lat="49.2993" lon="2.48337">
        <ele>111.9</ele>
        <time>2014-04-27T09:55:47.15</time>
      </trkpt>
      <trkpt lat="49.29927" lon="2.48325">
        <ele>111.9</ele>
        <time>2014-04-27T09:55:54.15</time>
      </trkpt>
      <trkpt lat="49.29925" lon="2.48313">
        <ele>111.4</ele>
        <time>2014-04-27T09:56:00.15</time>
      </trkpt>
      <trkpt lat="49.29923" lon="2.48301">
        <ele>111.1</ele>
        <time>2014-04-27T09:56:07.15</time>
      </trkpt>
      <trkpt lat="49.2992" lon="2.48289">
        <ele>111</ele>
        <time>2014-04-27T09:56:14.15</time>
      </trkpt>
      <trkpt lat="49.29918" lon="2.48278">
        <ele>110.6</ele>
        <time>2014-04-27T09:56:20.65</time>
      </trkpt>
      <trkpt lat="49.29916" lon="2.48267">
        <ele>110.6</ele>
        <time>2014-04-27T09:56:26.15</time>
      </trkpt>
      <trkpt lat="49.29913" lon="2.48256">
        <ele>110.6</ele>
        <time>2014-04-27T09:56:32.65</time>
      </trkpt>
      <trkpt lat="49.29911" lon="2.48245">
        <ele>110.4</ele>
        <time>2014-04-27T09:56:38.15</time>
      </trkpt>
      <trkpt lat="49.2991" lon="2.48234">
        <ele>110.3</ele>
        <time>2014-04-27T09:56:44.15</time>
      </trkpt>
      <trkpt lat="49.29908" lon="2.48223">
        <ele>110.9</ele>
        <time>2014-04-27T09:56:50.15</time>
      </trkpt>
      <trkpt lat="49.29906" lon="2.48212">
        <ele>111.5</ele>
        <time>2014-04-27T09:56:56.15</time>
      </trkpt>
      <trkpt lat="49.29904" lon="2.48201">
        <ele>111.6</ele>
        <time>2014-04-27T09:57:02.15</time>
      </trkpt>
      <trkpt lat="49.29902" lon="2.48189">
        <ele>111.1</ele>
        <time>2014-04-27T09:57:08.15</time>
      </trkpt>
      <trkpt lat="49.299" lon="2.48179">
        <ele>110.9</ele>
        <time>2014-04-27T09:57:14.15</time>
      </trkpt>
      <trkpt lat="49.29897" lon="2.48167">
        <ele>110.9</ele>
        <time>2014-04-27T09:57:20.15</time>
      </trkpt>
      <trkpt lat="49.29895" lon="2.48156">
        <ele>111.1</ele>
        <time>2014-04-27T09:57:26.15</time>
      </trkpt>
      <trkpt lat="49.29893" lon="2.48144">
        <ele>111</ele>
        <time>2014-04-27T09:57:32.15</time>
      </trkpt>
      <trkpt lat="49.29891" lon="2.48133">
        <ele>110.9</ele>
        <time>2014-04-27T09:57:38.15</time>
      </trkpt>
      <trkpt lat="49.29889" lon="2.48123">
        <ele>110.8</ele>
        <time>2014-04-27T09:57:45.15</time>
      </trkpt>
      <trkpt lat="49.29887" lon="2.48111">
        <ele>110.4</ele>
        <time>2014-04-27T09:57:51.15</time>
      </trkpt>
      <trkpt lat="49.29885" lon="2.481">
        <ele>110</ele>
        <time>2014-04-27T09:57:57.15</time>
      </trkpt>
      <trkpt lat="49.29883" lon="2.48089">
        <ele>110.4</ele>
        <time>2014-04-27T09:58:04.15</time>
      </trkpt>
      <trkpt lat="49.29881" lon="2.48077">
        <ele>109.9</ele>
        <time>2014-04-27T09:58:10.15</time>
      </trkpt>
      <trkpt lat="49.29879" lon="2.48066">
        <ele>109.1</ele>
        <time>2014-04-27T09:58:16.15</time>
      </trkpt>
      <trkpt lat="49.29877" lon="2.48055">
        <ele>108.3</ele>
        <time>2014-04-27T09:58:23.15</time>
      </trkpt>
      <trkpt lat="49.29875" lon="2.48043">
        <ele>107.2</ele>
        <time>2014-04-27T09:58:30.15</time>
      </trkpt>
      <trkpt lat="49.29873" lon="2.48033">
        <ele>106.1</ele>
        <time>2014-04-27T09:58:36.15</time>
      </trkpt>
      <trkpt lat="49.29871" lon="2.4802">
        <ele>105.6</ele>
        <time>2014-04-27T09:58:43.15</time>
      </trkpt>
      <trkpt lat="49.29869" lon="2.4801">
        <ele>105.8</ele>
        <time>2014-04-27T09:58:50.15</time>
      </trkpt>
      <trkpt lat="49.29867" lon="2.47999">
        <ele>105.6</ele>
        <time>2014-04-27T09:58:57.15</time>
      </trkpt>
      <trkpt lat="49.29865" lon="2.47988">
        <ele>105.2</ele>
        <time>2014-04-27T09:59:04.55</time>
      </trkpt>
      <trkpt lat="49.29865" lon="2.47974">
        <ele>105.7</ele>
        <time>2014-04-27T09:59:11.15</time>
      </trkpt>
      <trkpt lat="49.29865" lon="2.47964">
        <ele>105.9</ele>
        <time>2014-04-27T09:59:17.25</time>
      </trkpt>
      <trkpt lat="49.29865" lon="2.47953">
        <ele>107</ele>
        <time>2014-04-27T09:59:24.15</time>
      </trkpt>
      <trkpt lat="49.29864" lon="2.47941">
        <ele>107.2</ele>
        <time>2014-04-27T09:59:31.15</time>
      </trkpt>
      <trkpt lat="49.29862" lon="2.47931">
        <ele>107.2</ele>
        <time>2014-04-27T09:59:37.15</time>
      </trkpt>
      <trkpt lat="49.29861" lon="2.4792">
        <ele>107.1</ele>
        <time>2014-04-27T09:59:44.15</time>
      </trkpt>
      <trkpt lat="49.29861" lon="2.47908">
        <ele>107.2</ele>
        <time>2014-04-27T09:59:50.15</time>
      </trkpt>
      <trkpt lat="49.29862" lon="2.47897">
        <ele>107.2</ele>
        <time>2014-04-27T09:59:57.15</time>
      </trkpt>
      <trkpt lat="49.29864" lon="2.4789">
        <ele>107.1</ele>
        <time>2014-04-27T10:00:04.15</time>
      </trkpt>
      <trkpt lat="49.29864" lon="2.47888">
        <ele>107.2</ele>
        <time>2014-04-27T10:00:11.15</time>
      </trkpt>
      <trkpt lat="49.29864" lon="2.47884">
        <ele>107.2</ele>
        <time>2014-04-27T10:00:14.45</time>
      </trkpt>
      <trkpt lat="49.29867" lon="2.47875">
        <ele>107.3</ele>
        <time>2014-04-27T10:00:15.25</time>
      </trkpt>
      <trkpt lat="49.29869" lon="2.47863">
        <ele>107.7</ele>
        <time>2014-04-27T10:00:21.15</time>
      </trkpt>
      <trkpt lat="49.29871" lon="2.47852">
        <ele>107.9</ele>
        <time>2014-04-27T10:00:28.15</time>
      </trkpt>
      <trkpt lat="49.29874" lon="2.47842">
        <ele>108</ele>
        <time>2014-04-27T10:00:34.15</time>
      </trkpt>
      <trkpt lat="49.29878" lon="2.47831">
        <ele>107.7</ele>
        <time>2014-04-27T10:00:41.15</time>
      </trkpt>
      <trkpt lat="49.2988" lon="2.4782">
        <ele>107.7</ele>
        <time>2014-04-27T10:00:48.15</time>
      </trkpt>
      <trkpt lat="49.29885" lon="2.47811">
        <ele>107.7</ele>
        <time>2014-04-27T10:00:54.15</time>
      </trkpt>
      <trkpt lat="49.29886" lon="2.478">
        <ele>107.6</ele>
        <time>2014-04-27T10:00:59.15</time>
      </trkpt>
      <trkpt lat="49.29887" lon="2.47788">
        <ele>107.4</ele>
        <time>2014-04-27T10:01:05.15</time>
      </trkpt>
      <trkpt lat="49.2989" lon="2.47779">
        <ele>107.2</ele>
        <time>2014-04-27T10:01:12.15</time>
      </trkpt>
      <trkpt lat="49.29894" lon="2.47767">
        <ele>107.1</ele>
        <time>2014-04-27T10:01:19.15</time>
      </trkpt>
      <trkpt lat="49.29895" lon="2.47754">
        <ele>106.5</ele>
        <time>2014-04-27T10:01:25.15</time>
      </trkpt>
      <trkpt lat="49.29897" lon="2.47742">
        <ele>106.3</ele>
        <time>2014-04-27T10:01:32.15</time>
      </trkpt>
      <trkpt lat="49.29896" lon="2.47729">
        <ele>106</ele>
        <time>2014-04-27T10:01:38.15</time>
      </trkpt>
      <trkpt lat="49.29895" lon="2.47718">
        <ele>105.2</ele>
        <time>2014-04-27T10:01:44.15</time>
      </trkpt>
      <trkpt lat="49.29894" lon="2.47705">
        <ele>104.5</ele>
        <time>2014-04-27T10:01:51.15</time>
      </trkpt>
      <trkpt lat="49.29894" lon="2.47694">
        <ele>103.5</ele>
        <time>2014-04-27T10:01:57.15</time>
      </trkpt>
      <trkpt lat="49.29892" lon="2.47683">
        <ele>102.3</ele>
        <time>2014-04-27T10:02:03.15</time>
      </trkpt>
      <trkpt lat="49.29889" lon="2.47672">
        <ele>101.2</ele>
        <time>2014-04-27T10:02:09.15</time>
      </trkpt>
      <trkpt lat="49.29885" lon="2.47662">
        <ele>100.1</ele>
        <time>2014-04-27T10:02:16.15</time>
      </trkpt>
      <trkpt lat="49.29882" lon="2.47651">
        <ele>99.6</ele>
        <time>2014-04-27T10:02:22.15</time>
      </trkpt>
      <trkpt lat="49.29878" lon="2.47642">
        <ele>98.5</ele>
        <time>2014-04-27T10:02:28.15</time>
      </trkpt>
      <trkpt lat="49.29874" lon="2.47631">
        <ele>97.8</ele>
        <time>2014-04-27T10:02:35.15</time>
      </trkpt>
      <trkpt lat="49.29869" lon="2.47622">
        <ele>97.3</ele>
        <time>2014-04-27T10:02:41.15</time>
      </trkpt>
      <trkpt lat="49.29865" lon="2.47612">
        <ele>96.1</ele>
        <time>2014-04-27T10:02:47.15</time>
      </trkpt>
      <trkpt lat="49.29859" lon="2.47606">
        <ele>94.3</ele>
        <time>2014-04-27T10:02:53.15</time>
      </trkpt>
      <trkpt lat="49.29853" lon="2.47598">
        <ele>92.9</ele>
        <time>2014-04-27T10:02:59.15</time>
      </trkpt>
      <trkpt lat="49.2985" lon="2.47587">
        <ele>91.9</ele>
        <time>2014-04-27T10:03:05.15</time>
      </trkpt>
      <trkpt lat="49.29845" lon="2.47578">
        <ele>91.1</ele>
        <time>2014-04-27T10:03:12.15</time>
      </trkpt>
      <trkpt lat="49.29841" lon="2.47567">
        <ele>90.3</ele>
        <time>2014-04-27T10:03:19.15</time>
      </trkpt>
      <trkpt lat="49.29835" lon="2.47559">
        <ele>89.7</ele>
        <time>2014-04-27T10:03:25.15</time>
      </trkpt>
      <trkpt lat="49.29831" lon="2.4755">
        <ele>89.3</ele>
        <time>2014-04-27T10:03:31.15</time>
      </trkpt>
      <trkpt lat="49.29826" lon="2.4754">
        <ele>89.4</ele>
        <time>2014-04-27T10:03:37.15</time>
      </trkpt>
      <trkpt lat="49.29821" lon="2.47531">
        <ele>89.3</ele>
        <time>2014-04-27T10:03:43.15</time>
      </trkpt>
      <trkpt lat="49.29816" lon="2.47522">
        <ele>89.5</ele>
        <time>2014-04-27T10:03:49.15</time>
      </trkpt>
      <trkpt lat="49.29812" lon="2.47512">
        <ele>89.3</ele>
        <time>2014-04-27T10:03:54.15</time>
      </trkpt>
      <trkpt lat="49.29809" lon="2.47504">
        <ele>88.9</ele>
        <time>2014-04-27T10:04:01.15</time>
      </trkpt>
      <trkpt lat="49.29805" lon="2.47497">
        <ele>88.1</ele>
        <time>2014-04-27T10:04:08.15</time>
      </trkpt>
      <trkpt lat="49.29803" lon="2.4749">
        <ele>87.4</ele>
        <time>2014-04-27T10:04:15</time>
      </trkpt>
      <trkpt lat="49.29797" lon="2.47482">
        <ele>87</ele>
        <time>2014-04-27T10:04:21.15</time>
      </trkpt>
      <trkpt lat="49.29791" lon="2.47475">
        <ele>86.7</ele>
        <time>2014-04-27T10:04:27.15</time>
      </trkpt>
      <trkpt lat="49.29788" lon="2.47464">
        <ele>86.7</ele>
        <time>2014-04-27T10:04:32.15</time>
      </trkpt>
      <trkpt lat="49.29782" lon="2.47456">
        <ele>86.5</ele>
        <time>2014-04-27T10:04:37.15</time>
      </trkpt>
      <trkpt lat="49.29777" lon="2.47446">
        <ele>86.1</ele>
        <time>2014-04-27T10:04:44.15</time>
      </trkpt>
      <trkpt lat="49.29774" lon="2.4744">
        <ele>85.8</ele>
        <time>2014-04-27T10:04:51.15</time>
      </trkpt>
      <trkpt lat="49.2977" lon="2.47435">
        <ele>85.5</ele>
        <time>2014-04-27T10:04:58.15</time>
      </trkpt>
      <trkpt lat="49.29764" lon="2.4743">
        <ele>85.5</ele>
        <time>2014-04-27T10:05:05.15</time>
      </trkpt>
      <trkpt lat="49.2976" lon="2.47421">
        <ele>84.9</ele>
        <time>2014-04-27T10:05:12.15</time>
      </trkpt>
      <trkpt lat="49.29757" lon="2.47409">
        <ele>84.7</ele>
        <time>2014-04-27T10:05:18.15</time>
      </trkpt>
      <trkpt lat="49.29752" lon="2.47398">
        <ele>84.7</ele>
        <time>2014-04-27T10:05:24.15</time>
      </trkpt>
      <trkpt lat="49.29747" lon="2.47388">
        <ele>84.4</ele>
        <time>2014-04-27T10:05:31.25</time>
      </trkpt>
      <trkpt lat="49.29742" lon="2.47378">
        <ele>84.1</ele>
        <time>2014-04-27T10:05:38.5</time>
      </trkpt>
      <trkpt lat="49.29737" lon="2.47369">
        <ele>84</ele>
        <time>2014-04-27T10:05:42.15</time>
      </trkpt>
      <trkpt lat="49.29731" lon="2.47361">
        <ele>84.1</ele>
        <time>2014-04-27T10:05:47.15</time>
      </trkpt>
      <trkpt lat="49.29728" lon="2.4735">
        <ele>84.4</ele>
        <time>2014-04-27T10:05:54.5</time>
      </trkpt>
      <trkpt lat="49.29731" lon="2.47339">
        <ele>85</ele>
        <time>2014-04-27T10:06:00.15</time>
      </trkpt>
      <trkpt lat="49.29735" lon="2.47329">
        <ele>85.6</ele>
        <time>2014-04-27T10:06:06.15</time>
      </trkpt>
      <trkpt lat="49.29738" lon="2.47321">
        <ele>85.9</ele>
        <time>2014-04-27T10:06:13.15</time>
      </trkpt>
      <trkpt lat="49.29743" lon="2.47316">
        <ele>86.1</ele>
        <time>2014-04-27T10:06:20.15</time>
      </trkpt>
      <trkpt lat="49.29746" lon="2.47309">
        <ele>85.9</ele>
        <time>2014-04-27T10:06:27.5</time>
      </trkpt>
      <trkpt lat="49.29749" lon="2.473">
        <ele>86</ele>
        <time>2014-04-27T10:06:34.15</time>
      </trkpt>
      <trkpt lat="49.29753" lon="2.47294">
        <ele>86</ele>
        <time>2014-04-27T10:06:41.15</time>
      </trkpt>
      <trkpt lat="49.29758" lon="2.47289">
        <ele>85</ele>
        <time>2014-04-27T10:06:48.5</time>
      </trkpt>
      <trkpt lat="49.29764" lon="2.47281">
        <ele>85</ele>
        <time>2014-04-27T10:06:55.15</time>
      </trkpt>
      <trkpt lat="49.29768" lon="2.47272">
        <ele>84.7</ele>
        <time>2014-04-27T10:07:01.15</time>
      </trkpt>
      <trkpt lat="49.29774" lon="2.47263">
        <ele>84.8</ele>
        <time>2014-04-27T10:07:06.15</time>
      </trkpt>
      <trkpt lat="49.2978" lon="2.47256">
        <ele>84.7</ele>
        <time>2014-04-27T10:07:12.5</time>
      </trkpt>
      <trkpt lat="49.29782" lon="2.47244">
        <ele>84.6</ele>
        <time>2014-04-27T10:07:18.5</time>
      </trkpt>
      <trkpt lat="49.29782" lon="2.47232">
        <ele>84.7</ele>
        <time>2014-04-27T10:07:24.5</time>
      </trkpt>
      <trkpt lat="49.2978" lon="2.47222">
        <ele>84.4</ele>
        <time>2014-04-27T10:07:31.15</time>
      </trkpt>
      <trkpt lat="49.29776" lon="2.47216">
        <ele>83.9</ele>
        <time>2014-04-27T10:07:38.5</time>
      </trkpt>
      <trkpt lat="49.29774" lon="2.47209">
        <ele>83.5</ele>
        <time>2014-04-27T10:07:45.5</time>
      </trkpt>
      <trkpt lat="49.29772" lon="2.47204">
        <ele>83.4</ele>
        <time>2014-04-27T10:07:52.5</time>
      </trkpt>
      <trkpt lat="49.29769" lon="2.47191">
        <ele>83.5</ele>
        <time>2014-04-27T10:07:59.25</time>
      </trkpt>
      <trkpt lat="49.29769" lon="2.47181">
        <ele>83.5</ele>
        <time>2014-04-27T10:08:06.5</time>
      </trkpt>
      <trkpt lat="49.29767" lon="2.47169">
        <ele>83.7</ele>
        <time>2014-04-27T10:08:12.5</time>
      </trkpt>
      <trkpt lat="49.29767" lon="2.47159">
        <ele>83.4</ele>
        <time>2014-04-27T10:08:19.15</time>
      </trkpt>
      <trkpt lat="49.29768" lon="2.47149">
        <ele>83.1</ele>
        <time>2014-04-27T10:08:25.15</time>
      </trkpt>
      <trkpt lat="49.29769" lon="2.47138">
        <ele>82.8</ele>
        <time>2014-04-27T10:08:32.5</time>
      </trkpt>
      <trkpt lat="49.29773" lon="2.47127">
        <ele>82.7</ele>
        <time>2014-04-27T10:08:38.5</time>
      </trkpt>
      <trkpt lat="49.29776" lon="2.47117">
        <ele>82.5</ele>
        <time>2014-04-27T10:08:45.5</time>
      </trkpt>
      <trkpt lat="49.29777" lon="2.47106">
        <ele>82.4</ele>
        <time>2014-04-27T10:08:52.5</time>
      </trkpt>
      <trkpt lat="49.2978" lon="2.47095">
        <ele>82.2</ele>
        <time>2014-04-27T10:08:59.15</time>
      </trkpt>
      <trkpt lat="49.29781" lon="2.47086">
        <ele>81.9</ele>
        <time>2014-04-27T10:09:06.5</time>
      </trkpt>
      <trkpt lat="49.29786" lon="2.47077">
        <ele>81.8</ele>
        <time>2014-04-27T10:09:13.15</time>
      </trkpt>
      <trkpt lat="49.29792" lon="2.47069">
        <ele>81.6</ele>
        <time>2014-04-27T10:09:19.15</time>
      </trkpt>
      <trkpt lat="49.29796" lon="2.47059">
        <ele>81.6</ele>
        <time>2014-04-27T10:09:25.15</time>
      </trkpt>
      <trkpt lat="49.298" lon="2.47049">
        <ele>81.3</ele>
        <time>2014-04-27T10:09:32.5</time>
      </trkpt>
      <trkpt lat="49.29804" lon="2.4704">
        <ele>80.4</ele>
        <time>2014-04-27T10:09:39.5</time>
      </trkpt>
      <trkpt lat="49.29807" lon="2.47034">
        <ele>80</ele>
        <time>2014-04-27T10:09:46.5</time>
      </trkpt>
      <trkpt lat="49.29812" lon="2.47025">
        <ele>79.4</ele>
        <time>2014-04-27T10:09:53.15</time>
      </trkpt>
      <trkpt lat="49.29816" lon="2.47017">
        <ele>78.9</ele>
        <time>2014-04-27T10:10:00.15</time>
      </trkpt>
      <trkpt lat="49.29817" lon="2.47006">
        <ele>78.7</ele>
        <time>2014-04-27T10:10:07.15</time>
      </trkpt>
      <trkpt lat="49.29821" lon="2.46997">
        <ele>78.7</ele>
        <time>2014-04-27T10:10:14.5</time>
      </trkpt>
      <trkpt lat="49.29823" lon="2.46987">
        <ele>78.5</ele>
        <time>2014-04-27T10:10:21.5</time>
      </trkpt>
      <trkpt lat="49.29822" lon="2.46974">
        <ele>78.1</ele>
        <time>2014-04-27T10:10:27.5</time>
      </trkpt>
      <trkpt lat="49.29822" lon="2.46962">
        <ele>77.6</ele>
        <time>2014-04-27T10:10:34.15</time>
      </trkpt>
      <trkpt lat="49.29823" lon="2.4695">
        <ele>76.9</ele>
        <time>2014-04-27T10:10:41.15</time>
      </trkpt>
      <trkpt lat="49.29823" lon="2.46937">
        <ele>76.4</ele>
        <time>2014-04-27T10:10:48.5</time>
      </trkpt>
      <trkpt lat="49.29822" lon="2.46926">
        <ele>75.9</ele>
        <time>2014-04-27T10:10:55.15</time>
      </trkpt>
      <trkpt lat="49.29822" lon="2.46913">
        <ele>75.6</ele>
        <time>2014-04-27T10:11:01.15</time>
      </trkpt>
      <trkpt lat="49.29824" lon="2.469">
        <ele>74.8</ele>
        <time>2014-04-27T10:11:08.5</time>
      </trkpt>
      <trkpt lat="49.29822" lon="2.46888">
        <ele>74</ele>
        <time>2014-04-27T10:11:14.5</time>
      </trkpt>
      <trkpt lat="49.29821" lon="2.46878">
        <ele>72.8</ele>
        <time>2014-04-27T10:11:21.5</time>
      </trkpt>
      <trkpt lat="49.29823" lon="2.46873">
        <ele>71.3</ele>
        <time>2014-04-27T10:11:28.5</time>
      </trkpt>
      <trkpt lat="49.29827" lon="2.46872">
        <ele>70.2</ele>
        <time>2014-04-27T10:11:35.15</time>
      </trkpt>
      <trkpt lat="49.2983" lon="2.46878">
        <ele>69.1</ele>
        <time>2014-04-27T10:11:42.5</time>
      </trkpt>
      <trkpt lat="49.29834" lon="2.46886">
        <ele>68.4</ele>
        <time>2014-04-27T10:11:49.15</time>
      </trkpt>
      <trkpt lat="49.29839" lon="2.46894">
        <ele>67.6</ele>
        <time>2014-04-27T10:11:56.5</time>
      </trkpt>
      <trkpt lat="49.29845" lon="2.46902">
        <ele>67</ele>
        <time>2014-04-27T10:12:03.15</time>
      </trkpt>
      <trkpt lat="49.29852" lon="2.46907">
        <ele>66.4</ele>
        <time>2014-04-27T10:12:07.15</time>
      </trkpt>
      <trkpt lat="49.29859" lon="2.46914">
        <ele>65.7</ele>
        <time>2014-04-27T10:12:12.5</time>
      </trkpt>
      <trkpt lat="49.29864" lon="2.4692">
        <ele>64.7</ele>
        <time>2014-04-27T10:12:19.15</time>
      </trkpt>
      <trkpt lat="49.29869" lon="2.46927">
        <ele>63.8</ele>
        <time>2014-04-27T10:12:26.5</time>
      </trkpt>
      <trkpt lat="49.29875" lon="2.46933">
        <ele>62.3</ele>
        <time>2014-04-27T10:12:33.5</time>
      </trkpt>
      <trkpt lat="49.29879" lon="2.46942">
        <ele>61.4</ele>
        <time>2014-04-27T10:12:40.5</time>
      </trkpt>
      <trkpt lat="49.29883" lon="2.46952">
        <ele>60.2</ele>
        <time>2014-04-27T10:12:46.5</time>
      </trkpt>
      <trkpt lat="49.29887" lon="2.46964">
        <ele>59.4</ele>
        <time>2014-04-27T10:12:53.15</time>
      </trkpt>
      <trkpt lat="49.29891" lon="2.46973">
        <ele>59.1</ele>
        <time>2014-04-27T10:12:58.15</time>
      </trkpt>
      <trkpt lat="49.29894" lon="2.46983">
        <ele>58.3</ele>
        <time>2014-04-27T10:13:05.15</time>
      </trkpt>
      <trkpt lat="49.29894" lon="2.46995">
        <ele>57.5</ele>
        <time>2014-04-27T10:13:12.5</time>
      </trkpt>
      <trkpt lat="49.29898" lon="2.47004">
        <ele>56.5</ele>
        <time>2014-04-27T10:13:17.15</time>
      </trkpt>
      <trkpt lat="49.299" lon="2.47015">
        <ele>55.9</ele>
        <time>2014-04-27T10:13:23.15</time>
      </trkpt>
      <trkpt lat="49.29901" lon="2.47026">
        <ele>55.5</ele>
        <time>2014-04-27T10:13:28.5</time>
      </trkpt>
      <trkpt lat="49.29904" lon="2.47037">
        <ele>54.8</ele>
        <time>2014-04-27T10:13:34.5</time>
      </trkpt>
      <trkpt lat="49.29906" lon="2.47046">
        <ele>54.1</ele>
        <time>2014-04-27T10:13:41.15</time>
      </trkpt>
      <trkpt lat="49.29909" lon="2.47057">
        <ele>53.4</ele>
        <time>2014-04-27T10:13:48.5</time>
      </trkpt>
      <trkpt lat="49.29912" lon="2.47067">
        <ele>52.6</ele>
        <time>2014-04-27T10:13:54.5</time>
      </trkpt>
      <trkpt lat="49.29916" lon="2.47077">
        <ele>51.8</ele>
        <time>2014-04-27T10:14:01.15</time>
      </trkpt>
      <trkpt lat="49.29917" lon="2.47086">
        <ele>51.2</ele>
        <time>2014-04-27T10:14:08.5</time>
      </trkpt>
      <trkpt lat="49.29921" lon="2.47099">
        <ele>50.7</ele>
        <time>2014-04-27T10:14:15.5</time>
      </trkpt>
      <trkpt lat="49.29923" lon="2.47112">
        <ele>50.1</ele>
        <time>2014-04-27T10:14:20.15</time>
      </trkpt>
      <trkpt lat="49.29925" lon="2.47123">
        <ele>49.3</ele>
        <time>2014-04-27T10:14:27.5</time>
      </trkpt>
      <trkpt lat="49.29928" lon="2.47129">
        <ele>48.8</ele>
        <time>2014-04-27T10:14:34.5</time>
      </trkpt>
      <trkpt lat="49.29931" lon="2.47137">
        <ele>48.2</ele>
        <time>2014-04-27T10:14:41.15</time>
      </trkpt>
      <trkpt lat="49.29935" lon="2.47143">
        <ele>47.7</ele>
        <time>2014-04-27T10:14:48.5</time>
      </trkpt>
      <trkpt lat="49.29939" lon="2.47149">
        <ele>47.1</ele>
        <time>2014-04-27T10:14:55.15</time>
      </trkpt>
      <trkpt lat="49.29943" lon="2.47157">
        <ele>46.4</ele>
        <time>2014-04-27T10:15:02.5</time>
      </trkpt>
      <trkpt lat="49.29949" lon="2.47166">
        <ele>45.8</ele>
        <time>2014-04-27T10:15:09.5</time>
      </trkpt>
      <trkpt lat="49.29955" lon="2.47173">
        <ele>45.3</ele>
        <time>2014-04-27T10:15:16.5</time>
      </trkpt>
      <trkpt lat="49.29957" lon="2.47184">
        <ele>44.9</ele>
        <time>2014-04-27T10:15:22.5</time>
      </trkpt>
      <trkpt lat="49.29961" lon="2.47191">
        <ele>44.4</ele>
        <time>2014-04-27T10:15:29.15</time>
      </trkpt>
      <trkpt lat="49.29965" lon="2.47201">
        <ele>43.9</ele>
        <time>2014-04-27T10:15:36.5</time>
      </trkpt>
      <trkpt lat="49.29967" lon="2.47212">
        <ele>43.4</ele>
        <time>2014-04-27T10:15:42.55</time>
      </trkpt>
      <trkpt lat="49.2997" lon="2.47224">
        <ele>42.8</ele>
        <time>2014-04-27T10:15:48.5</time>
      </trkpt>
      <trkpt lat="49.29973" lon="2.47234">
        <ele>42.5</ele>
        <time>2014-04-27T10:15:52.15</time>
      </trkpt>
      <trkpt lat="49.29977" lon="2.47243">
        <ele>42.1</ele>
        <time>2014-04-27T10:15:57.15</time>
      </trkpt>
      <trkpt lat="49.29979" lon="2.47255">
        <ele>41.6</ele>
        <time>2014-04-27T10:16:04.5</time>
      </trkpt>
      <trkpt lat="49.29979" lon="2.47266">
        <ele>41.2</ele>
        <time>2014-04-27T10:16:11.45</time>
      </trkpt>
      <trkpt lat="49.29981" lon="2.47277">
        <ele>40.9</ele>
        <time>2014-04-27T10:16:18.5</time>
      </trkpt>
      <trkpt lat="49.29986" lon="2.47283">
        <ele>40.4</ele>
        <time>2014-04-27T10:16:25.15</time>
      </trkpt>
      <trkpt lat="49.29993" lon="2.47289">
        <ele>39.8</ele>
        <time>2014-04-27T10:16:32.5</time>
      </trkpt>
      <trkpt lat="49.3" lon="2.4729">
        <ele>39.4</ele>
        <time>2014-04-27T10:16:39.5</time>
      </trkpt>
      <trkpt lat="49.30005" lon="2.47291">
        <ele>39.3</ele>
        <time>2014-04-27T10:16:46.5</time>
      </trkpt>
      <trkpt lat="49.30012" lon="2.4729">
        <ele>39</ele>
        <time>2014-04-27T10:16:53.15</time>
      </trkpt>
      <trkpt lat="49.30021" lon="2.47288">
        <ele>40.6</ele>
        <time>2014-04-27T10:16:58.5</time>
      </trkpt>
      <trkpt lat="49.30026" lon="2.47286">
        <ele>41.6</ele>
        <time>2014-04-27T10:17:05.15</time>
      </trkpt>
      <trkpt lat="49.30029" lon="2.47275">
        <ele>43.2</ele>
        <time>2014-04-27T10:17:09.25</time>
      </trkpt>
      <trkpt lat="49.30031" lon="2.47264">
        <ele>43.8</ele>
        <time>2014-04-27T10:17:15.5</time>
      </trkpt>
      <trkpt lat="49.30035" lon="2.47256">
        <ele>44.4</ele>
        <time>2014-04-27T10:17:22.5</time>
      </trkpt>
      <trkpt lat="49.30037" lon="2.47247">
        <ele>45.2</ele>
        <time>2014-04-27T10:17:29.5</time>
      </trkpt>
      <trkpt lat="49.30039" lon="2.47236">
        <ele>45.8</ele>
        <time>2014-04-27T10:17:36.5</time>
      </trkpt>
      <trkpt lat="49.30044" lon="2.47226">
        <ele>45.9</ele>
        <time>2014-04-27T10:17:42.5</time>
      </trkpt>
      <trkpt lat="49.30048" lon="2.4722">
        <ele>45.9</ele>
        <time>2014-04-27T10:17:49.15</time>
      </trkpt>
      <trkpt lat="49.30055" lon="2.47216">
        <ele>46</ele>
        <time>2014-04-27T10:17:56.5</time>
      </trkpt>
      <trkpt lat="49.30062" lon="2.47215">
        <ele>46.1</ele>
        <time>2014-04-27T10:18:03.5</time>
      </trkpt>
      <trkpt lat="49.30068" lon="2.47216">
        <ele>46.3</ele>
        <time>2014-04-27T10:18:10.15</time>
      </trkpt>
      <trkpt lat="49.30071" lon="2.47222">
        <ele>46.3</ele>
        <time>2014-04-27T10:18:17.45</time>
      </trkpt>
      <trkpt lat="49.30079" lon="2.47225">
        <ele>46.1</ele>
        <time>2014-04-27T10:18:22.5</time>
      </trkpt>
      <trkpt lat="49.30084" lon="2.47232">
        <ele>45.9</ele>
        <time>2014-04-27T10:18:28.5</time>
      </trkpt>
      <trkpt lat="49.3009" lon="2.47239">
        <ele>45.7</ele>
        <time>2014-04-27T10:18:33.5</time>
      </trkpt>
      <trkpt lat="49.30095" lon="2.47247">
        <ele>45.5</ele>
        <time>2014-04-27T10:18:38.5</time>
      </trkpt>
      <trkpt lat="49.30101" lon="2.47255">
        <ele>45.3</ele>
        <time>2014-04-27T10:18:43.15</time>
      </trkpt>
      <trkpt lat="49.30105" lon="2.47264">
        <ele>45.3</ele>
        <time>2014-04-27T10:18:50.15</time>
      </trkpt>
      <trkpt lat="49.3011" lon="2.47271">
        <ele>44.9</ele>
        <time>2014-04-27T10:18:57.5</time>
      </trkpt>
      <trkpt lat="49.30116" lon="2.47276">
        <ele>44.4</ele>
        <time>2014-04-27T10:19:04.5</time>
      </trkpt>
      <trkpt lat="49.30123" lon="2.47282">
        <ele>43.9</ele>
        <time>2014-04-27T10:19:10.15</time>
      </trkpt>
      <trkpt lat="49.30132" lon="2.47288">
        <ele>43.4</ele>
        <time>2014-04-27T10:19:17.5</time>
      </trkpt>
      <trkpt lat="49.30136" lon="2.47299">
        <ele>43.1</ele>
        <time>2014-04-27T10:19:24.5</time>
      </trkpt>
      <trkpt lat="49.30136" lon="2.4731">
        <ele>43.1</ele>
        <time>2014-04-27T10:19:31.15</time>
      </trkpt>
      <trkpt lat="49.30139" lon="2.47316">
        <ele>43.1</ele>
        <time>2014-04-27T10:19:38.5</time>
      </trkpt>
      <trkpt lat="49.30145" lon="2.47327">
        <ele>42.7</ele>
        <time>2014-04-27T10:19:45.5</time>
      </trkpt>
      <trkpt lat="49.30148" lon="2.47336">
        <ele>42.2</ele>
        <time>2014-04-27T10:19:51.5</time>
      </trkpt>
      <trkpt lat="49.30151" lon="2.47344">
        <ele>42.1</ele>
        <time>2014-04-27T10:19:58.5</time>
      </trkpt>
      <trkpt lat="49.30156" lon="2.47348">
        <ele>42.1</ele>
        <time>2014-04-27T10:20:05</time>
      </trkpt>
      <trkpt lat="49.30165" lon="2.47353">
        <ele>42</ele>
        <time>2014-04-27T10:20:12.5</time>
      </trkpt>
      <trkpt lat="49.30171" lon="2.47359">
        <ele>41.7</ele>
        <time>2014-04-27T10:20:18.5</time>
      </trkpt>
      <trkpt lat="49.30172" lon="2.47362">
        <ele>41.7</ele>
        <time>2014-04-27T10:20:25.5</time>
      </trkpt>
      <trkpt lat="49.30175" lon="2.47373">
        <ele>41.6</ele>
        <time>2014-04-27T10:20:26.25</time>
      </trkpt>
      <trkpt lat="49.30178" lon="2.47385">
        <ele>41.7</ele>
        <time>2014-04-27T10:20:32.5</time>
      </trkpt>
      <trkpt lat="49.3018" lon="2.47397">
        <ele>41.6</ele>
        <time>2014-04-27T10:20:38.5</time>
      </trkpt>
      <trkpt lat="49.30181" lon="2.47409">
        <ele>41.6</ele>
        <time>2014-04-27T10:20:45.5</time>
      </trkpt>
      <trkpt lat="49.30184" lon="2.47422">
        <ele>41.5</ele>
        <time>2014-04-27T10:20:51.5</time>
      </trkpt>
      <trkpt lat="49.30185" lon="2.47434">
        <ele>41.3</ele>
        <time>2014-04-27T10:20:58.25</time>
      </trkpt>
      <trkpt lat="49.30191" lon="2.47443">
        <ele>41.1</ele>
        <time>2014-04-27T10:21:03.5</time>
      </trkpt>
      <trkpt lat="49.30195" lon="2.47454">
        <ele>40.9</ele>
        <time>2014-04-27T10:21:10.5</time>
      </trkpt>
      <trkpt lat="49.30197" lon="2.47465">
        <ele>40.9</ele>
        <time>2014-04-27T10:21:17.25</time>
      </trkpt>
      <trkpt lat="49.30199" lon="2.47476">
        <ele>40.8</ele>
        <time>2014-04-27T10:21:23.5</time>
      </trkpt>
      <trkpt lat="49.302" lon="2.47489">
        <ele>41.2</ele>
        <time>2014-04-27T10:21:30.5</time>
      </trkpt>
      <trkpt lat="49.30201" lon="2.47499">
        <ele>41.2</ele>
        <time>2014-04-27T10:21:37.5</time>
      </trkpt>
      <trkpt lat="49.30203" lon="2.4751">
        <ele>41.2</ele>
        <time>2014-04-27T10:21:44.5</time>
      </trkpt>
      <trkpt lat="49.30206" lon="2.47521">
        <ele>41.5</ele>
        <time>2014-04-27T10:21:50.5</time>
      </trkpt>
      <trkpt lat="49.30208" lon="2.47533">
        <ele>41.5</ele>
        <time>2014-04-27T10:21:56.5</time>
      </trkpt>
      <trkpt lat="49.30215" lon="2.47542">
        <ele>41.4</ele>
        <time>2014-04-27T10:22:02.5</time>
      </trkpt>
      <trkpt lat="49.30218" lon="2.47553">
        <ele>41.3</ele>
        <time>2014-04-27T10:22:07.5</time>
      </trkpt>
      <trkpt lat="49.30219" lon="2.47564">
        <ele>41.1</ele>
        <time>2014-04-27T10:22:14.5</time>
      </trkpt>
      <trkpt lat="49.30221" lon="2.47574">
        <ele>41.2</ele>
        <time>2014-04-27T10:22:21.5</time>
      </trkpt>
      <trkpt lat="49.30222" lon="2.47587">
        <ele>41.2</ele>
        <time>2014-04-27T10:22:28.15</time>
      </trkpt>
      <trkpt lat="49.30224" lon="2.47598">
        <ele>41.2</ele>
        <time>2014-04-27T10:22:34.15</time>
      </trkpt>
      <trkpt lat="49.30228" lon="2.47609">
        <ele>41.2</ele>
        <time>2014-04-27T10:22:40.15</time>
      </trkpt>
      <trkpt lat="49.30232" lon="2.47619">
        <ele>41.3</ele>
        <time>2014-04-27T10:22:46.15</time>
      </trkpt>
      <trkpt lat="49.30236" lon="2.47629">
        <ele>41.5</ele>
        <time>2014-04-27T10:22:53.5</time>
      </trkpt>
      <trkpt lat="49.30236" lon="2.4764">
        <ele>41.4</ele>
        <time>2014-04-27T10:22:59.5</time>
      </trkpt>
      <trkpt lat="49.30241" lon="2.4765">
        <ele>41.2</ele>
        <time>2014-04-27T10:23:06.5</time>
      </trkpt>
      <trkpt lat="49.30245" lon="2.4766">
        <ele>41.3</ele>
        <time>2014-04-27T10:23:12.5</time>
      </trkpt>
      <trkpt lat="49.30248" lon="2.47671">
        <ele>41.2</ele>
        <time>2014-04-27T10:23:17.25</time>
      </trkpt>
      <trkpt lat="49.30252" lon="2.47682">
        <ele>41.1</ele>
        <time>2014-04-27T10:23:23.5</time>
      </trkpt>
      <trkpt lat="49.30256" lon="2.47692">
        <ele>41</ele>
        <time>2014-04-27T10:23:30.5</time>
      </trkpt>
      <trkpt lat="49.30258" lon="2.47703">
        <ele>41.2</ele>
        <time>2014-04-27T10:23:37.5</time>
      </trkpt>
      <trkpt lat="49.30261" lon="2.47714">
        <ele>41.4</ele>
        <time>2014-04-27T10:23:44.5</time>
      </trkpt>
      <trkpt lat="49.30263" lon="2.47724">
        <ele>41.4</ele>
        <time>2014-04-27T10:23:51.5</time>
      </trkpt>
      <trkpt lat="49.30267" lon="2.47734">
        <ele>41.3</ele>
        <time>2014-04-27T10:23:57.5</time>
      </trkpt>
      <trkpt lat="49.3027" lon="2.47745">
        <ele>41.3</ele>
        <time>2014-04-27T10:24:03.5</time>
      </trkpt>
      <trkpt lat="49.30275" lon="2.47754">
        <ele>41.5</ele>
        <time>2014-04-27T10:24:10.25</time>
      </trkpt>
      <trkpt lat="49.30277" lon="2.47765">
        <ele>41.7</ele>
        <time>2014-04-27T10:24:17.25</time>
      </trkpt>
      <trkpt lat="49.30279" lon="2.47776">
        <ele>41.6</ele>
        <time>2014-04-27T10:24:24.5</time>
      </trkpt>
      <trkpt lat="49.30281" lon="2.47788">
        <ele>41.6</ele>
        <time>2014-04-27T10:24:30.5</time>
      </trkpt>
      <trkpt lat="49.30286" lon="2.47796">
        <ele>41.6</ele>
        <time>2014-04-27T10:24:34.5</time>
      </trkpt>
      <trkpt lat="49.3029" lon="2.47807">
        <ele>41.7</ele>
        <time>2014-04-27T10:24:41.5</time>
      </trkpt>
      <trkpt lat="49.30293" lon="2.47818">
        <ele>41.7</ele>
        <time>2014-04-27T10:24:47.5</time>
      </trkpt>
      <trkpt lat="49.30296" lon="2.47829">
        <ele>41.6</ele>
        <time>2014-04-27T10:24:54.5</time>
      </trkpt>
      <trkpt lat="49.303" lon="2.47836">
        <ele>41.3</ele>
        <time>2014-04-27T10:25:01.5</time>
      </trkpt>
      <trkpt lat="49.30304" lon="2.47838">
        <ele>41.4</ele>
        <time>2014-04-27T10:25:08.5</time>
      </trkpt>
      <trkpt lat="49.30299" lon="2.47847">
        <ele>42.2</ele>
        <time>2014-04-27T10:25:11.25</time>
      </trkpt>
      <trkpt lat="49.30294" lon="2.47856">
        <ele>42.7</ele>
        <time>2014-04-27T10:25:15.5</time>
      </trkpt>
      <trkpt lat="49.30294" lon="2.47857">
        <ele>42.9</ele>
        <time>2014-04-27T10:25:22.15</time>
      </trkpt>
      <trkpt lat="49.303" lon="2.4785">
        <ele>42.9</ele>
        <time>2014-04-27T10:25:29.25</time>
      </trkpt>
      <trkpt lat="49.30299" lon="2.47848">
        <ele>42.9</ele>
        <time>2014-04-27T10:25:36.5</time>
      </trkpt>
      <trkpt lat="49.30292" lon="2.47837">
        <ele>44.5</ele>
        <time>2014-04-27T10:25:39.25</time>
      </trkpt>
      <trkpt lat="49.30301" lon="2.47836">
        <ele>45.1</ele>
        <time>2014-04-27T10:25:42.25</time>
      </trkpt>
      <trkpt lat="49.30307" lon="2.47845">
        <ele>46.7</ele>
        <time>2014-04-27T10:25:45.25</time>
      </trkpt>
      <trkpt lat="49.30313" lon="2.47852">
        <ele>46.8</ele>
        <time>2014-04-27T10:25:49.95</time>
      </trkpt>
      <trkpt lat="49.30317" lon="2.47863">
        <ele>47.2</ele>
        <time>2014-04-27T10:25:55.95</time>
      </trkpt>
      <trkpt lat="49.30321" lon="2.47873">
        <ele>47.4</ele>
        <time>2014-04-27T10:26:01.95</time>
      </trkpt>
      <trkpt lat="49.30323" lon="2.47883">
        <ele>47.4</ele>
        <time>2014-04-27T10:26:07.96</time>
      </trkpt>
      <trkpt lat="49.30326" lon="2.47894">
        <ele>47.5</ele>
        <time>2014-04-27T10:26:12.95</time>
      </trkpt>
      <trkpt lat="49.30329" lon="2.47904">
        <ele>47.6</ele>
        <time>2014-04-27T10:26:17.95</time>
      </trkpt>
      <trkpt lat="49.30332" lon="2.47915">
        <ele>47.9</ele>
        <time>2014-04-27T10:26:23.95</time>
      </trkpt>
      <trkpt lat="49.30334" lon="2.47925">
        <ele>48</ele>
        <time>2014-04-27T10:26:30.95</time>
      </trkpt>
      <trkpt lat="49.30339" lon="2.47935">
        <ele>47.9</ele>
        <time>2014-04-27T10:26:37.95</time>
      </trkpt>
      <trkpt lat="49.30345" lon="2.47942">
        <ele>47.8</ele>
        <time>2014-04-27T10:26:43.95</time>
      </trkpt>
      <trkpt lat="49.30348" lon="2.47953">
        <ele>47.8</ele>
        <time>2014-04-27T10:26:50.95</time>
      </trkpt>
      <trkpt lat="49.30352" lon="2.47963">
        <ele>47.8</ele>
        <time>2014-04-27T10:26:57.96</time>
      </trkpt>
      <trkpt lat="49.30353" lon="2.47975">
        <ele>47.7</ele>
        <time>2014-04-27T10:27:03.97</time>
      </trkpt>
      <trkpt lat="49.30359" lon="2.47984">
        <ele>47.7</ele>
        <time>2014-04-27T10:27:09.96</time>
      </trkpt>
      <trkpt lat="49.30364" lon="2.47992">
        <ele>47.6</ele>
        <time>2014-04-27T10:27:16.95</time>
      </trkpt>
      <trkpt lat="49.30367" lon="2.48002">
        <ele>47.6</ele>
        <time>2014-04-27T10:27:23.95</time>
      </trkpt>
      <trkpt lat="49.30369" lon="2.4801">
        <ele>47.6</ele>
        <time>2014-04-27T10:27:30.95</time>
      </trkpt>
      <trkpt lat="49.30375" lon="2.48018">
        <ele>47.8</ele>
        <time>2014-04-27T10:27:36.95</time>
      </trkpt>
      <trkpt lat="49.3038" lon="2.48027">
        <ele>48</ele>
        <time>2014-04-27T10:27:43.95</time>
      </trkpt>
      <trkpt lat="49.30386" lon="2.48035">
        <ele>48.1</ele>
        <time>2014-04-27T10:27:49.95</time>
      </trkpt>
      <trkpt lat="49.30391" lon="2.48043">
        <ele>48.4</ele>
        <time>2014-04-27T10:27:56.95</time>
      </trkpt>
      <trkpt lat="49.30396" lon="2.48047">
        <ele>48.5</ele>
        <time>2014-04-27T10:28:03.97</time>
      </trkpt>
      <trkpt lat="49.30397" lon="2.48058">
        <ele>48.6</ele>
        <time>2014-04-27T10:28:10.95</time>
      </trkpt>
      <trkpt lat="49.30403" lon="2.48064">
        <ele>48.7</ele>
        <time>2014-04-27T10:28:15.96</time>
      </trkpt>
      <trkpt lat="49.30409" lon="2.48071">
        <ele>49</ele>
        <time>2014-04-27T10:28:21.96</time>
      </trkpt>
      <trkpt lat="49.30415" lon="2.48078">
        <ele>49.1</ele>
        <time>2014-04-27T10:28:27.96</time>
      </trkpt>
      <trkpt lat="49.30422" lon="2.48083">
        <ele>49.3</ele>
        <time>2014-04-27T10:28:34.95</time>
      </trkpt>
      <trkpt lat="49.30429" lon="2.48089">
        <ele>49.4</ele>
        <time>2014-04-27T10:28:40.95</time>
      </trkpt>
      <trkpt lat="49.30436" lon="2.48096">
        <ele>49.3</ele>
        <time>2014-04-27T10:28:45.96</time>
      </trkpt>
      <trkpt lat="49.30442" lon="2.48103">
        <ele>49.3</ele>
        <time>2014-04-27T10:28:51.11</time>
      </trkpt>
      <trkpt lat="49.30447" lon="2.48114">
        <ele>49.3</ele>
        <time>2014-04-27T10:28:56.96</time>
      </trkpt>
      <trkpt lat="49.30452" lon="2.48123">
        <ele>49.5</ele>
        <time>2014-04-27T10:29:02.15</time>
      </trkpt>
      <trkpt lat="49.30458" lon="2.48131">
        <ele>49.6</ele>
        <time>2014-04-27T10:29:07.75</time>
      </trkpt>
      <trkpt lat="49.30463" lon="2.48141">
        <ele>49.9</ele>
        <time>2014-04-27T10:29:12.97</time>
      </trkpt>
      <trkpt lat="49.30469" lon="2.48148">
        <ele>49.9</ele>
        <time>2014-04-27T10:29:16.98</time>
      </trkpt>
      <trkpt lat="49.30474" lon="2.48151">
        <ele>49.9</ele>
        <time>2014-04-27T10:29:24.5</time>
      </trkpt>
      <trkpt lat="49.3048" lon="2.4816">
        <ele>50.5</ele>
        <time>2014-04-27T10:29:30.97</time>
      </trkpt>
      <trkpt lat="49.30484" lon="2.48167">
        <ele>50.9</ele>
        <time>2014-04-27T10:29:37.96</time>
      </trkpt>
      <trkpt lat="49.30488" lon="2.48176">
        <ele>51</ele>
        <time>2014-04-27T10:29:44.97</time>
      </trkpt>
      <trkpt lat="49.30493" lon="2.48187">
        <ele>51.2</ele>
        <time>2014-04-27T10:29:50.96</time>
      </trkpt>
      <trkpt lat="49.30497" lon="2.48196">
        <ele>51.3</ele>
        <time>2014-04-27T10:29:56.97</time>
      </trkpt>
      <trkpt lat="49.305" lon="2.48203">
        <ele>51.6</ele>
        <time>2014-04-27T10:30:03.99</time>
      </trkpt>
      <trkpt lat="49.30503" lon="2.48211">
        <ele>51.7</ele>
        <time>2014-04-27T10:30:10.97</time>
      </trkpt>
      <trkpt lat="49.30505" lon="2.48221">
        <ele>51.7</ele>
        <time>2014-04-27T10:30:17.98</time>
      </trkpt>
      <trkpt lat="49.30511" lon="2.48222">
        <ele>52</ele>
        <time>2014-04-27T10:30:24.99</time>
      </trkpt>
      <trkpt lat="49.30518" lon="2.4822">
        <ele>52.3</ele>
        <time>2014-04-27T10:30:31.97</time>
      </trkpt>
      <trkpt lat="49.30526" lon="2.48221">
        <ele>52.7</ele>
        <time>2014-04-27T10:30:38.97</time>
      </trkpt>
      <trkpt lat="49.30533" lon="2.48225">
        <ele>53.2</ele>
        <time>2014-04-27T10:30:44.98</time>
      </trkpt>
      <trkpt lat="49.30539" lon="2.48223">
        <ele>53.6</ele>
        <time>2014-04-27T10:30:51.97</time>
      </trkpt>
      <trkpt lat="49.30545" lon="2.4822">
        <ele>54</ele>
        <time>2014-04-27T10:30:58.95</time>
      </trkpt>
      <trkpt lat="49.30552" lon="2.48221">
        <ele>54.2</ele>
        <time>2014-04-27T10:31:05.95</time>
      </trkpt>
      <trkpt lat="49.30557" lon="2.48223">
        <ele>54.6</ele>
        <time>2014-04-27T10:31:12.95</time>
      </trkpt>
      <trkpt lat="49.30564" lon="2.48219">
        <ele>56.1</ele>
        <time>2014-04-27T10:31:19.95</time>
      </trkpt>
      <trkpt lat="49.30572" lon="2.48218">
        <ele>56.8</ele>
        <time>2014-04-27T10:31:26.98</time>
      </trkpt>
      <trkpt lat="49.3058" lon="2.48217">
        <ele>57.4</ele>
        <time>2014-04-27T10:31:32.95</time>
      </trkpt>
      <trkpt lat="49.30588" lon="2.48217">
        <ele>58.7</ele>
        <time>2014-04-27T10:31:39.96</time>
      </trkpt>
      <trkpt lat="49.30596" lon="2.48217">
        <ele>58.7</ele>
        <time>2014-04-27T10:31:45.95</time>
      </trkpt>
      <trkpt lat="49.30603" lon="2.48217">
        <ele>59.1</ele>
        <time>2014-04-27T10:31:52.95</time>
      </trkpt>
      <trkpt lat="49.30611" lon="2.48216">
        <ele>59</ele>
        <time>2014-04-27T10:31:58.95</time>
      </trkpt>
      <trkpt lat="49.30618" lon="2.4821">
        <ele>59.8</ele>
        <time>2014-04-27T10:32:05.96</time>
      </trkpt>
      <trkpt lat="49.30622" lon="2.48205">
        <ele>61</ele>
        <time>2014-04-27T10:32:12.95</time>
      </trkpt>
      <trkpt lat="49.30626" lon="2.48202">
        <ele>62.3</ele>
        <time>2014-04-27T10:32:19.95</time>
      </trkpt>
      <trkpt lat="49.3063" lon="2.48196">
        <ele>63.3</ele>
        <time>2014-04-27T10:32:26.95</time>
      </trkpt>
      <trkpt lat="49.30633" lon="2.48191">
        <ele>64.1</ele>
        <time>2014-04-27T10:32:33.95</time>
      </trkpt>
      <trkpt lat="49.3064" lon="2.48188">
        <ele>64.7</ele>
        <time>2014-04-27T10:32:39.96</time>
      </trkpt>
      <trkpt lat="49.30647" lon="2.48182">
        <ele>65.5</ele>
        <time>2014-04-27T10:32:44.95</time>
      </trkpt>
      <trkpt lat="49.3065" lon="2.48175">
        <ele>66.7</ele>
        <time>2014-04-27T10:32:51.95</time>
      </trkpt>
      <trkpt lat="49.30651" lon="2.48169">
        <ele>68.3</ele>
        <time>2014-04-27T10:32:58.95</time>
      </trkpt>
      <trkpt lat="49.30655" lon="2.48163">
        <ele>69.5</ele>
        <time>2014-04-27T10:33:05.95</time>
      </trkpt>
      <trkpt lat="49.30661" lon="2.4816">
        <ele>70</ele>
        <time>2014-04-27T10:33:12.95</time>
      </trkpt>
      <trkpt lat="49.30668" lon="2.48154">
        <ele>70.5</ele>
        <time>2014-04-27T10:33:19.95</time>
      </trkpt>
      <trkpt lat="49.30675" lon="2.48149">
        <ele>70.6</ele>
        <time>2014-04-27T10:33:26.95</time>
      </trkpt>
      <trkpt lat="49.30678" lon="2.48142">
        <ele>71.3</ele>
        <time>2014-04-27T10:33:33.95</time>
      </trkpt>
      <trkpt lat="49.30684" lon="2.48135">
        <ele>71.4</ele>
        <time>2014-04-27T10:33:40.95</time>
      </trkpt>
      <trkpt lat="49.30689" lon="2.48128">
        <ele>71.6</ele>
        <time>2014-04-27T10:33:47.95</time>
      </trkpt>
      <trkpt lat="49.30695" lon="2.48123">
        <ele>72</ele>
        <time>2014-04-27T10:33:54.95</time>
      </trkpt>
      <trkpt lat="49.30698" lon="2.4812">
        <ele>72.8</ele>
        <time>2014-04-27T10:34:01.95</time>
      </trkpt>
      <trkpt lat="49.30701" lon="2.48117">
        <ele>73.4</ele>
        <time>2014-04-27T10:34:08.95</time>
      </trkpt>
      <trkpt lat="49.30704" lon="2.48111">
        <ele>74.4</ele>
        <time>2014-04-27T10:34:15.96</time>
      </trkpt>
      <trkpt lat="49.30707" lon="2.48103">
        <ele>75.5</ele>
        <time>2014-04-27T10:34:22.95</time>
      </trkpt>
      <trkpt lat="49.30712" lon="2.48099">
        <ele>76.7</ele>
        <time>2014-04-27T10:34:29.95</time>
      </trkpt>
      <trkpt lat="49.30716" lon="2.48096">
        <ele>77.4</ele>
        <time>2014-04-27T10:34:36.95</time>
      </trkpt>
      <trkpt lat="49.30722" lon="2.48093">
        <ele>78</ele>
        <time>2014-04-27T10:34:43.95</time>
      </trkpt>
      <trkpt lat="49.30726" lon="2.48089">
        <ele>78.5</ele>
        <time>2014-04-27T10:34:50.95</time>
      </trkpt>
      <trkpt lat="49.3073" lon="2.48084">
        <ele>79.2</ele>
        <time>2014-04-27T10:34:57.95</time>
      </trkpt>
      <trkpt lat="49.30735" lon="2.4808">
        <ele>79.5</ele>
        <time>2014-04-27T10:35:04.95</time>
      </trkpt>
      <trkpt lat="49.30738" lon="2.48076">
        <ele>79.7</ele>
        <time>2014-04-27T10:35:11.95</time>
      </trkpt>
      <trkpt lat="49.30733" lon="2.48073">
        <ele>81.3</ele>
        <time>2014-04-27T10:35:18.98</time>
      </trkpt>
      <trkpt lat="49.3074" lon="2.48069">
        <ele>81.8</ele>
        <time>2014-04-27T10:35:24.95</time>
      </trkpt>
      <trkpt lat="49.30747" lon="2.48063">
        <ele>82.5</ele>
        <time>2014-04-27T10:35:31.95</time>
      </trkpt>
      <trkpt lat="49.30749" lon="2.48061">
        <ele>82.7</ele>
        <time>2014-04-27T10:35:38.95</time>
      </trkpt>
      <trkpt lat="49.30746" lon="2.48062">
        <ele>82.7</ele>
        <time>2014-04-27T10:35:45.95</time>
      </trkpt>
      <trkpt lat="49.30749" lon="2.48054">
        <ele>83.4</ele>
        <time>2014-04-27T10:35:48.96</time>
      </trkpt>
      <trkpt lat="49.30756" lon="2.4805">
        <ele>83.8</ele>
        <time>2014-04-27T10:35:54.95</time>
      </trkpt>
      <trkpt lat="49.30761" lon="2.48045">
        <ele>84</ele>
        <time>2014-04-27T10:36:01.95</time>
      </trkpt>
      <trkpt lat="49.30765" lon="2.48042">
        <ele>84</ele>
        <time>2014-04-27T10:36:08.95</time>
      </trkpt>
      <trkpt lat="49.30764" lon="2.48039">
        <ele>84.1</ele>
        <time>2014-04-27T10:36:15.95</time>
      </trkpt>
      <trkpt lat="49.3077" lon="2.48033">
        <ele>83.9</ele>
        <time>2014-04-27T10:36:19.98</time>
      </trkpt>
      <trkpt lat="49.30774" lon="2.48028">
        <ele>83.8</ele>
        <time>2014-04-27T10:36:26.95</time>
      </trkpt>
      <trkpt lat="49.30779" lon="2.48025">
        <ele>84</ele>
        <time>2014-04-27T10:36:33.95</time>
      </trkpt>
      <trkpt lat="49.30786" lon="2.4802">
        <ele>84.2</ele>
        <time>2014-04-27T10:36:40.94</time>
      </trkpt>
      <trkpt lat="49.30794" lon="2.48018">
        <ele>84.4</ele>
        <time>2014-04-27T10:36:47.95</time>
      </trkpt>
      <trkpt lat="49.30798" lon="2.48013">
        <ele>84.8</ele>
        <time>2014-04-27T10:36:54.94</time>
      </trkpt>
      <trkpt lat="49.30802" lon="2.48011">
        <ele>85</ele>
        <time>2014-04-27T10:37:01.94</time>
      </trkpt>
      <trkpt lat="49.30809" lon="2.48006">
        <ele>85.2</ele>
        <time>2014-04-27T10:37:08.94</time>
      </trkpt>
      <trkpt lat="49.30816" lon="2.48001">
        <ele>85.3</ele>
        <time>2014-04-27T10:37:15.95</time>
      </trkpt>
      <trkpt lat="49.30823" lon="2.47994">
        <ele>85.2</ele>
        <time>2014-04-27T10:37:20.95</time>
      </trkpt>
      <trkpt lat="49.30828" lon="2.4799">
        <ele>85.4</ele>
        <time>2014-04-27T10:37:27.95</time>
      </trkpt>
      <trkpt lat="49.30831" lon="2.47982">
        <ele>85.4</ele>
        <time>2014-04-27T10:37:34.94</time>
      </trkpt>
      <trkpt lat="49.30837" lon="2.47973">
        <ele>85.5</ele>
        <time>2014-04-27T10:37:40.94</time>
      </trkpt>
      <trkpt lat="49.3084" lon="2.47967">
        <ele>85.6</ele>
        <time>2014-04-27T10:37:47.95</time>
      </trkpt>
      <trkpt lat="49.30846" lon="2.47964">
        <ele>85.8</ele>
        <time>2014-04-27T10:37:54.94</time>
      </trkpt>
      <trkpt lat="49.30854" lon="2.47957">
        <ele>85.9</ele>
        <time>2014-04-27T10:38:01.94</time>
      </trkpt>
      <trkpt lat="49.3086" lon="2.4795">
        <ele>85.9</ele>
        <time>2014-04-27T10:38:08.94</time>
      </trkpt>
      <trkpt lat="49.30864" lon="2.47945">
        <ele>85.9</ele>
        <time>2014-04-27T10:38:15.95</time>
      </trkpt>
      <trkpt lat="49.3087" lon="2.47938">
        <ele>86</ele>
        <time>2014-04-27T10:38:22.94</time>
      </trkpt>
      <trkpt lat="49.30876" lon="2.47931">
        <ele>86.3</ele>
        <time>2014-04-27T10:38:28.94</time>
      </trkpt>
      <trkpt lat="49.30885" lon="2.47928">
        <ele>86.4</ele>
        <time>2014-04-27T10:38:34.94</time>
      </trkpt>
      <trkpt lat="49.30891" lon="2.47922">
        <ele>86.5</ele>
        <time>2014-04-27T10:38:40.94</time>
      </trkpt>
      <trkpt lat="49.30897" lon="2.47914">
        <ele>86.7</ele>
        <time>2014-04-27T10:38:46.94</time>
      </trkpt>
      <trkpt lat="49.30901" lon="2.4791">
        <ele>87</ele>
        <time>2014-04-27T10:38:53.96</time>
      </trkpt>
      <trkpt lat="49.30908" lon="2.47906">
        <ele>87.1</ele>
        <time>2014-04-27T10:39:00.94</time>
      </trkpt>
      <trkpt lat="49.30914" lon="2.47907">
        <ele>87.2</ele>
        <time>2014-04-27T10:39:07.95</time>
      </trkpt>
      <trkpt lat="49.30921" lon="2.47907">
        <ele>87.6</ele>
        <time>2014-04-27T10:39:13.94</time>
      </trkpt>
      <trkpt lat="49.30929" lon="2.47906">
        <ele>87.8</ele>
        <time>2014-04-27T10:39:18.94</time>
      </trkpt>
      <trkpt lat="49.30938" lon="2.47909">
        <ele>87.7</ele>
        <time>2014-04-27T10:39:22.94</time>
      </trkpt>
      <trkpt lat="49.30943" lon="2.47915">
        <ele>88.2</ele>
        <time>2014-04-27T10:39:29.95</time>
      </trkpt>
      <trkpt lat="49.30946" lon="2.47922">
        <ele>88.6</ele>
        <time>2014-04-27T10:39:36.94</time>
      </trkpt>
      <trkpt lat="49.30951" lon="2.47931">
        <ele>88.7</ele>
        <time>2014-04-27T10:39:43.94</time>
      </trkpt>
      <trkpt lat="49.30953" lon="2.47941">
        <ele>88.8</ele>
        <time>2014-04-27T10:39:50.94</time>
      </trkpt>
      <trkpt lat="49.30955" lon="2.47947">
        <ele>88.9</ele>
        <time>2014-04-27T10:39:57.95</time>
      </trkpt>
      <trkpt lat="49.30962" lon="2.47955">
        <ele>89.1</ele>
        <time>2014-04-27T10:40:03.95</time>
      </trkpt>
      <trkpt lat="49.30969" lon="2.4796">
        <ele>89.2</ele>
        <time>2014-04-27T10:40:09.95</time>
      </trkpt>
      <trkpt lat="49.30975" lon="2.47966">
        <ele>89.3</ele>
        <time>2014-04-27T10:40:15.95</time>
      </trkpt>
      <trkpt lat="49.30981" lon="2.47974">
        <ele>89.6</ele>
        <time>2014-04-27T10:40:22.94</time>
      </trkpt>
      <trkpt lat="49.30988" lon="2.47979">
        <ele>89.9</ele>
        <time>2014-04-27T10:40:29.95</time>
      </trkpt>
      <trkpt lat="49.30993" lon="2.47983">
        <ele>90</ele>
        <time>2014-04-27T10:40:36.94</time>
      </trkpt>
      <trkpt lat="49.31" lon="2.4799">
        <ele>90.3</ele>
        <time>2014-04-27T10:40:43.94</time>
      </trkpt>
      <trkpt lat="49.31006" lon="2.48">
        <ele>90.4</ele>
        <time>2014-04-27T10:40:49.94</time>
      </trkpt>
      <trkpt lat="49.3101" lon="2.48009">
        <ele>90.3</ele>
        <time>2014-04-27T10:40:56.94</time>
      </trkpt>
      <trkpt lat="49.31021" lon="2.48015">
        <ele>90.3</ele>
        <time>2014-04-27T10:41:02.94</time>
      </trkpt>
      <trkpt lat="49.31027" lon="2.4802">
        <ele>90</ele>
        <time>2014-04-27T10:41:07.94</time>
      </trkpt>
      <trkpt lat="49.3103" lon="2.48031">
        <ele>89.9</ele>
        <time>2014-04-27T10:41:14.94</time>
      </trkpt>
      <trkpt lat="49.31035" lon="2.48041">
        <ele>90.3</ele>
        <time>2014-04-27T10:41:21.96</time>
      </trkpt>
      <trkpt lat="49.3104" lon="2.48047">
        <ele>90.8</ele>
        <time>2014-04-27T10:41:28.94</time>
      </trkpt>
      <trkpt lat="49.31044" lon="2.48055">
        <ele>91.1</ele>
        <time>2014-04-27T10:41:35.95</time>
      </trkpt>
      <trkpt lat="49.31044" lon="2.48061">
        <ele>91.4</ele>
        <time>2014-04-27T10:41:42.94</time>
      </trkpt>
      <trkpt lat="49.31046" lon="2.48069">
        <ele>91.5</ele>
        <time>2014-04-27T10:41:49.94</time>
      </trkpt>
      <trkpt lat="49.31049" lon="2.48076">
        <ele>91.4</ele>
        <time>2014-04-27T10:41:56.94</time>
      </trkpt>
      <trkpt lat="49.31051" lon="2.48084">
        <ele>91.5</ele>
        <time>2014-04-27T10:42:03.95</time>
      </trkpt>
      <trkpt lat="49.31053" lon="2.48091">
        <ele>91.6</ele>
        <time>2014-04-27T10:42:10.94</time>
      </trkpt>
      <trkpt lat="49.3105" lon="2.48093">
        <ele>91.8</ele>
        <time>2014-04-27T10:42:17.95</time>
      </trkpt>
      <trkpt lat="49.31054" lon="2.48095">
        <ele>93.1</ele>
        <time>2014-04-27T10:42:22.96</time>
      </trkpt>
      <trkpt lat="49.31058" lon="2.48091">
        <ele>93.2</ele>
        <time>2014-04-27T10:42:29.99</time>
      </trkpt>
      <trkpt lat="49.31062" lon="2.4809">
        <ele>93.2</ele>
        <time>2014-04-27T10:42:36.94</time>
      </trkpt>
      <trkpt lat="49.31069" lon="2.48091">
        <ele>93.1</ele>
        <time>2014-04-27T10:42:43.94</time>
      </trkpt>
      <trkpt lat="49.31077" lon="2.48092">
        <ele>93.1</ele>
        <time>2014-04-27T10:42:50.95</time>
      </trkpt>
      <trkpt lat="49.31083" lon="2.48095">
        <ele>93.2</ele>
        <time>2014-04-27T10:42:57.94</time>
      </trkpt>
      <trkpt lat="49.31091" lon="2.48099">
        <ele>93.4</ele>
        <time>2014-04-27T10:43:04.99</time>
      </trkpt>
      <trkpt lat="49.31097" lon="2.481">
        <ele>93.4</ele>
        <time>2014-04-27T10:43:11.94</time>
      </trkpt>
      <trkpt lat="49.31103" lon="2.48102">
        <ele>93.6</ele>
        <time>2014-04-27T10:43:18.94</time>
      </trkpt>
      <trkpt lat="49.31107" lon="2.48102">
        <ele>93.9</ele>
        <time>2014-04-27T10:43:25.94</time>
      </trkpt>
      <trkpt lat="49.31115" lon="2.48103">
        <ele>93.7</ele>
        <time>2014-04-27T10:43:30.94</time>
      </trkpt>
      <trkpt lat="49.31122" lon="2.48106">
        <ele>93.8</ele>
        <time>2014-04-27T10:43:35.94</time>
      </trkpt>
      <trkpt lat="49.3113" lon="2.48107">
        <ele>94.2</ele>
        <time>2014-04-27T10:43:41.94</time>
      </trkpt>
      <trkpt lat="49.31136" lon="2.48109">
        <ele>94.5</ele>
        <time>2014-04-27T10:43:48.94</time>
      </trkpt>
      <trkpt lat="49.31143" lon="2.48112">
        <ele>94.5</ele>
        <time>2014-04-27T10:43:54.94</time>
      </trkpt>
      <trkpt lat="49.31148" lon="2.48115">
        <ele>94.6</ele>
        <time>2014-04-27T10:44:01.94</time>
      </trkpt>
      <trkpt lat="49.31156" lon="2.48116">
        <ele>94.7</ele>
        <time>2014-04-27T10:44:06.94</time>
      </trkpt>
      <trkpt lat="49.31163" lon="2.48116">
        <ele>95</ele>
        <time>2014-04-27T10:44:11.95</time>
      </trkpt>
      <trkpt lat="49.31171" lon="2.48119">
        <ele>95.3</ele>
        <time>2014-04-27T10:44:18.15</time>
      </trkpt>
      <trkpt lat="49.31178" lon="2.48119">
        <ele>95.4</ele>
        <time>2014-04-27T10:44:24.97</time>
      </trkpt>
      <trkpt lat="49.31186" lon="2.48118">
        <ele>96.1</ele>
        <time>2014-04-27T10:44:31.99</time>
      </trkpt>
      <trkpt lat="49.31194" lon="2.48119">
        <ele>96.8</ele>
        <time>2014-04-27T10:44:38.15</time>
      </trkpt>
      <trkpt lat="49.31201" lon="2.48121">
        <ele>97.6</ele>
        <time>2014-04-27T10:44:44.98</time>
      </trkpt>
      <trkpt lat="49.31206" lon="2.48122">
        <ele>98.2</ele>
        <time>2014-04-27T10:44:51.97</time>
      </trkpt>
      <trkpt lat="49.31212" lon="2.48127">
        <ele>98.5</ele>
        <time>2014-04-27T10:44:59.16</time>
      </trkpt>
      <trkpt lat="49.31218" lon="2.48128">
        <ele>98.9</ele>
        <time>2014-04-27T10:45:05.95</time>
      </trkpt>
      <trkpt lat="49.31226" lon="2.48133">
        <ele>99.4</ele>
        <time>2014-04-27T10:45:12.26</time>
      </trkpt>
      <trkpt lat="49.31231" lon="2.48139">
        <ele>99.5</ele>
        <time>2014-04-27T10:45:18.94</time>
      </trkpt>
      <trkpt lat="49.31239" lon="2.48142">
        <ele>99.6</ele>
        <time>2014-04-27T10:45:24.94</time>
      </trkpt>
      <trkpt lat="49.31247" lon="2.48146">
        <ele>99.8</ele>
        <time>2014-04-27T10:45:28.95</time>
      </trkpt>
      <trkpt lat="49.31254" lon="2.48149">
        <ele>100.1</ele>
        <time>2014-04-27T10:45:33.94</time>
      </trkpt>
      <trkpt lat="49.31262" lon="2.48151">
        <ele>100.3</ele>
        <time>2014-04-27T10:45:39.94</time>
      </trkpt>
      <trkpt lat="49.3127" lon="2.48153">
        <ele>100.5</ele>
        <time>2014-04-27T10:45:45.95</time>
      </trkpt>
      <trkpt lat="49.31276" lon="2.48153">
        <ele>100.7</ele>
        <time>2014-04-27T10:45:52.96</time>
      </trkpt>
      <trkpt lat="49.31284" lon="2.48153">
        <ele>100.9</ele>
        <time>2014-04-27T10:45:58.94</time>
      </trkpt>
      <trkpt lat="49.31292" lon="2.48154">
        <ele>100.9</ele>
        <time>2014-04-27T10:46:04.95</time>
      </trkpt>
      <trkpt lat="49.313" lon="2.48157">
        <ele>101</ele>
        <time>2014-04-27T10:46:10.95</time>
      </trkpt>
      <trkpt lat="49.31307" lon="2.48158">
        <ele>101.6</ele>
        <time>2014-04-27T10:46:17.94</time>
      </trkpt>
      <trkpt lat="49.31315" lon="2.48161">
        <ele>102</ele>
        <time>2014-04-27T10:46:24.94</time>
      </trkpt>
      <trkpt lat="49.31323" lon="2.48163">
        <ele>103</ele>
        <time>2014-04-27T10:46:31.95</time>
      </trkpt>
      <trkpt lat="49.3133" lon="2.48167">
        <ele>103.9</ele>
        <time>2014-04-27T10:46:38.95</time>
      </trkpt>
      <trkpt lat="49.31338" lon="2.48168">
        <ele>104.3</ele>
        <time>2014-04-27T10:46:44.95</time>
      </trkpt>
      <trkpt lat="49.31346" lon="2.4817">
        <ele>104.7</ele>
        <time>2014-04-27T10:46:48.94</time>
      </trkpt>
      <trkpt lat="49.31353" lon="2.48174">
        <ele>105.2</ele>
        <time>2014-04-27T10:46:55.94</time>
      </trkpt>
      <trkpt lat="49.31357" lon="2.48176">
        <ele>105.9</ele>
        <time>2014-04-27T10:47:02.95</time>
      </trkpt>
      <trkpt lat="49.31364" lon="2.4818">
        <ele>106</ele>
        <time>2014-04-27T10:47:08.95</time>
      </trkpt>
      <trkpt lat="49.31367" lon="2.48183">
        <ele>106.5</ele>
        <time>2014-04-27T10:47:15.94</time>
      </trkpt>
      <trkpt lat="49.31373" lon="2.48185">
        <ele>107.4</ele>
        <time>2014-04-27T10:47:22.95</time>
      </trkpt>
      <trkpt lat="49.31378" lon="2.48189">
        <ele>107.9</ele>
        <time>2014-04-27T10:47:29.94</time>
      </trkpt>
      <trkpt lat="49.31385" lon="2.48192">
        <ele>108.6</ele>
        <time>2014-04-27T10:47:35.94</time>
      </trkpt>
      <trkpt lat="49.31394" lon="2.48195">
        <ele>109.1</ele>
        <time>2014-04-27T10:47:40.95</time>
      </trkpt>
      <trkpt lat="49.314" lon="2.48198">
        <ele>109.6</ele>
        <time>2014-04-27T10:47:45.94</time>
      </trkpt>
      <trkpt lat="49.31408" lon="2.48204">
        <ele>110.2</ele>
        <time>2014-04-27T10:47:51.94</time>
      </trkpt>
      <trkpt lat="49.31414" lon="2.48209">
        <ele>110.4</ele>
        <time>2014-04-27T10:47:57.94</time>
      </trkpt>
      <trkpt lat="49.31421" lon="2.48215">
        <ele>110.4</ele>
        <time>2014-04-27T10:48:02.95</time>
      </trkpt>
      <trkpt lat="49.31429" lon="2.48225">
        <ele>109</ele>
        <time>2014-04-27T10:48:07.94</time>
      </trkpt>
      <trkpt lat="49.31435" lon="2.48233">
        <ele>108.4</ele>
        <time>2014-04-27T10:48:13.94</time>
      </trkpt>
      <trkpt lat="49.31441" lon="2.48241">
        <ele>108.1</ele>
        <time>2014-04-27T10:48:20.95</time>
      </trkpt>
      <trkpt lat="49.31444" lon="2.48246">
        <ele>107.9</ele>
        <time>2014-04-27T10:48:27.94</time>
      </trkpt>
      <trkpt lat="49.31444" lon="2.48257">
        <ele>106</ele>
        <time>2014-04-27T10:48:34.94</time>
      </trkpt>
      <trkpt lat="49.31446" lon="2.48266">
        <ele>105.1</ele>
        <time>2014-04-27T10:48:41.94</time>
      </trkpt>
      <trkpt lat="49.3145" lon="2.48275">
        <ele>104.2</ele>
        <time>2014-04-27T10:48:48.94</time>
      </trkpt>
      <trkpt lat="49.31452" lon="2.48285">
        <ele>103.5</ele>
        <time>2014-04-27T10:48:55.94</time>
      </trkpt>
      <trkpt lat="49.31454" lon="2.48291">
        <ele>103</ele>
        <time>2014-04-27T10:49:02.95</time>
      </trkpt>
      <trkpt lat="49.31458" lon="2.48296">
        <ele>102.7</ele>
        <time>2014-04-27T10:49:09.94</time>
      </trkpt>
      <trkpt lat="49.31462" lon="2.48302">
        <ele>102.5</ele>
        <time>2014-04-27T10:49:16.94</time>
      </trkpt>
      <trkpt lat="49.31467" lon="2.48305">
        <ele>102.1</ele>
        <time>2014-04-27T10:49:23.95</time>
      </trkpt>
      <trkpt lat="49.31474" lon="2.48304">
        <ele>101.7</ele>
        <time>2014-04-27T10:49:30.94</time>
      </trkpt>
      <trkpt lat="49.31482" lon="2.48301">
        <ele>101.4</ele>
        <time>2014-04-27T10:49:34.94</time>
      </trkpt>
      <trkpt lat="49.31489" lon="2.48297">
        <ele>101</ele>
        <time>2014-04-27T10:49:39.94</time>
      </trkpt>
      <trkpt lat="49.31496" lon="2.48294">
        <ele>100.8</ele>
        <time>2014-04-27T10:49:46.94</time>
      </trkpt>
      <trkpt lat="49.31503" lon="2.48289">
        <ele>101.1</ele>
        <time>2014-04-27T10:49:53.94</time>
      </trkpt>
      <trkpt lat="49.31507" lon="2.48283">
        <ele>101.1</ele>
        <time>2014-04-27T10:50:00.94</time>
      </trkpt>
      <trkpt lat="49.31514" lon="2.48278">
        <ele>101.2</ele>
        <time>2014-04-27T10:50:07.94</time>
      </trkpt>
      <trkpt lat="49.31519" lon="2.48271">
        <ele>101.2</ele>
        <time>2014-04-27T10:50:14.95</time>
      </trkpt>
      <trkpt lat="49.31527" lon="2.48268">
        <ele>100.7</ele>
        <time>2014-04-27T10:50:19.94</time>
      </trkpt>
      <trkpt lat="49.31528" lon="2.48265">
        <ele>101.1</ele>
        <time>2014-04-27T10:50:26.95</time>
      </trkpt>
      <trkpt lat="49.31538" lon="2.4826">
        <ele>101</ele>
        <time>2014-04-27T10:50:28.97</time>
      </trkpt>
      <trkpt lat="49.31542" lon="2.4825">
        <ele>100.5</ele>
        <time>2014-04-27T10:50:34.96</time>
      </trkpt>
      <trkpt lat="49.31549" lon="2.48242">
        <ele>100.5</ele>
        <time>2014-04-27T10:50:40.94</time>
      </trkpt>
      <trkpt lat="49.31554" lon="2.48236">
        <ele>100.2</ele>
        <time>2014-04-27T10:50:47.94</time>
      </trkpt>
      <trkpt lat="49.31559" lon="2.48231">
        <ele>100.2</ele>
        <time>2014-04-27T10:50:54.94</time>
      </trkpt>
      <trkpt lat="49.31564" lon="2.48225">
        <ele>100.2</ele>
        <time>2014-04-27T10:51:01.95</time>
      </trkpt>
      <trkpt lat="49.31573" lon="2.48223">
        <ele>100.1</ele>
        <time>2014-04-27T10:51:07.96</time>
      </trkpt>
      <trkpt lat="49.3158" lon="2.48223">
        <ele>100.2</ele>
        <time>2014-04-27T10:51:14.94</time>
      </trkpt>
      <trkpt lat="49.31587" lon="2.48222">
        <ele>100.2</ele>
        <time>2014-04-27T10:51:21.95</time>
      </trkpt>
      <trkpt lat="49.31595" lon="2.48221">
        <ele>100.1</ele>
        <time>2014-04-27T10:51:27.94</time>
      </trkpt>
      <trkpt lat="49.31601" lon="2.48219">
        <ele>100.1</ele>
        <time>2014-04-27T10:51:34.94</time>
      </trkpt>
      <trkpt lat="49.31608" lon="2.48217">
        <ele>100.6</ele>
        <time>2014-04-27T10:51:39.95</time>
      </trkpt>
      <trkpt lat="49.31614" lon="2.48218">
        <ele>100.6</ele>
        <time>2014-04-27T10:51:46.94</time>
      </trkpt>
      <trkpt lat="49.3162" lon="2.48219">
        <ele>100.3</ele>
        <time>2014-04-27T10:51:53.94</time>
      </trkpt>
      <trkpt lat="49.31625" lon="2.4822">
        <ele>100.9</ele>
        <time>2014-04-27T10:52:00.94</time>
      </trkpt>
      <trkpt lat="49.31633" lon="2.48218">
        <ele>102.3</ele>
        <time>2014-04-27T10:52:06.99</time>
      </trkpt>
      <trkpt lat="49.31641" lon="2.48216">
        <ele>103.2</ele>
        <time>2014-04-27T10:52:13.95</time>
      </trkpt>
      <trkpt lat="49.31651" lon="2.48212">
        <ele>103.5</ele>
        <time>2014-04-27T10:52:20.94</time>
      </trkpt>
      <trkpt lat="49.31658" lon="2.48208">
        <ele>103.3</ele>
        <time>2014-04-27T10:52:26.94</time>
      </trkpt>
      <trkpt lat="49.31665" lon="2.48205">
        <ele>103.4</ele>
        <time>2014-04-27T10:52:31.95</time>
      </trkpt>
      <trkpt lat="49.31669" lon="2.48203">
        <ele>103.2</ele>
        <time>2014-04-27T10:52:38.94</time>
      </trkpt>
      <trkpt lat="49.31673" lon="2.48201">
        <ele>103.7</ele>
        <time>2014-04-27T10:52:45.94</time>
      </trkpt>
      <trkpt lat="49.31678" lon="2.48199">
        <ele>104.3</ele>
        <time>2014-04-27T10:52:52.94</time>
      </trkpt>
      <trkpt lat="49.31685" lon="2.48196">
        <ele>104.8</ele>
        <time>2014-04-27T10:52:59.94</time>
      </trkpt>
      <trkpt lat="49.31691" lon="2.48193">
        <ele>105</ele>
        <time>2014-04-27T10:53:06.94</time>
      </trkpt>
      <trkpt lat="49.31696" lon="2.48188">
        <ele>105.1</ele>
        <time>2014-04-27T10:53:13.96</time>
      </trkpt>
      <trkpt lat="49.31702" lon="2.48184">
        <ele>105.6</ele>
        <time>2014-04-27T10:53:18.94</time>
      </trkpt>
      <trkpt lat="49.3171" lon="2.48178">
        <ele>105.8</ele>
        <time>2014-04-27T10:53:24.94</time>
      </trkpt>
      <trkpt lat="49.31717" lon="2.48173">
        <ele>105.8</ele>
        <time>2014-04-27T10:53:29.94</time>
      </trkpt>
      <trkpt lat="49.31724" lon="2.48168">
        <ele>106</ele>
        <time>2014-04-27T10:53:36.94</time>
      </trkpt>
      <trkpt lat="49.31731" lon="2.48162">
        <ele>106.3</ele>
        <time>2014-04-27T10:53:43.95</time>
      </trkpt>
      <trkpt lat="49.31739" lon="2.48156">
        <ele>106.7</ele>
        <time>2014-04-27T10:53:49.95</time>
      </trkpt>
      <trkpt lat="49.3174" lon="2.48144">
        <ele>106.8</ele>
        <time>2014-04-27T10:53:56.94</time>
      </trkpt>
      <trkpt lat="49.31742" lon="2.48132">
        <ele>107.2</ele>
        <time>2014-04-27T10:54:02.94</time>
      </trkpt>
      <trkpt lat="49.31743" lon="2.4812">
        <ele>107.3</ele>
        <time>2014-04-27T10:54:08.94</time>
      </trkpt>
      <trkpt lat="49.31745" lon="2.48107">
        <ele>106.9</ele>
        <time>2014-04-27T10:54:14.94</time>
      </trkpt>
      <trkpt lat="49.31746" lon="2.48096">
        <ele>106.8</ele>
        <time>2014-04-27T10:54:21.95</time>
      </trkpt>
      <trkpt lat="49.31746" lon="2.48084">
        <ele>106.7</ele>
        <time>2014-04-27T10:54:27.94</time>
      </trkpt>
      <trkpt lat="49.31747" lon="2.48071">
        <ele>107.1</ele>
        <time>2014-04-27T10:54:34.94</time>
      </trkpt>
      <trkpt lat="49.31749" lon="2.4806">
        <ele>107</ele>
        <time>2014-04-27T10:54:40.94</time>
      </trkpt>
      <trkpt lat="49.31745" lon="2.48049">
        <ele>106.9</ele>
        <time>2014-04-27T10:54:44.94</time>
      </trkpt>
      <trkpt lat="49.31745" lon="2.48036">
        <ele>107</ele>
        <time>2014-04-27T10:54:50.94</time>
      </trkpt>
      <trkpt lat="49.31746" lon="2.48025">
        <ele>107.2</ele>
        <time>2014-04-27T10:54:56.94</time>
      </trkpt>
      <trkpt lat="49.31748" lon="2.48013">
        <ele>107.5</ele>
        <time>2014-04-27T10:55:03.94</time>
      </trkpt>
      <trkpt lat="49.31749" lon="2.48006">
        <ele>108</ele>
        <time>2014-04-27T10:55:10.94</time>
      </trkpt>
      <trkpt lat="49.31752" lon="2.47996">
        <ele>108.3</ele>
        <time>2014-04-27T10:55:15.94</time>
      </trkpt>
      <trkpt lat="49.31756" lon="2.47985">
        <ele>108.6</ele>
        <time>2014-04-27T10:55:22.94</time>
      </trkpt>
      <trkpt lat="49.31761" lon="2.47974">
        <ele>108.9</ele>
        <time>2014-04-27T10:55:29.94</time>
      </trkpt>
      <trkpt lat="49.31765" lon="2.47965">
        <ele>109.1</ele>
        <time>2014-04-27T10:55:36.94</time>
      </trkpt>
      <trkpt lat="49.31769" lon="2.4796">
        <ele>109.4</ele>
        <time>2014-04-27T10:55:43.95</time>
      </trkpt>
      <trkpt lat="49.31772" lon="2.47955">
        <ele>109.8</ele>
        <time>2014-04-27T10:55:50.94</time>
      </trkpt>
      <trkpt lat="49.3178" lon="2.4795">
        <ele>110.1</ele>
        <time>2014-04-27T10:55:56.94</time>
      </trkpt>
      <trkpt lat="49.31787" lon="2.47945">
        <ele>110.5</ele>
        <time>2014-04-27T10:56:03.94</time>
      </trkpt>
      <trkpt lat="49.31794" lon="2.47942">
        <ele>110.8</ele>
        <time>2014-04-27T10:56:10.94</time>
      </trkpt>
      <trkpt lat="49.31799" lon="2.47938">
        <ele>111</ele>
        <time>2014-04-27T10:56:17.94</time>
      </trkpt>
      <trkpt lat="49.31806" lon="2.47935">
        <ele>111.3</ele>
        <time>2014-04-27T10:56:24.94</time>
      </trkpt>
      <trkpt lat="49.31814" lon="2.47932">
        <ele>111.4</ele>
        <time>2014-04-27T10:56:30.94</time>
      </trkpt>
      <trkpt lat="49.31821" lon="2.47927">
        <ele>111.5</ele>
        <time>2014-04-27T10:56:36.94</time>
      </trkpt>
      <trkpt lat="49.31829" lon="2.47922">
        <ele>111.7</ele>
        <time>2014-04-27T10:56:43.95</time>
      </trkpt>
      <trkpt lat="49.31836" lon="2.47916">
        <ele>112.1</ele>
        <time>2014-04-27T10:56:50.94</time>
      </trkpt>
      <trkpt lat="49.3184" lon="2.47909">
        <ele>112.4</ele>
        <time>2014-04-27T10:56:57.94</time>
      </trkpt>
      <trkpt lat="49.31846" lon="2.47902">
        <ele>112.6</ele>
        <time>2014-04-27T10:57:02.94</time>
      </trkpt>
      <trkpt lat="49.31852" lon="2.47893">
        <ele>112.7</ele>
        <time>2014-04-27T10:57:09.94</time>
      </trkpt>
      <trkpt lat="49.31857" lon="2.47886">
        <ele>112.2</ele>
        <time>2014-04-27T10:57:16.94</time>
      </trkpt>
      <trkpt lat="49.31862" lon="2.47877">
        <ele>112.2</ele>
        <time>2014-04-27T10:57:23.94</time>
      </trkpt>
      <trkpt lat="49.31868" lon="2.47873">
        <ele>112.3</ele>
        <time>2014-04-27T10:57:28.94</time>
      </trkpt>
      <trkpt lat="49.31875" lon="2.47865">
        <ele>112.3</ele>
        <time>2014-04-27T10:57:34.94</time>
      </trkpt>
      <trkpt lat="49.31881" lon="2.47858">
        <ele>112.6</ele>
        <time>2014-04-27T10:57:40.94</time>
      </trkpt>
      <trkpt lat="49.31885" lon="2.47848">
        <ele>112.6</ele>
        <time>2014-04-27T10:57:47.94</time>
      </trkpt>
      <trkpt lat="49.31893" lon="2.47842">
        <ele>112.8</ele>
        <time>2014-04-27T10:57:52.94</time>
      </trkpt>
      <trkpt lat="49.319" lon="2.47837">
        <ele>113.2</ele>
        <time>2014-04-27T10:57:57.94</time>
      </trkpt>
      <trkpt lat="49.31906" lon="2.47829">
        <ele>113.2</ele>
        <time>2014-04-27T10:58:04.94</time>
      </trkpt>
      <trkpt lat="49.31911" lon="2.4782">
        <ele>112.9</ele>
        <time>2014-04-27T10:58:10.94</time>
      </trkpt>
      <trkpt lat="49.31914" lon="2.47812">
        <ele>112.3</ele>
        <time>2014-04-27T10:58:17.94</time>
      </trkpt>
      <trkpt lat="49.31914" lon="2.47806">
        <ele>111.6</ele>
        <time>2014-04-27T10:58:24.94</time>
      </trkpt>
      <trkpt lat="49.31919" lon="2.478">
        <ele>111.2</ele>
        <time>2014-04-27T10:58:31.96</time>
      </trkpt>
      <trkpt lat="49.31924" lon="2.47791">
        <ele>110.4</ele>
        <time>2014-04-27T10:58:38.94</time>
      </trkpt>
      <trkpt lat="49.31928" lon="2.47781">
        <ele>109.6</ele>
        <time>2014-04-27T10:58:45.95</time>
      </trkpt>
      <trkpt lat="49.31934" lon="2.47773">
        <ele>109</ele>
        <time>2014-04-27T10:58:51.94</time>
      </trkpt>
      <trkpt lat="49.31941" lon="2.47767">
        <ele>108.6</ele>
        <time>2014-04-27T10:58:57.94</time>
      </trkpt>
      <trkpt lat="49.31948" lon="2.47761">
        <ele>107.8</ele>
        <time>2014-04-27T10:59:04.95</time>
      </trkpt>
      <trkpt lat="49.31956" lon="2.47765">
        <ele>107.3</ele>
        <time>2014-04-27T10:59:11.94</time>
      </trkpt>
      <trkpt lat="49.31963" lon="2.47769">
        <ele>106.9</ele>
        <time>2014-04-27T10:59:17.94</time>
      </trkpt>
      <trkpt lat="49.31968" lon="2.47773">
        <ele>106.2</ele>
        <time>2014-04-27T10:59:24.94</time>
      </trkpt>
      <trkpt lat="49.31977" lon="2.47777">
        <ele>105.4</ele>
        <time>2014-04-27T10:59:31.96</time>
      </trkpt>
      <trkpt lat="49.31984" lon="2.47781">
        <ele>104.8</ele>
        <time>2014-04-27T10:59:37.95</time>
      </trkpt>
      <trkpt lat="49.31991" lon="2.47785">
        <ele>104.3</ele>
        <time>2014-04-27T10:59:44.94</time>
      </trkpt>
      <trkpt lat="49.31998" lon="2.47788">
        <ele>103.7</ele>
        <time>2014-04-27T10:59:50.94</time>
      </trkpt>
      <trkpt lat="49.32005" lon="2.47793">
        <ele>103.4</ele>
        <time>2014-04-27T10:59:57.94</time>
      </trkpt>
      <trkpt lat="49.32009" lon="2.47798">
        <ele>102.6</ele>
        <time>2014-04-27T11:00:04.94</time>
      </trkpt>
      <trkpt lat="49.32016" lon="2.47802">
        <ele>102.2</ele>
        <time>2014-04-27T11:00:10.94</time>
      </trkpt>
      <trkpt lat="49.32023" lon="2.47803">
        <ele>102.2</ele>
        <time>2014-04-27T11:00:15.94</time>
      </trkpt>
      <trkpt lat="49.32031" lon="2.47805">
        <ele>102.2</ele>
        <time>2014-04-27T11:00:20.94</time>
      </trkpt>
      <trkpt lat="49.32038" lon="2.47809">
        <ele>101.8</ele>
        <time>2014-04-27T11:00:26.94</time>
      </trkpt>
      <trkpt lat="49.32045" lon="2.47813">
        <ele>101.7</ele>
        <time>2014-04-27T11:00:31.95</time>
      </trkpt>
      <trkpt lat="49.32054" lon="2.47816">
        <ele>101.2</ele>
        <time>2014-04-27T11:00:37.95</time>
      </trkpt>
      <trkpt lat="49.32061" lon="2.47821">
        <ele>100.8</ele>
        <time>2014-04-27T11:00:43.95</time>
      </trkpt>
      <trkpt lat="49.32067" lon="2.47827">
        <ele>101.1</ele>
        <time>2014-04-27T11:00:50.94</time>
      </trkpt>
      <trkpt lat="49.32073" lon="2.47834">
        <ele>101.3</ele>
        <time>2014-04-27T11:00:57.94</time>
      </trkpt>
      <trkpt lat="49.32079" lon="2.47839">
        <ele>101.4</ele>
        <time>2014-04-27T11:01:04.94</time>
      </trkpt>
      <trkpt lat="49.32086" lon="2.47844">
        <ele>101.8</ele>
        <time>2014-04-27T11:01:11.94</time>
      </trkpt>
      <trkpt lat="49.32093" lon="2.47849">
        <ele>102.3</ele>
        <time>2014-04-27T11:01:17.94</time>
      </trkpt>
      <trkpt lat="49.32101" lon="2.47855">
        <ele>102.5</ele>
        <time>2014-04-27T11:01:23.94</time>
      </trkpt>
      <trkpt lat="49.32108" lon="2.47858">
        <ele>102.7</ele>
        <time>2014-04-27T11:01:30.94</time>
      </trkpt>
      <trkpt lat="49.32115" lon="2.47861">
        <ele>103.2</ele>
        <time>2014-04-27T11:01:36.94</time>
      </trkpt>
      <trkpt lat="49.32122" lon="2.47864">
        <ele>103.3</ele>
        <time>2014-04-27T11:01:43.96</time>
      </trkpt>
      <trkpt lat="49.32128" lon="2.47871">
        <ele>103.3</ele>
        <time>2014-04-27T11:01:50.94</time>
      </trkpt>
      <trkpt lat="49.32134" lon="2.47879">
        <ele>103.4</ele>
        <time>2014-04-27T11:01:57.94</time>
      </trkpt>
      <trkpt lat="49.32137" lon="2.47886">
        <ele>104.2</ele>
        <time>2014-04-27T11:02:04.94</time>
      </trkpt>
      <trkpt lat="49.32141" lon="2.4789">
        <ele>104.7</ele>
        <time>2014-04-27T11:02:11.94</time>
      </trkpt>
      <trkpt lat="49.32148" lon="2.47895">
        <ele>104.9</ele>
        <time>2014-04-27T11:02:18.94</time>
      </trkpt>
      <trkpt lat="49.3215" lon="2.47903">
        <ele>104.5</ele>
        <time>2014-04-27T11:02:25.94</time>
      </trkpt>
      <trkpt lat="49.32157" lon="2.47909">
        <ele>104.4</ele>
        <time>2014-04-27T11:02:32.94</time>
      </trkpt>
      <trkpt lat="49.32164" lon="2.47916">
        <ele>104.3</ele>
        <time>2014-04-27T11:02:39.94</time>
      </trkpt>
      <trkpt lat="49.3217" lon="2.47921">
        <ele>104</ele>
        <time>2014-04-27T11:02:45.94</time>
      </trkpt>
      <trkpt lat="49.32177" lon="2.47928">
        <ele>104.1</ele>
        <time>2014-04-27T11:02:50.94</time>
      </trkpt>
      <trkpt lat="49.32183" lon="2.47932">
        <ele>103.5</ele>
        <time>2014-04-27T11:02:54.94</time>
      </trkpt>
      <trkpt lat="49.32189" lon="2.4794">
        <ele>103.4</ele>
        <time>2014-04-27T11:03:00.94</time>
      </trkpt>
      <trkpt lat="49.32194" lon="2.47945">
        <ele>103.4</ele>
        <time>2014-04-27T11:03:07.94</time>
      </trkpt>
      <trkpt lat="49.32201" lon="2.47952">
        <ele>102.8</ele>
        <time>2014-04-27T11:03:14.94</time>
      </trkpt>
      <trkpt lat="49.32205" lon="2.47959">
        <ele>103</ele>
        <time>2014-04-27T11:03:21.94</time>
      </trkpt>
      <trkpt lat="49.3221" lon="2.47968">
        <ele>103.8</ele>
        <time>2014-04-27T11:03:28.94</time>
      </trkpt>
      <trkpt lat="49.32216" lon="2.47977">
        <ele>104.4</ele>
        <time>2014-04-27T11:03:34.97</time>
      </trkpt>
      <trkpt lat="49.32223" lon="2.47984">
        <ele>105.1</ele>
        <time>2014-04-27T11:03:41.94</time>
      </trkpt>
      <trkpt lat="49.32231" lon="2.47989">
        <ele>105.3</ele>
        <time>2014-04-27T11:03:47.94</time>
      </trkpt>
      <trkpt lat="49.32235" lon="2.47996">
        <ele>105.9</ele>
        <time>2014-04-27T11:03:54.94</time>
      </trkpt>
      <trkpt lat="49.32241" lon="2.48002">
        <ele>106.2</ele>
        <time>2014-04-27T11:04:01.95</time>
      </trkpt>
      <trkpt lat="49.32246" lon="2.48011">
        <ele>107.2</ele>
        <time>2014-04-27T11:04:08.94</time>
      </trkpt>
      <trkpt lat="49.32253" lon="2.48018">
        <ele>108</ele>
        <time>2014-04-27T11:04:14.94</time>
      </trkpt>
      <trkpt lat="49.32259" lon="2.48021">
        <ele>108.4</ele>
        <time>2014-04-27T11:04:21.94</time>
      </trkpt>
      <trkpt lat="49.32266" lon="2.48028">
        <ele>109.1</ele>
        <time>2014-04-27T11:04:27.94</time>
      </trkpt>
      <trkpt lat="49.32271" lon="2.48037">
        <ele>109.8</ele>
        <time>2014-04-27T11:04:33.96</time>
      </trkpt>
      <trkpt lat="49.32278" lon="2.48042">
        <ele>110.1</ele>
        <time>2014-04-27T11:04:39.94</time>
      </trkpt>
      <trkpt lat="49.32285" lon="2.4805">
        <ele>110.6</ele>
        <time>2014-04-27T11:04:45.94</time>
      </trkpt>
      <trkpt lat="49.3229" lon="2.48056">
        <ele>111.2</ele>
        <time>2014-04-27T11:04:51.94</time>
      </trkpt>
      <trkpt lat="49.32298" lon="2.48063">
        <ele>111.4</ele>
        <time>2014-04-27T11:04:58.94</time>
      </trkpt>
      <trkpt lat="49.32303" lon="2.48071">
        <ele>111.7</ele>
        <time>2014-04-27T11:05:03.94</time>
      </trkpt>
      <trkpt lat="49.32311" lon="2.48079">
        <ele>111.8</ele>
        <time>2014-04-27T11:05:10.94</time>
      </trkpt>
      <trkpt lat="49.32318" lon="2.48083">
        <ele>111.8</ele>
        <time>2014-04-27T11:05:17.94</time>
      </trkpt>
      <trkpt lat="49.32321" lon="2.4809">
        <ele>112.1</ele>
        <time>2014-04-27T11:05:24.94</time>
      </trkpt>
      <trkpt lat="49.32325" lon="2.48095">
        <ele>112.3</ele>
        <time>2014-04-27T11:05:31.94</time>
      </trkpt>
      <trkpt lat="49.3233" lon="2.48101">
        <ele>112.3</ele>
        <time>2014-04-27T11:05:38.94</time>
      </trkpt>
      <trkpt lat="49.32335" lon="2.48109">
        <ele>112.6</ele>
        <time>2014-04-27T11:05:45.94</time>
      </trkpt>
      <trkpt lat="49.32342" lon="2.48117">
        <ele>113.2</ele>
        <time>2014-04-27T11:05:51.94</time>
      </trkpt>
      <trkpt lat="49.3235" lon="2.48124">
        <ele>113.7</ele>
        <time>2014-04-27T11:05:56.98</time>
      </trkpt>
      <trkpt lat="49.32353" lon="2.48128">
        <ele>114</ele>
        <time>2014-04-27T11:06:03.94</time>
      </trkpt>
      <trkpt lat="49.3236" lon="2.48135">
        <ele>114.3</ele>
        <time>2014-04-27T11:06:08.94</time>
      </trkpt>
      <trkpt lat="49.32365" lon="2.48143">
        <ele>114.3</ele>
        <time>2014-04-27T11:06:14.94</time>
      </trkpt>
      <trkpt lat="49.32371" lon="2.48147">
        <ele>114.8</ele>
        <time>2014-04-27T11:06:21.94</time>
      </trkpt>
      <trkpt lat="49.32376" lon="2.48158">
        <ele>114.9</ele>
        <time>2014-04-27T11:06:27.94</time>
      </trkpt>
      <trkpt lat="49.3238" lon="2.48165">
        <ele>115</ele>
        <time>2014-04-27T11:06:34.94</time>
      </trkpt>
      <trkpt lat="49.32386" lon="2.48171">
        <ele>115</ele>
        <time>2014-04-27T11:06:38.94</time>
      </trkpt>
      <trkpt lat="49.32391" lon="2.48179">
        <ele>115</ele>
        <time>2014-04-27T11:06:43.94</time>
      </trkpt>
      <trkpt lat="49.32399" lon="2.48184">
        <ele>114.9</ele>
        <time>2014-04-27T11:06:49.94</time>
      </trkpt>
      <trkpt lat="49.32403" lon="2.48194">
        <ele>114.9</ele>
        <time>2014-04-27T11:06:56.94</time>
      </trkpt>
      <trkpt lat="49.32409" lon="2.48201">
        <ele>114.7</ele>
        <time>2014-04-27T11:07:02.94</time>
      </trkpt>
      <trkpt lat="49.32414" lon="2.48209">
        <ele>114.5</ele>
        <time>2014-04-27T11:07:09.94</time>
      </trkpt>
      <trkpt lat="49.32421" lon="2.48214">
        <ele>114.2</ele>
        <time>2014-04-27T11:07:14.94</time>
      </trkpt>
      <trkpt lat="49.32428" lon="2.4822">
        <ele>114.3</ele>
        <time>2014-04-27T11:07:21.94</time>
      </trkpt>
      <trkpt lat="49.32435" lon="2.48227">
        <ele>114.6</ele>
        <time>2014-04-27T11:07:28.94</time>
      </trkpt>
      <trkpt lat="49.32441" lon="2.48232">
        <ele>114.7</ele>
        <time>2014-04-27T11:07:35.94</time>
      </trkpt>
      <trkpt lat="49.32447" lon="2.48236">
        <ele>114.8</ele>
        <time>2014-04-27T11:07:42.94</time>
      </trkpt>
      <trkpt lat="49.32454" lon="2.48243">
        <ele>114.9</ele>
        <time>2014-04-27T11:07:49.94</time>
      </trkpt>
      <trkpt lat="49.32458" lon="2.48252">
        <ele>113.5</ele>
        <time>2014-04-27T11:07:55.94</time>
      </trkpt>
      <trkpt lat="49.32463" lon="2.48262">
        <ele>112.9</ele>
        <time>2014-04-27T11:08:01.94</time>
      </trkpt>
      <trkpt lat="49.32466" lon="2.48271">
        <ele>112.4</ele>
        <time>2014-04-27T11:08:08.94</time>
      </trkpt>
      <trkpt lat="49.32471" lon="2.48274">
        <ele>112.7</ele>
        <time>2014-04-27T11:08:15.94</time>
      </trkpt>
      <trkpt lat="49.32473" lon="2.48281">
        <ele>113</ele>
        <time>2014-04-27T11:08:22.94</time>
      </trkpt>
      <trkpt lat="49.32478" lon="2.4829">
        <ele>112.4</ele>
        <time>2014-04-27T11:08:28.94</time>
      </trkpt>
      <trkpt lat="49.32479" lon="2.483">
        <ele>112</ele>
        <time>2014-04-27T11:08:35.94</time>
      </trkpt>
      <trkpt lat="49.32485" lon="2.48307">
        <ele>111.5</ele>
        <time>2014-04-27T11:08:41.94</time>
      </trkpt>
      <trkpt lat="49.32491" lon="2.48312">
        <ele>109.9</ele>
        <time>2014-04-27T11:08:48.94</time>
      </trkpt>
      <trkpt lat="49.32493" lon="2.48321">
        <ele>109.2</ele>
        <time>2014-04-27T11:08:55.94</time>
      </trkpt>
      <trkpt lat="49.32495" lon="2.48332">
        <ele>108.7</ele>
        <time>2014-04-27T11:09:01.94</time>
      </trkpt>
      <trkpt lat="49.32498" lon="2.48342">
        <ele>108.5</ele>
        <time>2014-04-27T11:09:08.94</time>
      </trkpt>
      <trkpt lat="49.32504" lon="2.48351">
        <ele>108.3</ele>
        <time>2014-04-27T11:09:15.94</time>
      </trkpt>
      <trkpt lat="49.32508" lon="2.4836">
        <ele>107.2</ele>
        <time>2014-04-27T11:09:20.94</time>
      </trkpt>
      <trkpt lat="49.32511" lon="2.48369">
        <ele>106.1</ele>
        <time>2014-04-27T11:09:27.94</time>
      </trkpt>
      <trkpt lat="49.3251" lon="2.48374">
        <ele>105.9</ele>
        <time>2014-04-27T11:09:34.94</time>
      </trkpt>
      <trkpt lat="49.32511" lon="2.48371">
        <ele>105.7</ele>
        <time>2014-04-27T11:09:41.94</time>
      </trkpt>
      <trkpt lat="49.32515" lon="2.48379">
        <ele>105.3</ele>
        <time>2014-04-27T11:09:44.96</time>
      </trkpt>
      <trkpt lat="49.3252" lon="2.48383">
        <ele>104.7</ele>
        <time>2014-04-27T11:09:51.94</time>
      </trkpt>
      <trkpt lat="49.32523" lon="2.48391">
        <ele>104.4</ele>
        <time>2014-04-27T11:09:58.94</time>
      </trkpt>
      <trkpt lat="49.32522" lon="2.48398">
        <ele>103.9</ele>
        <time>2014-04-27T11:10:05.94</time>
      </trkpt>
      <trkpt lat="49.32527" lon="2.48404">
        <ele>103.5</ele>
        <time>2014-04-27T11:10:12.94</time>
      </trkpt>
      <trkpt lat="49.32529" lon="2.48414">
        <ele>102.7</ele>
        <time>2014-04-27T11:10:19.94</time>
      </trkpt>
      <trkpt lat="49.32535" lon="2.48419">
        <ele>102.5</ele>
        <time>2014-04-27T11:10:25.94</time>
      </trkpt>
      <trkpt lat="49.32541" lon="2.48428">
        <ele>102</ele>
        <time>2014-04-27T11:10:32.94</time>
      </trkpt>
      <trkpt lat="49.32547" lon="2.48436">
        <ele>100.9</ele>
        <time>2014-04-27T11:10:39.94</time>
      </trkpt>
      <trkpt lat="49.32546" lon="2.48447">
        <ele>99.1</ele>
        <time>2014-04-27T11:10:44.94</time>
      </trkpt>
      <trkpt lat="49.32547" lon="2.48458">
        <ele>97.6</ele>
        <time>2014-04-27T11:10:51.94</time>
      </trkpt>
      <trkpt lat="49.3255" lon="2.48469">
        <ele>96.8</ele>
        <time>2014-04-27T11:10:57.94</time>
      </trkpt>
      <trkpt lat="49.32555" lon="2.48477">
        <ele>96</ele>
        <time>2014-04-27T11:11:04.94</time>
      </trkpt>
      <trkpt lat="49.3256" lon="2.48484">
        <ele>95.3</ele>
        <time>2014-04-27T11:11:11.94</time>
      </trkpt>
      <trkpt lat="49.32565" lon="2.48492">
        <ele>95.1</ele>
        <time>2014-04-27T11:11:17.94</time>
      </trkpt>
      <trkpt lat="49.32569" lon="2.48501">
        <ele>94.5</ele>
        <time>2014-04-27T11:11:24.94</time>
      </trkpt>
      <trkpt lat="49.32572" lon="2.4851">
        <ele>94.4</ele>
        <time>2014-04-27T11:11:31.94</time>
      </trkpt>
      <trkpt lat="49.3258" lon="2.48517">
        <ele>94.1</ele>
        <time>2014-04-27T11:11:37.94</time>
      </trkpt>
      <trkpt lat="49.32587" lon="2.48522">
        <ele>93.9</ele>
        <time>2014-04-27T11:11:43.94</time>
      </trkpt>
      <trkpt lat="49.3259" lon="2.48533">
        <ele>93.1</ele>
        <time>2014-04-27T11:11:48.94</time>
      </trkpt>
      <trkpt lat="49.32594" lon="2.48543">
        <ele>92.1</ele>
        <time>2014-04-27T11:11:55.94</time>
      </trkpt>
      <trkpt lat="49.32596" lon="2.48555">
        <ele>90</ele>
        <time>2014-04-27T11:12:02.94</time>
      </trkpt>
      <trkpt lat="49.32601" lon="2.48564">
        <ele>88.5</ele>
        <time>2014-04-27T11:12:09.94</time>
      </trkpt>
      <trkpt lat="49.32603" lon="2.48574">
        <ele>88.1</ele>
        <time>2014-04-27T11:12:16.94</time>
      </trkpt>
      <trkpt lat="49.32604" lon="2.48585">
        <ele>86.2</ele>
        <time>2014-04-27T11:12:23.94</time>
      </trkpt>
      <trkpt lat="49.32609" lon="2.48595">
        <ele>84.8</ele>
        <time>2014-04-27T11:12:30.94</time>
      </trkpt>
      <trkpt lat="49.32615" lon="2.48601">
        <ele>83.7</ele>
        <time>2014-04-27T11:12:34.94</time>
      </trkpt>
      <trkpt lat="49.32622" lon="2.48608">
        <ele>82.6</ele>
        <time>2014-04-27T11:12:40.94</time>
      </trkpt>
      <trkpt lat="49.32625" lon="2.48615">
        <ele>81.6</ele>
        <time>2014-04-27T11:12:47.94</time>
      </trkpt>
      <trkpt lat="49.32627" lon="2.48622">
        <ele>80.4</ele>
        <time>2014-04-27T11:12:54.94</time>
      </trkpt>
      <trkpt lat="49.32632" lon="2.48632">
        <ele>78.8</ele>
        <time>2014-04-27T11:13:01.94</time>
      </trkpt>
      <trkpt lat="49.32637" lon="2.48642">
        <ele>77.7</ele>
        <time>2014-04-27T11:13:08.94</time>
      </trkpt>
      <trkpt lat="49.32641" lon="2.48652">
        <ele>76.9</ele>
        <time>2014-04-27T11:13:15.94</time>
      </trkpt>
      <trkpt lat="49.32645" lon="2.48662">
        <ele>76</ele>
        <time>2014-04-27T11:13:22.94</time>
      </trkpt>
      <trkpt lat="49.32648" lon="2.48673">
        <ele>75</ele>
        <time>2014-04-27T11:13:29.94</time>
      </trkpt>
      <trkpt lat="49.32652" lon="2.48679">
        <ele>73.2</ele>
        <time>2014-04-27T11:13:36.94</time>
      </trkpt>
      <trkpt lat="49.32658" lon="2.48685">
        <ele>71.6</ele>
        <time>2014-04-27T11:13:43.94</time>
      </trkpt>
      <trkpt lat="49.32662" lon="2.48695">
        <ele>70.4</ele>
        <time>2014-04-27T11:13:49.94</time>
      </trkpt>
      <trkpt lat="49.32667" lon="2.48704">
        <ele>69.8</ele>
        <time>2014-04-27T11:13:55.94</time>
      </trkpt>
      <trkpt lat="49.3267" lon="2.48714">
        <ele>68.8</ele>
        <time>2014-04-27T11:14:02.94</time>
      </trkpt>
      <trkpt lat="49.32673" lon="2.48723">
        <ele>68.1</ele>
        <time>2014-04-27T11:14:09.94</time>
      </trkpt>
      <trkpt lat="49.32678" lon="2.48732">
        <ele>66.6</ele>
        <time>2014-04-27T11:14:16.94</time>
      </trkpt>
      <trkpt lat="49.32683" lon="2.48741">
        <ele>65</ele>
        <time>2014-04-27T11:14:23.94</time>
      </trkpt>
      <trkpt lat="49.32686" lon="2.4875">
        <ele>63.1</ele>
        <time>2014-04-27T11:14:30.94</time>
      </trkpt>
      <trkpt lat="49.3269" lon="2.4876">
        <ele>61.7</ele>
        <time>2014-04-27T11:14:37.94</time>
      </trkpt>
      <trkpt lat="49.32695" lon="2.4877">
        <ele>60.4</ele>
        <time>2014-04-27T11:14:43.94</time>
      </trkpt>
      <trkpt lat="49.32697" lon="2.48778">
        <ele>58.9</ele>
        <time>2014-04-27T11:14:50.94</time>
      </trkpt>
      <trkpt lat="49.32703" lon="2.48784">
        <ele>57.1</ele>
        <time>2014-04-27T11:14:57.94</time>
      </trkpt>
      <trkpt lat="49.32708" lon="2.48792">
        <ele>55.3</ele>
        <time>2014-04-27T11:15:04.94</time>
      </trkpt>
      <trkpt lat="49.32712" lon="2.48801">
        <ele>53.7</ele>
        <time>2014-04-27T11:15:11.94</time>
      </trkpt>
      <trkpt lat="49.32718" lon="2.48808">
        <ele>52.2</ele>
        <time>2014-04-27T11:15:18.94</time>
      </trkpt>
      <trkpt lat="49.32726" lon="2.48814">
        <ele>51.1</ele>
        <time>2014-04-27T11:15:24.94</time>
      </trkpt>
      <trkpt lat="49.32731" lon="2.48824">
        <ele>49.5</ele>
        <time>2014-04-27T11:15:31.94</time>
      </trkpt>
      <trkpt lat="49.32734" lon="2.48835">
        <ele>49.3</ele>
        <time>2014-04-27T11:15:36.94</time>
      </trkpt>
      <trkpt lat="49.32739" lon="2.48844">
        <ele>48.1</ele>
        <time>2014-04-27T11:15:42.94</time>
      </trkpt>
      <trkpt lat="49.32742" lon="2.48854">
        <ele>48</ele>
        <time>2014-04-27T11:15:47.94</time>
      </trkpt>
      <trkpt lat="49.32746" lon="2.48866">
        <ele>47.8</ele>
        <time>2014-04-27T11:15:54.94</time>
      </trkpt>
      <trkpt lat="49.32749" lon="2.48874">
        <ele>47.7</ele>
        <time>2014-04-27T11:16:01.94</time>
      </trkpt>
      <trkpt lat="49.32752" lon="2.48884">
        <ele>48.4</ele>
        <time>2014-04-27T11:16:08.94</time>
      </trkpt>
      <trkpt lat="49.32753" lon="2.48889">
        <ele>48.3</ele>
        <time>2014-04-27T11:16:15.94</time>
      </trkpt>
      <trkpt lat="49.32756" lon="2.48893">
        <ele>48.4</ele>
        <time>2014-04-27T11:16:22.94</time>
      </trkpt>
      <trkpt lat="49.3276" lon="2.48894">
        <ele>48.3</ele>
        <time>2014-04-27T11:16:29.94</time>
      </trkpt>
      <trkpt lat="49.32762" lon="2.48892">
        <ele>48.2</ele>
        <time>2014-04-27T11:16:36.96</time>
      </trkpt>
      <trkpt lat="49.32769" lon="2.48899">
        <ele>48.4</ele>
        <time>2014-04-27T11:16:39.96</time>
      </trkpt>
      <trkpt lat="49.32769" lon="2.48911">
        <ele>48.8</ele>
        <time>2014-04-27T11:16:45.94</time>
      </trkpt>
      <trkpt lat="49.32773" lon="2.48921">
        <ele>49</ele>
        <time>2014-04-27T11:16:51.94</time>
      </trkpt>
      <trkpt lat="49.32779" lon="2.48924">
        <ele>49.6</ele>
        <time>2014-04-27T11:16:58.98</time>
      </trkpt>
      <trkpt lat="49.32786" lon="2.48928">
        <ele>49.7</ele>
        <time>2014-04-27T11:17:04.97</time>
      </trkpt>
      <trkpt lat="49.32795" lon="2.48936">
        <ele>49.9</ele>
        <time>2014-04-27T11:17:11.97</time>
      </trkpt>
      <trkpt lat="49.32802" lon="2.4894">
        <ele>50.2</ele>
        <time>2014-04-27T11:17:16.94</time>
      </trkpt>
      <trkpt lat="49.32807" lon="2.48948">
        <ele>50.5</ele>
        <time>2014-04-27T11:17:24.15</time>
      </trkpt>
      <trkpt lat="49.32814" lon="2.48954">
        <ele>50.8</ele>
        <time>2014-04-27T11:17:30.95</time>
      </trkpt>
      <trkpt lat="49.32819" lon="2.48961">
        <ele>50.9</ele>
        <time>2014-04-27T11:17:37.97</time>
      </trkpt>
      <trkpt lat="49.32826" lon="2.48966">
        <ele>51.1</ele>
        <time>2014-04-27T11:17:45.25</time>
      </trkpt>
      <trkpt lat="49.32832" lon="2.48972">
        <ele>51.3</ele>
        <time>2014-04-27T11:17:51.98</time>
      </trkpt>
      <trkpt lat="49.3284" lon="2.48977">
        <ele>51.8</ele>
        <time>2014-04-27T11:17:56.94</time>
      </trkpt>
      <trkpt lat="49.32847" lon="2.48981">
        <ele>52.1</ele>
        <time>2014-04-27T11:18:02.97</time>
      </trkpt>
      <trkpt lat="49.32852" lon="2.48988">
        <ele>52.4</ele>
        <time>2014-04-27T11:18:09.95</time>
      </trkpt>
      <trkpt lat="49.32855" lon="2.48994">
        <ele>52.4</ele>
        <time>2014-04-27T11:18:16.96</time>
      </trkpt>
      <trkpt lat="49.32861" lon="2.48999">
        <ele>52.6</ele>
        <time>2014-04-27T11:18:23.99</time>
      </trkpt>
      <trkpt lat="49.32868" lon="2.49005">
        <ele>52.7</ele>
        <time>2014-04-27T11:18:30.97</time>
      </trkpt>
      <trkpt lat="49.32874" lon="2.49009">
        <ele>52.9</ele>
        <time>2014-04-27T11:18:38.25</time>
      </trkpt>
      <trkpt lat="49.32876" lon="2.49011">
        <ele>53</ele>
        <time>2014-04-27T11:18:44.99</time>
      </trkpt>
      <trkpt lat="49.32879" lon="2.49015">
        <ele>53.2</ele>
        <time>2014-04-27T11:18:51.98</time>
      </trkpt>
      <trkpt lat="49.32883" lon="2.49021">
        <ele>53.3</ele>
        <time>2014-04-27T11:18:59.15</time>
      </trkpt>
      <trkpt lat="49.3289" lon="2.49027">
        <ele>53.4</ele>
        <time>2014-04-27T11:19:04.99</time>
      </trkpt>
      <trkpt lat="49.32898" lon="2.49032">
        <ele>53.8</ele>
        <time>2014-04-27T11:19:09.99</time>
      </trkpt>
      <trkpt lat="49.32906" lon="2.49036">
        <ele>54.2</ele>
        <time>2014-04-27T11:19:13.94</time>
      </trkpt>
      <trkpt lat="49.32912" lon="2.49041">
        <ele>54.2</ele>
        <time>2014-04-27T11:19:20.94</time>
      </trkpt>
      <trkpt lat="49.32917" lon="2.49048">
        <ele>54.2</ele>
        <time>2014-04-27T11:19:27.95</time>
      </trkpt>
      <trkpt lat="49.32924" lon="2.49053">
        <ele>54.3</ele>
        <time>2014-04-27T11:19:34.94</time>
      </trkpt>
      <trkpt lat="49.32928" lon="2.49058">
        <ele>54.4</ele>
        <time>2014-04-27T11:19:41.94</time>
      </trkpt>
      <trkpt lat="49.32932" lon="2.49064">
        <ele>54.1</ele>
        <time>2014-04-27T11:19:48.94</time>
      </trkpt>
      <trkpt lat="49.32936" lon="2.49065">
        <ele>53.4</ele>
        <time>2014-04-27T11:19:55.94</time>
      </trkpt>
      <trkpt lat="49.3294" lon="2.49064">
        <ele>53.3</ele>
        <time>2014-04-27T11:20:02.94</time>
      </trkpt>
      <trkpt lat="49.32942" lon="2.4906">
        <ele>53.3</ele>
        <time>2014-04-27T11:20:09.94</time>
      </trkpt>
      <trkpt lat="49.32943" lon="2.49057">
        <ele>53.2</ele>
        <time>2014-04-27T11:20:16.95</time>
      </trkpt>
      <trkpt lat="49.32949" lon="2.49051">
        <ele>52.7</ele>
        <time>2014-04-27T11:20:21.94</time>
      </trkpt>
      <trkpt lat="49.32951" lon="2.49049">
        <ele>52.4</ele>
        <time>2014-04-27T11:20:28.94</time>
      </trkpt>
      <trkpt lat="49.32949" lon="2.49051">
        <ele>52.5</ele>
        <time>2014-04-27T11:20:31.95</time>
      </trkpt>
      <trkpt lat="49.32951" lon="2.4904">
        <ele>52.5</ele>
        <time>2014-04-27T11:20:34.95</time>
      </trkpt>
      <trkpt lat="49.32952" lon="2.49045">
        <ele>51.5</ele>
        <time>2014-04-27T11:20:41.93</time>
      </trkpt>
      <trkpt lat="49.32949" lon="2.49051">
        <ele>51</ele>
        <time>2014-04-27T11:20:46.95</time>
      </trkpt>
      <trkpt lat="49.32953" lon="2.49058">
        <ele>51.9</ele>
        <time>2014-04-27T11:20:49.95</time>
      </trkpt>
      <trkpt lat="49.32954" lon="2.49067">
        <ele>51.5</ele>
        <time>2014-04-27T11:20:56.93</time>
      </trkpt>
      <trkpt lat="49.32952" lon="2.49075">
        <ele>51.5</ele>
        <time>2014-04-27T11:21:03.93</time>
      </trkpt>
      <trkpt lat="49.32952" lon="2.49075">
        <ele>51.7</ele>
        <time>2014-04-27T11:21:10.93</time>
      </trkpt>
      <trkpt lat="49.32945" lon="2.49072">
        <ele>51.5</ele>
        <time>2014-04-27T11:21:13.95</time>
      </trkpt>
      <trkpt lat="49.3294" lon="2.49075">
        <ele>51.3</ele>
        <time>2014-04-27T11:21:20.93</time>
      </trkpt>
      <trkpt lat="49.32936" lon="2.49084">
        <ele>51.3</ele>
        <time>2014-04-27T11:21:25.94</time>
      </trkpt>
      <trkpt lat="49.32929" lon="2.49089">
        <ele>51.9</ele>
        <time>2014-04-27T11:21:32.93</time>
      </trkpt>
      <trkpt lat="49.32921" lon="2.49094">
        <ele>51.9</ele>
        <time>2014-04-27T11:21:38.93</time>
      </trkpt>
      <trkpt lat="49.32914" lon="2.49099">
        <ele>51.9</ele>
        <time>2014-04-27T11:21:45.94</time>
      </trkpt>
      <trkpt lat="49.32908" lon="2.49107">
        <ele>51.8</ele>
        <time>2014-04-27T11:21:51.93</time>
      </trkpt>
      <trkpt lat="49.32903" lon="2.49112">
        <ele>51.8</ele>
        <time>2014-04-27T11:21:58.93</time>
      </trkpt>
      <trkpt lat="49.32896" lon="2.49116">
        <ele>51.8</ele>
        <time>2014-04-27T11:22:04.96</time>
      </trkpt>
      <trkpt lat="49.32888" lon="2.49119">
        <ele>51.8</ele>
        <time>2014-04-27T11:22:11.93</time>
      </trkpt>
      <trkpt lat="49.32881" lon="2.49125">
        <ele>52</ele>
        <time>2014-04-27T11:22:18.93</time>
      </trkpt>
      <trkpt lat="49.32874" lon="2.4913">
        <ele>52</ele>
        <time>2014-04-27T11:22:24.93</time>
      </trkpt>
      <trkpt lat="49.32869" lon="2.49139">
        <ele>52.3</ele>
        <time>2014-04-27T11:22:29.93</time>
      </trkpt>
      <trkpt lat="49.32862" lon="2.49146">
        <ele>52.5</ele>
        <time>2014-04-27T11:22:36.93</time>
      </trkpt>
      <trkpt lat="49.3286" lon="2.49157">
        <ele>52.7</ele>
        <time>2014-04-27T11:22:43.93</time>
      </trkpt>
      <trkpt lat="49.32861" lon="2.4917">
        <ele>52.8</ele>
        <time>2014-04-27T11:22:49.93</time>
      </trkpt>
      <trkpt lat="49.32863" lon="2.49182">
        <ele>52.8</ele>
        <time>2014-04-27T11:22:55.94</time>
      </trkpt>
      <trkpt lat="49.32865" lon="2.49193">
        <ele>53.1</ele>
        <time>2014-04-27T11:23:02.93</time>
      </trkpt>
      <trkpt lat="49.32868" lon="2.49203">
        <ele>53.3</ele>
        <time>2014-04-27T11:23:08.93</time>
      </trkpt>
      <trkpt lat="49.32871" lon="2.49214">
        <ele>53.3</ele>
        <time>2014-04-27T11:23:15.97</time>
      </trkpt>
      <trkpt lat="49.32874" lon="2.49224">
        <ele>53.5</ele>
        <time>2014-04-27T11:23:22.93</time>
      </trkpt>
      <trkpt lat="49.32876" lon="2.49235">
        <ele>53.5</ele>
        <time>2014-04-27T11:23:28.93</time>
      </trkpt>
      <trkpt lat="49.32878" lon="2.49247">
        <ele>53.5</ele>
        <time>2014-04-27T11:23:34.93</time>
      </trkpt>
      <trkpt lat="49.32879" lon="2.49259">
        <ele>53.5</ele>
        <time>2014-04-27T11:23:40.93</time>
      </trkpt>
      <trkpt lat="49.32881" lon="2.4927">
        <ele>53.3</ele>
        <time>2014-04-27T11:23:46.93</time>
      </trkpt>
      <trkpt lat="49.32883" lon="2.49281">
        <ele>53.4</ele>
        <time>2014-04-27T11:23:53.93</time>
      </trkpt>
      <trkpt lat="49.32884" lon="2.49292">
        <ele>53.1</ele>
        <time>2014-04-27T11:24:00.93</time>
      </trkpt>
      <trkpt lat="49.32885" lon="2.49305">
        <ele>53.1</ele>
        <time>2014-04-27T11:24:07.93</time>
      </trkpt>
      <trkpt lat="49.32886" lon="2.49316">
        <ele>53.1</ele>
        <time>2014-04-27T11:24:14.93</time>
      </trkpt>
      <trkpt lat="49.32888" lon="2.49327">
        <ele>53.1</ele>
        <time>2014-04-27T11:24:19.93</time>
      </trkpt>
      <trkpt lat="49.32889" lon="2.49338">
        <ele>53</ele>
        <time>2014-04-27T11:24:25.93</time>
      </trkpt>
      <trkpt lat="49.32891" lon="2.4935">
        <ele>52.9</ele>
        <time>2014-04-27T11:24:32.93</time>
      </trkpt>
      <trkpt lat="49.32893" lon="2.49361">
        <ele>52.8</ele>
        <time>2014-04-27T11:24:38.93</time>
      </trkpt>
      <trkpt lat="49.32892" lon="2.49373">
        <ele>52.8</ele>
        <time>2014-04-27T11:24:44.93</time>
      </trkpt>
      <trkpt lat="49.32893" lon="2.49383">
        <ele>52.8</ele>
        <time>2014-04-27T11:24:50.93</time>
      </trkpt>
      <trkpt lat="49.32894" lon="2.49396">
        <ele>52.5</ele>
        <time>2014-04-27T11:24:57.93</time>
      </trkpt>
      <trkpt lat="49.32895" lon="2.49406">
        <ele>52.5</ele>
        <time>2014-04-27T11:25:04.93</time>
      </trkpt>
      <trkpt lat="49.32896" lon="2.49417">
        <ele>52.4</ele>
        <time>2014-04-27T11:25:11.93</time>
      </trkpt>
      <trkpt lat="49.32896" lon="2.49431">
        <ele>52.5</ele>
        <time>2014-04-27T11:25:18.93</time>
      </trkpt>
      <trkpt lat="49.32898" lon="2.49441">
        <ele>52.4</ele>
        <time>2014-04-27T11:25:24.93</time>
      </trkpt>
      <trkpt lat="49.329" lon="2.49452">
        <ele>51.9</ele>
        <time>2014-04-27T11:25:30.93</time>
      </trkpt>
      <trkpt lat="49.32903" lon="2.49462">
        <ele>51.5</ele>
        <time>2014-04-27T11:25:37.93</time>
      </trkpt>
      <trkpt lat="49.32904" lon="2.49473">
        <ele>51.2</ele>
        <time>2014-04-27T11:25:44.93</time>
      </trkpt>
      <trkpt lat="49.32903" lon="2.49485">
        <ele>50.7</ele>
        <time>2014-04-27T11:25:51.93</time>
      </trkpt>
      <trkpt lat="49.32904" lon="2.49495">
        <ele>50.4</ele>
        <time>2014-04-27T11:25:58.93</time>
      </trkpt>
      <trkpt lat="49.32902" lon="2.49502">
        <ele>50.1</ele>
        <time>2014-04-27T11:26:05.93</time>
      </trkpt>
      <trkpt lat="49.32898" lon="2.49509">
        <ele>50.6</ele>
        <time>2014-04-27T11:26:12.93</time>
      </trkpt>
      <trkpt lat="49.32891" lon="2.49512">
        <ele>50.2</ele>
        <time>2014-04-27T11:26:17.96</time>
      </trkpt>
      <trkpt lat="49.32886" lon="2.49511">
        <ele>49.9</ele>
        <time>2014-04-27T11:26:24.94</time>
      </trkpt>
      <trkpt lat="49.3288" lon="2.49512">
        <ele>49.6</ele>
        <time>2014-04-27T11:26:31.93</time>
      </trkpt>
      <trkpt lat="49.32873" lon="2.49515">
        <ele>49.6</ele>
        <time>2014-04-27T11:26:38.93</time>
      </trkpt>
      <trkpt lat="49.32865" lon="2.49519">
        <ele>49.7</ele>
        <time>2014-04-27T11:26:44.93</time>
      </trkpt>
      <trkpt lat="49.32858" lon="2.49521">
        <ele>49.1</ele>
        <time>2014-04-27T11:26:50.93</time>
      </trkpt>
      <trkpt lat="49.32852" lon="2.4952">
        <ele>48.5</ele>
        <time>2014-04-27T11:26:57.94</time>
      </trkpt>
      <trkpt lat="49.32844" lon="2.49521">
        <ele>48.3</ele>
        <time>2014-04-27T11:27:04.93</time>
      </trkpt>
      <trkpt lat="49.32836" lon="2.49524">
        <ele>48.5</ele>
        <time>2014-04-27T11:27:10.93</time>
      </trkpt>
      <trkpt lat="49.32832" lon="2.49524">
        <ele>48.5</ele>
        <time>2014-04-27T11:27:17.93</time>
      </trkpt>
      <trkpt lat="49.32827" lon="2.49525">
        <ele>48.4</ele>
        <time>2014-04-27T11:27:24.93</time>
      </trkpt>
      <trkpt lat="49.3282" lon="2.49523">
        <ele>48</ele>
        <time>2014-04-27T11:27:31.93</time>
      </trkpt>
      <trkpt lat="49.32817" lon="2.4952">
        <ele>47.7</ele>
        <time>2014-04-27T11:27:38.93</time>
      </trkpt>
      <trkpt lat="49.32815" lon="2.49522">
        <ele>47.7</ele>
        <time>2014-04-27T11:27:45.93</time>
      </trkpt>
      <trkpt lat="49.32808" lon="2.49526">
        <ele>47.2</ele>
        <time>2014-04-27T11:27:47.95</time>
      </trkpt>
      <trkpt lat="49.328" lon="2.49528">
        <ele>47</ele>
        <time>2014-04-27T11:27:54.93</time>
      </trkpt>
      <trkpt lat="49.32793" lon="2.49528">
        <ele>46.8</ele>
        <time>2014-04-27T11:27:59.93</time>
      </trkpt>
      <trkpt lat="49.32785" lon="2.4953">
        <ele>46.6</ele>
        <time>2014-04-27T11:28:05.93</time>
      </trkpt>
      <trkpt lat="49.32777" lon="2.49532">
        <ele>46.4</ele>
        <time>2014-04-27T11:28:12.93</time>
      </trkpt>
      <trkpt lat="49.3277" lon="2.49534">
        <ele>46.2</ele>
        <time>2014-04-27T11:28:19.93</time>
      </trkpt>
      <trkpt lat="49.32762" lon="2.49536">
        <ele>46</ele>
        <time>2014-04-27T11:28:25.93</time>
      </trkpt>
      <trkpt lat="49.32755" lon="2.49537">
        <ele>45.7</ele>
        <time>2014-04-27T11:28:30.93</time>
      </trkpt>
      <trkpt lat="49.32748" lon="2.49535">
        <ele>45.2</ele>
        <time>2014-04-27T11:28:37.93</time>
      </trkpt>
      <trkpt lat="49.32739" lon="2.49536">
        <ele>45</ele>
        <time>2014-04-27T11:28:44.93</time>
      </trkpt>
      <trkpt lat="49.32731" lon="2.49536">
        <ele>44.7</ele>
        <time>2014-04-27T11:28:50.93</time>
      </trkpt>
      <trkpt lat="49.32724" lon="2.4954">
        <ele>44.5</ele>
        <time>2014-04-27T11:28:56.93</time>
      </trkpt>
      <trkpt lat="49.3272" lon="2.4955">
        <ele>43.8</ele>
        <time>2014-04-27T11:29:02.93</time>
      </trkpt>
      <trkpt lat="49.32717" lon="2.49561">
        <ele>43.4</ele>
        <time>2014-04-27T11:29:07.93</time>
      </trkpt>
      <trkpt lat="49.32715" lon="2.49572">
        <ele>43.4</ele>
        <time>2014-04-27T11:29:13.93</time>
      </trkpt>
      <trkpt lat="49.32709" lon="2.4958">
        <ele>43.5</ele>
        <time>2014-04-27T11:29:20.93</time>
      </trkpt>
      <trkpt lat="49.32705" lon="2.49588">
        <ele>43.5</ele>
        <time>2014-04-27T11:29:27.93</time>
      </trkpt>
      <trkpt lat="49.327" lon="2.49593">
        <ele>43</ele>
        <time>2014-04-27T11:29:34.93</time>
      </trkpt>
      <trkpt lat="49.32697" lon="2.49598">
        <ele>42.8</ele>
        <time>2014-04-27T11:29:41.95</time>
      </trkpt>
      <trkpt lat="49.32695" lon="2.49602">
        <ele>42.7</ele>
        <time>2014-04-27T11:29:48.93</time>
      </trkpt>
      <trkpt lat="49.32693" lon="2.49609">
        <ele>42.8</ele>
        <time>2014-04-27T11:29:55.93</time>
      </trkpt>
      <trkpt lat="49.32694" lon="2.49617">
        <ele>42.6</ele>
        <time>2014-04-27T11:30:02.93</time>
      </trkpt>
      <trkpt lat="49.32693" lon="2.49623">
        <ele>42.6</ele>
        <time>2014-04-27T11:30:09.93</time>
      </trkpt>
      <trkpt lat="49.32692" lon="2.49635">
        <ele>42.3</ele>
        <time>2014-04-27T11:30:15.93</time>
      </trkpt>
      <trkpt lat="49.32685" lon="2.49644">
        <ele>41.9</ele>
        <time>2014-04-27T11:30:21.93</time>
      </trkpt>
      <trkpt lat="49.32679" lon="2.4965">
        <ele>41.8</ele>
        <time>2014-04-27T11:30:27.93</time>
      </trkpt>
      <trkpt lat="49.32672" lon="2.49657">
        <ele>41.6</ele>
        <time>2014-04-27T11:30:33.93</time>
      </trkpt>
      <trkpt lat="49.32669" lon="2.49661">
        <ele>41.5</ele>
        <time>2014-04-27T11:30:40.93</time>
      </trkpt>
      <trkpt lat="49.32666" lon="2.49667">
        <ele>40.7</ele>
        <time>2014-04-27T11:30:47.93</time>
      </trkpt>
      <trkpt lat="49.3266" lon="2.49671">
        <ele>40.3</ele>
        <time>2014-04-27T11:30:54.93</time>
      </trkpt>
      <trkpt lat="49.32653" lon="2.49673">
        <ele>40.3</ele>
        <time>2014-04-27T11:31:01.93</time>
      </trkpt>
      <trkpt lat="49.32645" lon="2.49672">
        <ele>40.4</ele>
        <time>2014-04-27T11:31:07.93</time>
      </trkpt>
      <trkpt lat="49.32639" lon="2.49671">
        <ele>40.2</ele>
        <time>2014-04-27T11:31:14.93</time>
      </trkpt>
      <trkpt lat="49.32636" lon="2.49664">
        <ele>40.3</ele>
        <time>2014-04-27T11:31:21.93</time>
      </trkpt>
      <trkpt lat="49.32635" lon="2.49656">
        <ele>40.5</ele>
        <time>2014-04-27T11:31:28.93</time>
      </trkpt>
      <trkpt lat="49.32631" lon="2.49649">
        <ele>40.3</ele>
        <time>2014-04-27T11:31:35.93</time>
      </trkpt>
      <trkpt lat="49.32627" lon="2.49642">
        <ele>40.3</ele>
        <time>2014-04-27T11:31:42.93</time>
      </trkpt>
      <trkpt lat="49.32624" lon="2.4964">
        <ele>40.5</ele>
        <time>2014-04-27T11:31:49.93</time>
      </trkpt>
      <trkpt lat="49.32625" lon="2.49637">
        <ele>40.3</ele>
        <time>2014-04-27T11:31:54.15</time>
      </trkpt>
      <trkpt lat="49.32626" lon="2.49637">
        <ele>40.3</ele>
        <time>2014-04-27T11:32:00.98</time>
      </trkpt>
      <trkpt lat="49.32619" lon="2.49639">
        <ele>40.5</ele>
        <time>2014-04-27T11:32:02.5</time>
      </trkpt>
      <trkpt lat="49.32614" lon="2.49645">
        <ele>40.3</ele>
        <time>2014-04-27T11:32:08.98</time>
      </trkpt>
      <trkpt lat="49.32607" lon="2.49649">
        <ele>39.9</ele>
        <time>2014-04-27T11:32:14.98</time>
      </trkpt>
      <trkpt lat="49.32604" lon="2.49656">
        <ele>39.8</ele>
        <time>2014-04-27T11:32:21.98</time>
      </trkpt>
      <trkpt lat="49.32603" lon="2.4966">
        <ele>39.7</ele>
        <time>2014-04-27T11:32:28.98</time>
      </trkpt>
      <trkpt lat="49.32598" lon="2.49658">
        <ele>40.3</ele>
        <time>2014-04-27T11:32:33.5</time>
      </trkpt>
      <trkpt lat="49.32611" lon="2.49647">
        <ele>42.3</ele>
        <time>2014-04-27T11:33:12.52</time>
      </trkpt>
      <trkpt lat="49.32603" lon="2.49649">
        <ele>42.3</ele>
        <time>2014-04-27T11:33:19.50</time>
      </trkpt>
      <trkpt lat="49.32598" lon="2.49645">
        <ele>42.3</ele>
        <time>2014-04-27T11:33:26.50</time>
      </trkpt>
      <trkpt lat="49.32594" lon="2.49638">
        <ele>41.9</ele>
        <time>2014-04-27T11:33:33.50</time>
      </trkpt>
      <trkpt lat="49.32589" lon="2.49628">
        <ele>41.6</ele>
        <time>2014-04-27T11:33:39.50</time>
      </trkpt>
      <trkpt lat="49.32586" lon="2.49617">
        <ele>41.3</ele>
        <time>2014-04-27T11:33:43.50</time>
      </trkpt>
      <trkpt lat="49.32582" lon="2.49606">
        <ele>41</ele>
        <time>2014-04-27T11:33:48.50</time>
      </trkpt>
      <trkpt lat="49.32579" lon="2.49596">
        <ele>40.8</ele>
        <time>2014-04-27T11:33:55.51</time>
      </trkpt>
      <trkpt lat="49.32577" lon="2.49584">
        <ele>40.8</ele>
        <time>2014-04-27T11:34:02.50</time>
      </trkpt>
      <trkpt lat="49.32579" lon="2.49572">
        <ele>41</ele>
        <time>2014-04-27T11:34:08.50</time>
      </trkpt>
      <trkpt lat="49.32581" lon="2.49561">
        <ele>41.1</ele>
        <time>2014-04-27T11:34:14.50</time>
      </trkpt>
      <trkpt lat="49.32579" lon="2.4955">
        <ele>41.1</ele>
        <time>2014-04-27T11:34:21.50</time>
      </trkpt>
      <trkpt lat="49.32576" lon="2.4954">
        <ele>41</ele>
        <time>2014-04-27T11:34:28.50</time>
      </trkpt>
      <trkpt lat="49.32576" lon="2.49532">
        <ele>41</ele>
        <time>2014-04-27T11:34:35.50</time>
      </trkpt>
      <trkpt lat="49.32576" lon="2.49521">
        <ele>40.9</ele>
        <time>2014-04-27T11:34:42.50</time>
      </trkpt>
      <trkpt lat="49.32579" lon="2.49514">
        <ele>40.8</ele>
        <time>2014-04-27T11:34:49.50</time>
      </trkpt>
      <trkpt lat="49.32579" lon="2.49509">
        <ele>41</ele>
        <time>2014-04-27T11:34:56.50</time>
      </trkpt>
      <trkpt lat="49.32573" lon="2.49503">
        <ele>42.2</ele>
        <time>2014-04-27T11:35:00.52</time>
      </trkpt>
      <trkpt lat="49.32565" lon="2.49499">
        <ele>41.9</ele>
        <time>2014-04-27T11:35:07.50</time>
      </trkpt>
      <trkpt lat="49.3256" lon="2.49498">
        <ele>41.6</ele>
        <time>2014-04-27T11:35:14.50</time>
      </trkpt>
      <trkpt lat="49.32553" lon="2.49495">
        <ele>41.5</ele>
        <time>2014-04-27T11:35:20.50</time>
      </trkpt>
      <trkpt lat="49.32546" lon="2.49495">
        <ele>41.4</ele>
        <time>2014-04-27T11:35:27.50</time>
      </trkpt>
      <trkpt lat="49.32539" lon="2.49498">
        <ele>41.5</ele>
        <time>2014-04-27T11:35:34.50</time>
      </trkpt>
      <trkpt lat="49.32532" lon="2.49495">
        <ele>41.5</ele>
        <time>2014-04-27T11:35:41.50</time>
      </trkpt>
      <trkpt lat="49.32526" lon="2.4949">
        <ele>41.7</ele>
        <time>2014-04-27T11:35:46.50</time>
      </trkpt>
      <trkpt lat="49.32519" lon="2.49483">
        <ele>42.9</ele>
        <time>2014-04-27T11:35:53.52</time>
      </trkpt>
      <trkpt lat="49.32513" lon="2.49478">
        <ele>43</ele>
        <time>2014-04-27T11:36:00.50</time>
      </trkpt>
      <trkpt lat="49.32507" lon="2.49472">
        <ele>42.9</ele>
        <time>2014-04-27T11:36:07.50</time>
      </trkpt>
      <trkpt lat="49.32502" lon="2.49467">
        <ele>42.8</ele>
        <time>2014-04-27T11:36:14.50</time>
      </trkpt>
      <trkpt lat="49.32497" lon="2.49462">
        <ele>42.7</ele>
        <time>2014-04-27T11:36:21.50</time>
      </trkpt>
      <trkpt lat="49.32493" lon="2.49456">
        <ele>42.6</ele>
        <time>2014-04-27T11:36:28.50</time>
      </trkpt>
      <trkpt lat="49.32487" lon="2.49445">
        <ele>42.6</ele>
        <time>2014-04-27T11:36:33.50</time>
      </trkpt>
      <trkpt lat="49.32482" lon="2.49437">
        <ele>42.4</ele>
        <time>2014-04-27T11:36:36.50</time>
      </trkpt>
      <trkpt lat="49.32477" lon="2.49429">
        <ele>42.4</ele>
        <time>2014-04-27T11:36:40.50</time>
      </trkpt>
      <trkpt lat="49.32475" lon="2.4942">
        <ele>42.3</ele>
        <time>2014-04-27T11:36:47.50</time>
      </trkpt>
      <trkpt lat="49.32473" lon="2.4941">
        <ele>42.2</ele>
        <time>2014-04-27T11:36:54.50</time>
      </trkpt>
      <trkpt lat="49.3247" lon="2.49399">
        <ele>42.4</ele>
        <time>2014-04-27T11:37:00.50</time>
      </trkpt>
      <trkpt lat="49.32468" lon="2.49389">
        <ele>42.4</ele>
        <time>2014-04-27T11:37:06.50</time>
      </trkpt>
      <trkpt lat="49.32467" lon="2.49378">
        <ele>42.3</ele>
        <time>2014-04-27T11:37:13.50</time>
      </trkpt>
      <trkpt lat="49.32468" lon="2.49367">
        <ele>42.3</ele>
        <time>2014-04-27T11:37:20.50</time>
      </trkpt>
      <trkpt lat="49.3247" lon="2.49357">
        <ele>42.3</ele>
        <time>2014-04-27T11:37:27.50</time>
      </trkpt>
      <trkpt lat="49.3247" lon="2.49348">
        <ele>42.2</ele>
        <time>2014-04-27T11:37:34.50</time>
      </trkpt>
      <trkpt lat="49.32468" lon="2.49336">
        <ele>42</ele>
        <time>2014-04-27T11:37:41.50</time>
      </trkpt>
      <trkpt lat="49.32465" lon="2.49325">
        <ele>42.3</ele>
        <time>2014-04-27T11:37:48.50</time>
      </trkpt>
      <trkpt lat="49.32459" lon="2.49317">
        <ele>42.2</ele>
        <time>2014-04-27T11:37:55.50</time>
      </trkpt>
      <trkpt lat="49.32455" lon="2.4931">
        <ele>42.2</ele>
        <time>2014-04-27T11:38:02.50</time>
      </trkpt>
      <trkpt lat="49.32451" lon="2.49299">
        <ele>43.3</ele>
        <time>2014-04-27T11:38:09.50</time>
      </trkpt>
      <trkpt lat="49.32447" lon="2.49294">
        <ele>44.1</ele>
        <time>2014-04-27T11:38:16.50</time>
      </trkpt>
      <trkpt lat="49.32441" lon="2.49289">
        <ele>45</ele>
        <time>2014-04-27T11:38:23.50</time>
      </trkpt>
      <trkpt lat="49.32434" lon="2.49285">
        <ele>45.7</ele>
        <time>2014-04-27T11:38:30.50</time>
      </trkpt>
      <trkpt lat="49.32427" lon="2.49278">
        <ele>46</ele>
        <time>2014-04-27T11:38:36.50</time>
      </trkpt>
      <trkpt lat="49.32421" lon="2.49271">
        <ele>46.6</ele>
        <time>2014-04-27T11:38:43.50</time>
      </trkpt>
      <trkpt lat="49.32415" lon="2.49264">
        <ele>47</ele>
        <time>2014-04-27T11:38:50.50</time>
      </trkpt>
      <trkpt lat="49.32408" lon="2.49257">
        <ele>47.5</ele>
        <time>2014-04-27T11:38:57.50</time>
      </trkpt>
      <trkpt lat="49.32401" lon="2.49251">
        <ele>47.5</ele>
        <time>2014-04-27T11:39:03.50</time>
      </trkpt>
      <trkpt lat="49.32395" lon="2.49246">
        <ele>47.4</ele>
        <time>2014-04-27T11:39:10.50</time>
      </trkpt>
      <trkpt lat="49.3239" lon="2.4924">
        <ele>47.4</ele>
        <time>2014-04-27T11:39:17.50</time>
      </trkpt>
      <trkpt lat="49.32389" lon="2.49238">
        <ele>47.3</ele>
        <time>2014-04-27T11:39:24.50</time>
      </trkpt>
      <trkpt lat="49.32387" lon="2.49243">
        <ele>46.9</ele>
        <time>2014-04-27T11:39:31.50</time>
      </trkpt>
      <trkpt lat="49.32383" lon="2.49252">
        <ele>46.7</ele>
        <time>2014-04-27T11:39:38.50</time>
      </trkpt>
      <trkpt lat="49.3238" lon="2.49263">
        <ele>46.3</ele>
        <time>2014-04-27T11:39:45.50</time>
      </trkpt>
      <trkpt lat="49.32375" lon="2.49273">
        <ele>46</ele>
        <time>2014-04-27T11:39:52.50</time>
      </trkpt>
      <trkpt lat="49.32371" lon="2.49283">
        <ele>45.8</ele>
        <time>2014-04-27T11:39:58.50</time>
      </trkpt>
      <trkpt lat="49.32368" lon="2.49291">
        <ele>45.6</ele>
        <time>2014-04-27T11:40:05.50</time>
      </trkpt>
      <trkpt lat="49.32365" lon="2.49301">
        <ele>45.6</ele>
        <time>2014-04-27T11:40:12.50</time>
      </trkpt>
      <trkpt lat="49.32361" lon="2.4931">
        <ele>45.4</ele>
        <time>2014-04-27T11:40:19.50</time>
      </trkpt>
      <trkpt lat="49.32357" lon="2.49321">
        <ele>45.1</ele>
        <time>2014-04-27T11:40:26.50</time>
      </trkpt>
      <trkpt lat="49.32352" lon="2.49332">
        <ele>44.9</ele>
        <time>2014-04-27T11:40:32.50</time>
      </trkpt>
      <trkpt lat="49.32349" lon="2.49341">
        <ele>44.7</ele>
        <time>2014-04-27T11:40:38.50</time>
      </trkpt>
      <trkpt lat="49.32345" lon="2.49352">
        <ele>44.7</ele>
        <time>2014-04-27T11:40:43.50</time>
      </trkpt>
      <trkpt lat="49.32343" lon="2.49363">
        <ele>44.8</ele>
        <time>2014-04-27T11:40:48.50</time>
      </trkpt>
      <trkpt lat="49.32344" lon="2.49374">
        <ele>44.9</ele>
        <time>2014-04-27T11:40:54.50</time>
      </trkpt>
      <trkpt lat="49.32343" lon="2.49387">
        <ele>45.1</ele>
        <time>2014-04-27T11:41:01.51</time>
      </trkpt>
      <trkpt lat="49.32342" lon="2.494">
        <ele>45.7</ele>
        <time>2014-04-27T11:41:06.64</time>
      </trkpt>
      <trkpt lat="49.32343" lon="2.49411">
        <ele>46.6</ele>
        <time>2014-04-27T11:41:11.50</time>
      </trkpt>
      <trkpt lat="49.32341" lon="2.49417">
        <ele>47.6</ele>
        <time>2014-04-27T11:41:18.50</time>
      </trkpt>
      <trkpt lat="49.32338" lon="2.49426">
        <ele>48.2</ele>
        <time>2014-04-27T11:41:25.50</time>
      </trkpt>
      <trkpt lat="49.32335" lon="2.49437">
        <ele>48.7</ele>
        <time>2014-04-27T11:41:32.50</time>
      </trkpt>
      <trkpt lat="49.32333" lon="2.49448">
        <ele>49.1</ele>
        <time>2014-04-27T11:41:39.50</time>
      </trkpt>
      <trkpt lat="49.3233" lon="2.49459">
        <ele>49</ele>
        <time>2014-04-27T11:41:44.50</time>
      </trkpt>
      <trkpt lat="49.32328" lon="2.49464">
        <ele>48.8</ele>
        <time>2014-04-27T11:41:51.50</time>
      </trkpt>
      <trkpt lat="49.32323" lon="2.49475">
        <ele>48.5</ele>
        <time>2014-04-27T11:41:58.50</time>
      </trkpt>
      <trkpt lat="49.3232" lon="2.49485">
        <ele>48.4</ele>
        <time>2014-04-27T11:42:05.50</time>
      </trkpt>
      <trkpt lat="49.32314" lon="2.49493">
        <ele>48.2</ele>
        <time>2014-04-27T11:42:11.52</time>
      </trkpt>
      <trkpt lat="49.32308" lon="2.495">
        <ele>47.9</ele>
        <time>2014-04-27T11:42:17.50</time>
      </trkpt>
      <trkpt lat="49.32302" lon="2.49509">
        <ele>47.7</ele>
        <time>2014-04-27T11:42:24.50</time>
      </trkpt>
      <trkpt lat="49.32296" lon="2.49516">
        <ele>47.5</ele>
        <time>2014-04-27T11:42:31.50</time>
      </trkpt>
      <trkpt lat="49.32289" lon="2.49522">
        <ele>47.2</ele>
        <time>2014-04-27T11:42:38.50</time>
      </trkpt>
      <trkpt lat="49.32282" lon="2.49528">
        <ele>47</ele>
        <time>2014-04-27T11:42:44.50</time>
      </trkpt>
      <trkpt lat="49.32277" lon="2.49536">
        <ele>46.8</ele>
        <time>2014-04-27T11:42:50.50</time>
      </trkpt>
      <trkpt lat="49.32271" lon="2.49543">
        <ele>46.5</ele>
        <time>2014-04-27T11:42:56.50</time>
      </trkpt>
      <trkpt lat="49.32264" lon="2.4955">
        <ele>46.3</ele>
        <time>2014-04-27T11:43:02.50</time>
      </trkpt>
      <trkpt lat="49.3226" lon="2.49555">
        <ele>47.1</ele>
        <time>2014-04-27T11:43:09.50</time>
      </trkpt>
      <trkpt lat="49.32255" lon="2.4956">
        <ele>47.8</ele>
        <time>2014-04-27T11:43:16.50</time>
      </trkpt>
      <trkpt lat="49.32249" lon="2.49566">
        <ele>48.2</ele>
        <time>2014-04-27T11:43:23.55</time>
      </trkpt>
      <trkpt lat="49.32244" lon="2.49571">
        <ele>48.8</ele>
        <time>2014-04-27T11:43:30.50</time>
      </trkpt>
      <trkpt lat="49.32239" lon="2.49579">
        <ele>48.9</ele>
        <time>2014-04-27T11:43:37.50</time>
      </trkpt>
      <trkpt lat="49.32233" lon="2.49585">
        <ele>49.2</ele>
        <time>2014-04-27T11:43:43.50</time>
      </trkpt>
      <trkpt lat="49.32228" lon="2.49594">
        <ele>49.7</ele>
        <time>2014-04-27T11:43:49.50</time>
      </trkpt>
      <trkpt lat="49.3222" lon="2.49599">
        <ele>50.3</ele>
        <time>2014-04-27T11:43:56.50</time>
      </trkpt>
      <trkpt lat="49.32214" lon="2.49605">
        <ele>50.7</ele>
        <time>2014-04-27T11:44:02.50</time>
      </trkpt>
      <trkpt lat="49.32207" lon="2.49612">
        <ele>51.1</ele>
        <time>2014-04-27T11:44:09.50</time>
      </trkpt>
      <trkpt lat="49.322" lon="2.49615">
        <ele>51.3</ele>
        <time>2014-04-27T11:44:15.50</time>
      </trkpt>
      <trkpt lat="49.32194" lon="2.49623">
        <ele>51.4</ele>
        <time>2014-04-27T11:44:20.50</time>
      </trkpt>
      <trkpt lat="49.32189" lon="2.49631">
        <ele>51.5</ele>
        <time>2014-04-27T11:44:27.50</time>
      </trkpt>
      <trkpt lat="49.32183" lon="2.49637">
        <ele>51.6</ele>
        <time>2014-04-27T11:44:33.50</time>
      </trkpt>
      <trkpt lat="49.32178" lon="2.49642">
        <ele>51.8</ele>
        <time>2014-04-27T11:44:40.50</time>
      </trkpt>
      <trkpt lat="49.32173" lon="2.4965">
        <ele>52</ele>
        <time>2014-04-27T11:44:47.50</time>
      </trkpt>
      <trkpt lat="49.32168" lon="2.49657">
        <ele>51.8</ele>
        <time>2014-04-27T11:44:54.50</time>
      </trkpt>
      <trkpt lat="49.32161" lon="2.49657">
        <ele>51.6</ele>
        <time>2014-04-27T11:45:01.50</time>
      </trkpt>
      <trkpt lat="49.32156" lon="2.4966">
        <ele>51</ele>
        <time>2014-04-27T11:45:08.50</time>
      </trkpt>
      <trkpt lat="49.32151" lon="2.49666">
        <ele>50.5</ele>
        <time>2014-04-27T11:45:15.50</time>
      </trkpt>
      <trkpt lat="49.32146" lon="2.49672">
        <ele>50.2</ele>
        <time>2014-04-27T11:45:22.50</time>
      </trkpt>
      <trkpt lat="49.32143" lon="2.49679">
        <ele>49.3</ele>
        <time>2014-04-27T11:45:29.51</time>
      </trkpt>
      <trkpt lat="49.32138" lon="2.49686">
        <ele>48.7</ele>
        <time>2014-04-27T11:45:36.50</time>
      </trkpt>
      <trkpt lat="49.32132" lon="2.49694">
        <ele>48.2</ele>
        <time>2014-04-27T11:45:43.50</time>
      </trkpt>
      <trkpt lat="49.3213" lon="2.497">
        <ele>47.8</ele>
        <time>2014-04-27T11:45:50.50</time>
      </trkpt>
      <trkpt lat="49.32124" lon="2.49707">
        <ele>46.9</ele>
        <time>2014-04-27T11:45:56.50</time>
      </trkpt>
      <trkpt lat="49.32121" lon="2.49711">
        <ele>46.3</ele>
        <time>2014-04-27T11:46:03.50</time>
      </trkpt>
      <trkpt lat="49.32114" lon="2.49715">
        <ele>45.9</ele>
        <time>2014-04-27T11:46:10.50</time>
      </trkpt>
      <trkpt lat="49.32107" lon="2.49714">
        <ele>45.5</ele>
        <time>2014-04-27T11:46:17.50</time>
      </trkpt>
      <trkpt lat="49.321" lon="2.49716">
        <ele>45.4</ele>
        <time>2014-04-27T11:46:22.50</time>
      </trkpt>
      <trkpt lat="49.32095" lon="2.49719">
        <ele>45.1</ele>
        <time>2014-04-27T11:46:29.50</time>
      </trkpt>
      <trkpt lat="49.32096" lon="2.49723">
        <ele>45.6</ele>
        <time>2014-04-27T11:46:36.50</time>
      </trkpt>
      <trkpt lat="49.32092" lon="2.4973">
        <ele>45.5</ele>
        <time>2014-04-27T11:46:43.50</time>
      </trkpt>
      <trkpt lat="49.32086" lon="2.49737">
        <ele>45.3</ele>
        <time>2014-04-27T11:46:48.50</time>
      </trkpt>
      <trkpt lat="49.32078" lon="2.49741">
        <ele>45</ele>
        <time>2014-04-27T11:46:53.50</time>
      </trkpt>
      <trkpt lat="49.32071" lon="2.49748">
        <ele>44.8</ele>
        <time>2014-04-27T11:46:58.50</time>
      </trkpt>
      <trkpt lat="49.32065" lon="2.49754">
        <ele>44.6</ele>
        <time>2014-04-27T11:47:04.52</time>
      </trkpt>
      <trkpt lat="49.32059" lon="2.49759">
        <ele>44.9</ele>
        <time>2014-04-27T11:47:11.50</time>
      </trkpt>
      <trkpt lat="49.32052" lon="2.49765">
        <ele>44.7</ele>
        <time>2014-04-27T11:47:18.50</time>
      </trkpt>
      <trkpt lat="49.32046" lon="2.49769">
        <ele>44.7</ele>
        <time>2014-04-27T11:47:25.50</time>
      </trkpt>
      <trkpt lat="49.32041" lon="2.49775">
        <ele>44.9</ele>
        <time>2014-04-27T11:47:32.50</time>
      </trkpt>
      <trkpt lat="49.32036" lon="2.49784">
        <ele>45.4</ele>
        <time>2014-04-27T11:47:39.50</time>
      </trkpt>
      <trkpt lat="49.32029" lon="2.49791">
        <ele>45.8</ele>
        <time>2014-04-27T11:47:46.50</time>
      </trkpt>
      <trkpt lat="49.32023" lon="2.49798">
        <ele>46.1</ele>
        <time>2014-04-27T11:47:53.50</time>
      </trkpt>
      <trkpt lat="49.32016" lon="2.49801">
        <ele>46.3</ele>
        <time>2014-04-27T11:47:58.50</time>
      </trkpt>
      <trkpt lat="49.32011" lon="2.49807">
        <ele>46.5</ele>
        <time>2014-04-27T11:48:05.50</time>
      </trkpt>
      <trkpt lat="49.32005" lon="2.49815">
        <ele>47.2</ele>
        <time>2014-04-27T11:48:12.50</time>
      </trkpt>
      <trkpt lat="49.31999" lon="2.49822">
        <ele>47.5</ele>
        <time>2014-04-27T11:48:18.50</time>
      </trkpt>
      <trkpt lat="49.31993" lon="2.4983">
        <ele>47.9</ele>
        <time>2014-04-27T11:48:24.50</time>
      </trkpt>
      <trkpt lat="49.31987" lon="2.49836">
        <ele>48.1</ele>
        <time>2014-04-27T11:48:30.50</time>
      </trkpt>
      <trkpt lat="49.31981" lon="2.49842">
        <ele>48.3</ele>
        <time>2014-04-27T11:48:36.50</time>
      </trkpt>
      <trkpt lat="49.31973" lon="2.49848">
        <ele>48.6</ele>
        <time>2014-04-27T11:48:43.50</time>
      </trkpt>
      <trkpt lat="49.31967" lon="2.49853">
        <ele>48.8</ele>
        <time>2014-04-27T11:48:49.50</time>
      </trkpt>
      <trkpt lat="49.3196" lon="2.49861">
        <ele>48.9</ele>
        <time>2014-04-27T11:48:56.50</time>
      </trkpt>
      <trkpt lat="49.31953" lon="2.49866">
        <ele>49.2</ele>
        <time>2014-04-27T11:49:02.50</time>
      </trkpt>
      <trkpt lat="49.31946" lon="2.49871">
        <ele>49.4</ele>
        <time>2014-04-27T11:49:08.50</time>
      </trkpt>
      <trkpt lat="49.3194" lon="2.49878">
        <ele>49.5</ele>
        <time>2014-04-27T11:49:15.50</time>
      </trkpt>
      <trkpt lat="49.31933" lon="2.49885">
        <ele>49.6</ele>
        <time>2014-04-27T11:49:22.50</time>
      </trkpt>
      <trkpt lat="49.31925" lon="2.49888">
        <ele>49.6</ele>
        <time>2014-04-27T11:49:28.50</time>
      </trkpt>
      <trkpt lat="49.31918" lon="2.49893">
        <ele>49.5</ele>
        <time>2014-04-27T11:49:35.50</time>
      </trkpt>
      <trkpt lat="49.31911" lon="2.49898">
        <ele>49.6</ele>
        <time>2014-04-27T11:49:42.50</time>
      </trkpt>
      <trkpt lat="49.31905" lon="2.49904">
        <ele>49.5</ele>
        <time>2014-04-27T11:49:47.50</time>
      </trkpt>
      <trkpt lat="49.31898" lon="2.4991">
        <ele>49.3</ele>
        <time>2014-04-27T11:49:54.50</time>
      </trkpt>
      <trkpt lat="49.31891" lon="2.49917">
        <ele>49.2</ele>
        <time>2014-04-27T11:50:01.50</time>
      </trkpt>
      <trkpt lat="49.31884" lon="2.49922">
        <ele>49.3</ele>
        <time>2014-04-27T11:50:08.50</time>
      </trkpt>
      <trkpt lat="49.31877" lon="2.49928">
        <ele>49.4</ele>
        <time>2014-04-27T11:50:14.50</time>
      </trkpt>
      <trkpt lat="49.31871" lon="2.49933">
        <ele>49.4</ele>
        <time>2014-04-27T11:50:20.50</time>
      </trkpt>
      <trkpt lat="49.31864" lon="2.49941">
        <ele>49.2</ele>
        <time>2014-04-27T11:50:27.50</time>
      </trkpt>
      <trkpt lat="49.31858" lon="2.49946">
        <ele>48.9</ele>
        <time>2014-04-27T11:50:32.50</time>
      </trkpt>
      <trkpt lat="49.31851" lon="2.4995">
        <ele>48.8</ele>
        <time>2014-04-27T11:50:39.50</time>
      </trkpt>
      <trkpt lat="49.31843" lon="2.49952">
        <ele>48.5</ele>
        <time>2014-04-27T11:50:45.50</time>
      </trkpt>
      <trkpt lat="49.31835" lon="2.49953">
        <ele>48.4</ele>
        <time>2014-04-27T11:50:52.50</time>
      </trkpt>
      <trkpt lat="49.31828" lon="2.49956">
        <ele>48.3</ele>
        <time>2014-04-27T11:50:58.50</time>
      </trkpt>
      <trkpt lat="49.31821" lon="2.49963">
        <ele>48.3</ele>
        <time>2014-04-27T11:51:04.50</time>
      </trkpt>
      <trkpt lat="49.31814" lon="2.49966">
        <ele>48.2</ele>
        <time>2014-04-27T11:51:10.50</time>
      </trkpt>
      <trkpt lat="49.31807" lon="2.49971">
        <ele>48</ele>
        <time>2014-04-27T11:51:16.50</time>
      </trkpt>
      <trkpt lat="49.31799" lon="2.49974">
        <ele>47.9</ele>
        <time>2014-04-27T11:51:22.53</time>
      </trkpt>
      <trkpt lat="49.31792" lon="2.49975">
        <ele>48</ele>
        <time>2014-04-27T11:51:29.50</time>
      </trkpt>
      <trkpt lat="49.31783" lon="2.49977">
        <ele>47.6</ele>
        <time>2014-04-27T11:51:36.50</time>
      </trkpt>
      <trkpt lat="49.31776" lon="2.4998">
        <ele>47.6</ele>
        <time>2014-04-27T11:51:43.50</time>
      </trkpt>
      <trkpt lat="49.31769" lon="2.49983">
        <ele>47.3</ele>
        <time>2014-04-27T11:51:49.50</time>
      </trkpt>
      <trkpt lat="49.31761" lon="2.49985">
        <ele>47</ele>
        <time>2014-04-27T11:51:56.50</time>
      </trkpt>
      <trkpt lat="49.31754" lon="2.49987">
        <ele>46.9</ele>
        <time>2014-04-27T11:52:03.51</time>
      </trkpt>
      <trkpt lat="49.31747" lon="2.49992">
        <ele>46.5</ele>
        <time>2014-04-27T11:52:09.50</time>
      </trkpt>
      <trkpt lat="49.31741" lon="2.5">
        <ele>46.3</ele>
        <time>2014-04-27T11:52:15.50</time>
      </trkpt>
      <trkpt lat="49.31738" lon="2.50012">
        <ele>45.5</ele>
        <time>2014-04-27T11:52:22.50</time>
      </trkpt>
      <trkpt lat="49.31739" lon="2.50025">
        <ele>45</ele>
        <time>2014-04-27T11:52:28.50</time>
      </trkpt>
      <trkpt lat="49.31744" lon="2.50034">
        <ele>44.5</ele>
        <time>2014-04-27T11:52:34.50</time>
      </trkpt>
      <trkpt lat="49.31747" lon="2.50045">
        <ele>43.9</ele>
        <time>2014-04-27T11:52:40.50</time>
      </trkpt>
      <trkpt lat="49.31752" lon="2.50056">
        <ele>43.2</ele>
        <time>2014-04-27T11:52:47.51</time>
      </trkpt>
      <trkpt lat="49.31756" lon="2.50065">
        <ele>42.6</ele>
        <time>2014-04-27T11:52:54.50</time>
      </trkpt>
      <trkpt lat="49.31759" lon="2.50076">
        <ele>42</ele>
        <time>2014-04-27T11:53:00.50</time>
      </trkpt>
      <trkpt lat="49.31762" lon="2.50086">
        <ele>41.4</ele>
        <time>2014-04-27T11:53:06.49</time>
      </trkpt>
      <trkpt lat="49.31766" lon="2.50096">
        <ele>40.8</ele>
        <time>2014-04-27T11:53:12.50</time>
      </trkpt>
      <trkpt lat="49.31769" lon="2.50106">
        <ele>40.2</ele>
        <time>2014-04-27T11:53:18.50</time>
      </trkpt>
      <trkpt lat="49.31774" lon="2.50117">
        <ele>39.4</ele>
        <time>2014-04-27T11:53:25.50</time>
      </trkpt>
      <trkpt lat="49.31779" lon="2.50125">
        <ele>39</ele>
        <time>2014-04-27T11:53:31.50</time>
      </trkpt>
      <trkpt lat="49.31784" lon="2.50134">
        <ele>38.4</ele>
        <time>2014-04-27T11:53:38.49</time>
      </trkpt>
      <trkpt lat="49.31789" lon="2.50143">
        <ele>37.7</ele>
        <time>2014-04-27T11:53:44.50</time>
      </trkpt>
      <trkpt lat="49.31795" lon="2.50152">
        <ele>37.1</ele>
        <time>2014-04-27T11:53:50.50</time>
      </trkpt>
      <trkpt lat="49.31798" lon="2.50162">
        <ele>36.6</ele>
        <time>2014-04-27T11:53:56.49</time>
      </trkpt>
      <trkpt lat="49.31803" lon="2.50172">
        <ele>36.2</ele>
        <time>2014-04-27T11:54:02.49</time>
      </trkpt>
      <trkpt lat="49.31807" lon="2.5018">
        <ele>35.7</ele>
        <time>2014-04-27T11:54:09.49</time>
      </trkpt>
      <trkpt lat="49.31811" lon="2.5019">
        <ele>35.2</ele>
        <time>2014-04-27T11:54:16.50</time>
      </trkpt>
      <trkpt lat="49.31815" lon="2.502">
        <ele>34.8</ele>
        <time>2014-04-27T11:54:22.49</time>
      </trkpt>
      <trkpt lat="49.31817" lon="2.50212">
        <ele>34.5</ele>
        <time>2014-04-27T11:54:28.49</time>
      </trkpt>
      <trkpt lat="49.31819" lon="2.50223">
        <ele>34</ele>
        <time>2014-04-27T11:54:35.50</time>
      </trkpt>
      <trkpt lat="49.31823" lon="2.50233">
        <ele>33.7</ele>
        <time>2014-04-27T11:54:40.49</time>
      </trkpt>
      <trkpt lat="49.31825" lon="2.50244">
        <ele>33.1</ele>
        <time>2014-04-27T11:54:47.51</time>
      </trkpt>
      <trkpt lat="49.31828" lon="2.50254">
        <ele>32.6</ele>
        <time>2014-04-27T11:54:54.49</time>
      </trkpt>
      <trkpt lat="49.3183" lon="2.50262">
        <ele>32.3</ele>
        <time>2014-04-27T11:55:01.50</time>
      </trkpt>
      <trkpt lat="49.31827" lon="2.50267">
        <ele>31.8</ele>
        <time>2014-04-27T11:55:08.49</time>
      </trkpt>
      <trkpt lat="49.31821" lon="2.50274">
        <ele>31.3</ele>
        <time>2014-04-27T11:55:15.49</time>
      </trkpt>
      <trkpt lat="49.31814" lon="2.50282">
        <ele>30.9</ele>
        <time>2014-04-27T11:55:21.49</time>
      </trkpt>
      <trkpt lat="49.31808" lon="2.5029">
        <ele>30.6</ele>
        <time>2014-04-27T11:55:26.49</time>
      </trkpt>
      <trkpt lat="49.31804" lon="2.50296">
        <ele>30.1</ele>
        <time>2014-04-27T11:55:33.53</time>
      </trkpt>
      <trkpt lat="49.31798" lon="2.50303">
        <ele>29.7</ele>
        <time>2014-04-27T11:55:40.49</time>
      </trkpt>
      <trkpt lat="49.31791" lon="2.5031">
        <ele>29.1</ele>
        <time>2014-04-27T11:55:47.50</time>
      </trkpt>
      <trkpt lat="49.31783" lon="2.50315">
        <ele>28.8</ele>
        <time>2014-04-27T11:55:53.51</time>
      </trkpt>
      <trkpt lat="49.31777" lon="2.50324">
        <ele>28.3</ele>
        <time>2014-04-27T11:56:00.49</time>
      </trkpt>
      <trkpt lat="49.31773" lon="2.5033">
        <ele>27.8</ele>
        <time>2014-04-27T11:56:07.50</time>
      </trkpt>
      <trkpt lat="49.31766" lon="2.50335">
        <ele>27.4</ele>
        <time>2014-04-27T11:56:14.49</time>
      </trkpt>
      <trkpt lat="49.31758" lon="2.50339">
        <ele>26.8</ele>
        <time>2014-04-27T11:56:21.49</time>
      </trkpt>
      <trkpt lat="49.31751" lon="2.50344">
        <ele>26.4</ele>
        <time>2014-04-27T11:56:27.50</time>
      </trkpt>
      <trkpt lat="49.31743" lon="2.50346">
        <ele>26.3</ele>
        <time>2014-04-27T11:56:33.49</time>
      </trkpt>
      <trkpt lat="49.31736" lon="2.50354">
        <ele>25.8</ele>
        <time>2014-04-27T11:56:40.49</time>
      </trkpt>
      <trkpt lat="49.31729" lon="2.50358">
        <ele>25.5</ele>
        <time>2014-04-27T11:56:46.50</time>
      </trkpt>
      <trkpt lat="49.31723" lon="2.50366">
        <ele>25.1</ele>
        <time>2014-04-27T11:56:52.49</time>
      </trkpt>
      <trkpt lat="49.31716" lon="2.5037">
        <ele>24.7</ele>
        <time>2014-04-27T11:56:58.49</time>
      </trkpt>
      <trkpt lat="49.31712" lon="2.50375">
        <ele>24.3</ele>
        <time>2014-04-27T11:57:05.50</time>
      </trkpt>
      <trkpt lat="49.31705" lon="2.50381">
        <ele>23.9</ele>
        <time>2014-04-27T11:57:11.50</time>
      </trkpt>
      <trkpt lat="49.31699" lon="2.50386">
        <ele>23.5</ele>
        <time>2014-04-27T11:57:17.50</time>
      </trkpt>
      <trkpt lat="49.31693" lon="2.50393">
        <ele>23.3</ele>
        <time>2014-04-27T11:57:22.50</time>
      </trkpt>
      <trkpt lat="49.31685" lon="2.50399">
        <ele>23.1</ele>
        <time>2014-04-27T11:57:28.49</time>
      </trkpt>
      <trkpt lat="49.31677" lon="2.50401">
        <ele>22.9</ele>
        <time>2014-04-27T11:57:33.49</time>
      </trkpt>
      <trkpt lat="49.3167" lon="2.50405">
        <ele>22.7</ele>
        <time>2014-04-27T11:57:40.49</time>
      </trkpt>
      <trkpt lat="49.31662" lon="2.5041">
        <ele>22.4</ele>
        <time>2014-04-27T11:57:47.51</time>
      </trkpt>
      <trkpt lat="49.31655" lon="2.50415">
        <ele>22.2</ele>
        <time>2014-04-27T11:57:53.50</time>
      </trkpt>
      <trkpt lat="49.31647" lon="2.5042">
        <ele>22.2</ele>
        <time>2014-04-27T11:57:59.50</time>
      </trkpt>
      <trkpt lat="49.31641" lon="2.50419">
        <ele>22</ele>
        <time>2014-04-27T11:58:06.49</time>
      </trkpt>
      <trkpt lat="49.31638" lon="2.50423">
        <ele>22.5</ele>
        <time>2014-04-27T11:58:13.49</time>
      </trkpt>
      <trkpt lat="49.31635" lon="2.50423">
        <ele>23.1</ele>
        <time>2014-04-27T11:58:20.53</time>
      </trkpt>
      <trkpt lat="49.31633" lon="2.50429">
        <ele>26.7</ele>
        <time>2014-04-27T11:58:25.55</time>
      </trkpt>
      <trkpt lat="49.31626" lon="2.5043">
        <ele>26.7</ele>
        <time>2014-04-27T11:58:32.53</time>
      </trkpt>
      <trkpt lat="49.31622" lon="2.5043">
        <ele>26.7</ele>
        <time>2014-04-27T11:58:39.53</time>
      </trkpt>
      <trkpt lat="49.31617" lon="2.50427">
        <ele>26.7</ele>
        <time>2014-04-27T11:58:46.53</time>
      </trkpt>
      <trkpt lat="49.31613" lon="2.50427">
        <ele>26.7</ele>
        <time>2014-04-27T11:58:53.53</time>
      </trkpt>
      <trkpt lat="49.31605" lon="2.50431">
        <ele>26.7</ele>
        <time>2014-04-27T11:58:59.59</time>
      </trkpt>
      <trkpt lat="49.31598" lon="2.50435">
        <ele>26.7</ele>
        <time>2014-04-27T11:59:03.53</time>
      </trkpt>
      <trkpt lat="49.3159" lon="2.50436">
        <ele>26.6</ele>
        <time>2014-04-27T11:59:08.55</time>
      </trkpt>
      <trkpt lat="49.31582" lon="2.50438">
        <ele>26.6</ele>
        <time>2014-04-27T11:59:15.53</time>
      </trkpt>
      <trkpt lat="49.31576" lon="2.50439">
        <ele>26.8</ele>
        <time>2014-04-27T11:59:22.53</time>
      </trkpt>
      <trkpt lat="49.31569" lon="2.5044">
        <ele>26.8</ele>
        <time>2014-04-27T11:59:29.53</time>
      </trkpt>
      <trkpt lat="49.31561" lon="2.50438">
        <ele>26.7</ele>
        <time>2014-04-27T11:59:36.53</time>
      </trkpt>
      <trkpt lat="49.31554" lon="2.50436">
        <ele>26.6</ele>
        <time>2014-04-27T11:59:43.53</time>
      </trkpt>
      <trkpt lat="49.31546" lon="2.50435">
        <ele>26.5</ele>
        <time>2014-04-27T11:59:50.53</time>
      </trkpt>
      <trkpt lat="49.31539" lon="2.50431">
        <ele>26.5</ele>
        <time>2014-04-27T11:59:57.53</time>
      </trkpt>
      <trkpt lat="49.31531" lon="2.50429">
        <ele>26.4</ele>
        <time>2014-04-27T12:00:03.53</time>
      </trkpt>
      <trkpt lat="49.31524" lon="2.50426">
        <ele>26.4</ele>
        <time>2014-04-27T12:00:09.53</time>
      </trkpt>
      <trkpt lat="49.31516" lon="2.50422">
        <ele>26.7</ele>
        <time>2014-04-27T12:00:15.53</time>
      </trkpt>
      <trkpt lat="49.3151" lon="2.50416">
        <ele>26.8</ele>
        <time>2014-04-27T12:00:20.53</time>
      </trkpt>
      <trkpt lat="49.31503" lon="2.50411">
        <ele>26.8</ele>
        <time>2014-04-27T12:00:25.53</time>
      </trkpt>
      <trkpt lat="49.31497" lon="2.50405">
        <ele>26.7</ele>
        <time>2014-04-27T12:00:32.53</time>
      </trkpt>
      <trkpt lat="49.31491" lon="2.50401">
        <ele>26.6</ele>
        <time>2014-04-27T12:00:39.53</time>
      </trkpt>
      <trkpt lat="49.31483" lon="2.50398">
        <ele>26.5</ele>
        <time>2014-04-27T12:00:46.53</time>
      </trkpt>
      <trkpt lat="49.31476" lon="2.50393">
        <ele>26.7</ele>
        <time>2014-04-27T12:00:52.53</time>
      </trkpt>
      <trkpt lat="49.31469" lon="2.50392">
        <ele>26.8</ele>
        <time>2014-04-27T12:00:58.53</time>
      </trkpt>
      <trkpt lat="49.31462" lon="2.50391">
        <ele>26.7</ele>
        <time>2014-04-27T12:01:05.53</time>
      </trkpt>
      <trkpt lat="49.31456" lon="2.5039">
        <ele>26.5</ele>
        <time>2014-04-27T12:01:12.53</time>
      </trkpt>
      <trkpt lat="49.31449" lon="2.50385">
        <ele>26.3</ele>
        <time>2014-04-27T12:01:19.53</time>
      </trkpt>
      <trkpt lat="49.31442" lon="2.50386">
        <ele>26.2</ele>
        <time>2014-04-27T12:01:25.53</time>
      </trkpt>
      <trkpt lat="49.31434" lon="2.50385">
        <ele>25.9</ele>
        <time>2014-04-27T12:01:31.53</time>
      </trkpt>
      <trkpt lat="49.31426" lon="2.50386">
        <ele>25.7</ele>
        <time>2014-04-27T12:01:37.53</time>
      </trkpt>
      <trkpt lat="49.31419" lon="2.50386">
        <ele>25.4</ele>
        <time>2014-04-27T12:01:44.53</time>
      </trkpt>
      <trkpt lat="49.31412" lon="2.50386">
        <ele>25.2</ele>
        <time>2014-04-27T12:01:51.53</time>
      </trkpt>
      <trkpt lat="49.31405" lon="2.50385">
        <ele>25</ele>
        <time>2014-04-27T12:01:58.53</time>
      </trkpt>
      <trkpt lat="49.31397" lon="2.50385">
        <ele>25</ele>
        <time>2014-04-27T12:02:05.53</time>
      </trkpt>
      <trkpt lat="49.31389" lon="2.50384">
        <ele>24.9</ele>
        <time>2014-04-27T12:02:12.53</time>
      </trkpt>
      <trkpt lat="49.31382" lon="2.50387">
        <ele>24.3</ele>
        <time>2014-04-27T12:02:19.53</time>
      </trkpt>
      <trkpt lat="49.31376" lon="2.50391">
        <ele>23.8</ele>
        <time>2014-04-27T12:02:26.53</time>
      </trkpt>
      <trkpt lat="49.31369" lon="2.50392">
        <ele>23.7</ele>
        <time>2014-04-27T12:02:32.55</time>
      </trkpt>
      <trkpt lat="49.31361" lon="2.50399">
        <ele>23.4</ele>
        <time>2014-04-27T12:02:38.53</time>
      </trkpt>
      <trkpt lat="49.31354" lon="2.50401">
        <ele>23.7</ele>
        <time>2014-04-27T12:02:44.53</time>
      </trkpt>
      <trkpt lat="49.31345" lon="2.50403">
        <ele>23.5</ele>
        <time>2014-04-27T12:02:51.53</time>
      </trkpt>
      <trkpt lat="49.31338" lon="2.50403">
        <ele>23.2</ele>
        <time>2014-04-27T12:02:58.58</time>
      </trkpt>
      <trkpt lat="49.31329" lon="2.50403">
        <ele>23.2</ele>
        <time>2014-04-27T12:03:03.53</time>
      </trkpt>
      <trkpt lat="49.31321" lon="2.50401">
        <ele>23.2</ele>
        <time>2014-04-27T12:03:09.53</time>
      </trkpt>
      <trkpt lat="49.31313" lon="2.50401">
        <ele>22.9</ele>
        <time>2014-04-27T12:03:14.53</time>
      </trkpt>
      <trkpt lat="49.31305" lon="2.50403">
        <ele>22.8</ele>
        <time>2014-04-27T12:03:19.53</time>
      </trkpt>
      <trkpt lat="49.31298" lon="2.50404">
        <ele>22.6</ele>
        <time>2014-04-27T12:03:24.53</time>
      </trkpt>
      <trkpt lat="49.3129" lon="2.50405">
        <ele>22.8</ele>
        <time>2014-04-27T12:03:30.53</time>
      </trkpt>
      <trkpt lat="49.31285" lon="2.50398">
        <ele>22.8</ele>
        <time>2014-04-27T12:03:37.53</time>
      </trkpt>
      <trkpt lat="49.31281" lon="2.50388">
        <ele>22.9</ele>
        <time>2014-04-27T12:03:43.53</time>
      </trkpt>
      <trkpt lat="49.3128" lon="2.50381">
        <ele>23.2</ele>
        <time>2014-04-27T12:03:50.53</time>
      </trkpt>
      <trkpt lat="49.31277" lon="2.50375">
        <ele>23.7</ele>
        <time>2014-04-27T12:03:57.53</time>
      </trkpt>
      <trkpt lat="49.31275" lon="2.50371">
        <ele>24.2</ele>
        <time>2014-04-27T12:04:04.53</time>
      </trkpt>
      <trkpt lat="49.31271" lon="2.50365">
        <ele>24.5</ele>
        <time>2014-04-27T12:04:11.53</time>
      </trkpt>
      <trkpt lat="49.31271" lon="2.50356">
        <ele>25.6</ele>
        <time>2014-04-27T12:04:18.53</time>
      </trkpt>
      <trkpt lat="49.31267" lon="2.50344">
        <ele>25.8</ele>
        <time>2014-04-27T12:04:23.53</time>
      </trkpt>
      <trkpt lat="49.31265" lon="2.50333">
        <ele>26.1</ele>
        <time>2014-04-27T12:04:28.53</time>
      </trkpt>
      <trkpt lat="49.31262" lon="2.50322">
        <ele>26.1</ele>
        <time>2014-04-27T12:04:33.53</time>
      </trkpt>
      <trkpt lat="49.31261" lon="2.5031">
        <ele>26.1</ele>
        <time>2014-04-27T12:04:38.53</time>
      </trkpt>
      <trkpt lat="49.31258" lon="2.50298">
        <ele>26.7</ele>
        <time>2014-04-27T12:04:43.53</time>
      </trkpt>
      <trkpt lat="49.31255" lon="2.50286">
        <ele>27.6</ele>
        <time>2014-04-27T12:04:49.53</time>
      </trkpt>
      <trkpt lat="49.31253" lon="2.50276">
        <ele>27.8</ele>
        <time>2014-04-27T12:04:56.53</time>
      </trkpt>
      <trkpt lat="49.31251" lon="2.50265">
        <ele>27.5</ele>
        <time>2014-04-27T12:05:02.53</time>
      </trkpt>
      <trkpt lat="49.31246" lon="2.50255">
        <ele>27.4</ele>
        <time>2014-04-27T12:05:09.53</time>
      </trkpt>
      <trkpt lat="49.31243" lon="2.50244">
        <ele>27.4</ele>
        <time>2014-04-27T12:05:15.53</time>
      </trkpt>
      <trkpt lat="49.31239" lon="2.50236">
        <ele>27.7</ele>
        <time>2014-04-27T12:05:22.53</time>
      </trkpt>
      <trkpt lat="49.31237" lon="2.50231">
        <ele>28.1</ele>
        <time>2014-04-27T12:05:29.53</time>
      </trkpt>
      <trkpt lat="49.31236" lon="2.50227">
        <ele>28.6</ele>
        <time>2014-04-27T12:05:33.56</time>
      </trkpt>
      <trkpt lat="49.31232" lon="2.50217">
        <ele>29.7</ele>
        <time>2014-04-27T12:05:36.56</time>
      </trkpt>
      <trkpt lat="49.31227" lon="2.50215">
        <ele>30.2</ele>
        <time>2014-04-27T12:05:43.55</time>
      </trkpt>
      <trkpt lat="49.31223" lon="2.50216">
        <ele>30.4</ele>
        <time>2014-04-27T12:05:50.55</time>
      </trkpt>
      <trkpt lat="49.31217" lon="2.50222">
        <ele>30.6</ele>
        <time>2014-04-27T12:05:57.53</time>
      </trkpt>
      <trkpt lat="49.31211" lon="2.50229">
        <ele>30.8</ele>
        <time>2014-04-27T12:06:02.57</time>
      </trkpt>
      <trkpt lat="49.31204" lon="2.50233">
        <ele>31</ele>
        <time>2014-04-27T12:06:09.53</time>
      </trkpt>
      <trkpt lat="49.31197" lon="2.50236">
        <ele>31.2</ele>
        <time>2014-04-27T12:06:16.60</time>
      </trkpt>
      <trkpt lat="49.3119" lon="2.5024">
        <ele>31</ele>
        <time>2014-04-27T12:06:23.53</time>
      </trkpt>
      <trkpt lat="49.31183" lon="2.50244">
        <ele>30.5</ele>
        <time>2014-04-27T12:06:30.55</time>
      </trkpt>
      <trkpt lat="49.31175" lon="2.50252">
        <ele>30.3</ele>
        <time>2014-04-27T12:06:36.53</time>
      </trkpt>
      <trkpt lat="49.31169" lon="2.50258">
        <ele>30.5</ele>
        <time>2014-04-27T12:06:43.55</time>
      </trkpt>
      <trkpt lat="49.31163" lon="2.5026">
        <ele>30.6</ele>
        <time>2014-04-27T12:06:50.53</time>
      </trkpt>
      <trkpt lat="49.31155" lon="2.50265">
        <ele>30.8</ele>
        <time>2014-04-27T12:06:57.53</time>
      </trkpt>
      <trkpt lat="49.31148" lon="2.50269">
        <ele>31.1</ele>
        <time>2014-04-27T12:07:03.53</time>
      </trkpt>
      <trkpt lat="49.31141" lon="2.50271">
        <ele>31.2</ele>
        <time>2014-04-27T12:07:10.53</time>
      </trkpt>
      <trkpt lat="49.31133" lon="2.50277">
        <ele>31.5</ele>
        <time>2014-04-27T12:07:17.53</time>
      </trkpt>
      <trkpt lat="49.31125" lon="2.50281">
        <ele>31.7</ele>
        <time>2014-04-27T12:07:24.53</time>
      </trkpt>
      <trkpt lat="49.31121" lon="2.50287">
        <ele>31.8</ele>
        <time>2014-04-27T12:07:31.55</time>
      </trkpt>
      <trkpt lat="49.31118" lon="2.50295">
        <ele>32.3</ele>
        <time>2014-04-27T12:07:38.53</time>
      </trkpt>
      <trkpt lat="49.31118" lon="2.50299">
        <ele>32.8</ele>
        <time>2014-04-27T12:07:45.53</time>
      </trkpt>
      <trkpt lat="49.31121" lon="2.5031">
        <ele>32.8</ele>
        <time>2014-04-27T12:07:52.57</time>
      </trkpt>
      <trkpt lat="49.31123" lon="2.50319">
        <ele>32.6</ele>
        <time>2014-04-27T12:07:59.53</time>
      </trkpt>
      <trkpt lat="49.31125" lon="2.5033">
        <ele>32.7</ele>
        <time>2014-04-27T12:08:06.53</time>
      </trkpt>
      <trkpt lat="49.3113" lon="2.50337">
        <ele>32.6</ele>
        <time>2014-04-27T12:08:13.53</time>
      </trkpt>
      <trkpt lat="49.31136" lon="2.50342">
        <ele>33</ele>
        <time>2014-04-27T12:08:20.53</time>
      </trkpt>
      <trkpt lat="49.31134" lon="2.50341">
        <ele>33</ele>
        <time>2014-04-27T12:08:27.55</time>
      </trkpt>
      <trkpt lat="49.31137" lon="2.50349">
        <ele>33.1</ele>
        <time>2014-04-27T12:08:29.56</time>
      </trkpt>
      <trkpt lat="49.31132" lon="2.50353">
        <ele>33</ele>
        <time>2014-04-27T12:08:36.53</time>
      </trkpt>
      <trkpt lat="49.31131" lon="2.50356">
        <ele>33.1</ele>
        <time>2014-04-27T12:08:43.55</time>
      </trkpt>
      <trkpt lat="49.31136" lon="2.50349">
        <ele>33.1</ele>
        <time>2014-04-27T12:08:49.55</time>
      </trkpt>
      <trkpt lat="49.31141" lon="2.50349">
        <ele>32.6</ele>
        <time>2014-04-27T12:08:56.53</time>
      </trkpt>
      <trkpt lat="49.31145" lon="2.5036">
        <ele>32.5</ele>
        <time>2014-04-27T12:09:02.53</time>
      </trkpt>
      <trkpt lat="49.31145" lon="2.50371">
        <ele>32.5</ele>
        <time>2014-04-27T12:09:08.55</time>
      </trkpt>
      <trkpt lat="49.31146" lon="2.50382">
        <ele>32.5</ele>
        <time>2014-04-27T12:09:15.55</time>
      </trkpt>
      <trkpt lat="49.31146" lon="2.50394">
        <ele>32.2</ele>
        <time>2014-04-27T12:09:22.53</time>
      </trkpt>
      <trkpt lat="49.31143" lon="2.50405">
        <ele>32.1</ele>
        <time>2014-04-27T12:09:29.53</time>
      </trkpt>
      <trkpt lat="49.31139" lon="2.50414">
        <ele>32.3</ele>
        <time>2014-04-27T12:09:36.53</time>
      </trkpt>
      <trkpt lat="49.31134" lon="2.50423">
        <ele>32.3</ele>
        <time>2014-04-27T12:09:41.53</time>
      </trkpt>
      <trkpt lat="49.31131" lon="2.50432">
        <ele>32.1</ele>
        <time>2014-04-27T12:09:46.53</time>
      </trkpt>
      <trkpt lat="49.31127" lon="2.50444">
        <ele>31.9</ele>
        <time>2014-04-27T12:09:53.53</time>
      </trkpt>
      <trkpt lat="49.31125" lon="2.50444">
        <ele>31.9</ele>
        <time>2014-04-27T12:10:00.55</time>
      </trkpt>
      <trkpt lat="49.31124" lon="2.50441">
        <ele>31.8</ele>
        <time>2014-04-27T12:10:07.55</time>
      </trkpt>
      <trkpt lat="49.31127" lon="2.50452">
        <ele>32</ele>
        <time>2014-04-27T12:10:11.57</time>
      </trkpt>
      <trkpt lat="49.31129" lon="2.50457">
        <ele>32</ele>
        <time>2014-04-27T12:10:18.53</time>
      </trkpt>
      <trkpt lat="49.31134" lon="2.50462">
        <ele>32</ele>
        <time>2014-04-27T12:10:25.56</time>
      </trkpt>
      <trkpt lat="49.31134" lon="2.50472">
        <ele>32</ele>
        <time>2014-04-27T12:10:32.53</time>
      </trkpt>
      <trkpt lat="49.31131" lon="2.50482">
        <ele>31.9</ele>
        <time>2014-04-27T12:10:37.55</time>
      </trkpt>
      <trkpt lat="49.3113" lon="2.50493">
        <ele>31.8</ele>
        <time>2014-04-27T12:10:44.53</time>
      </trkpt>
      <trkpt lat="49.31132" lon="2.50502">
        <ele>31.6</ele>
        <time>2014-04-27T12:10:51.55</time>
      </trkpt>
      <trkpt lat="49.31133" lon="2.50503">
        <ele>31.8</ele>
        <time>2014-04-27T12:10:58.53</time>
      </trkpt>
      <trkpt lat="49.31122" lon="2.50516">
        <ele>32.2</ele>
        <time>2014-04-27T12:11:02.56</time>
      </trkpt>
      <trkpt lat="49.31116" lon="2.50519">
        <ele>32.3</ele>
        <time>2014-04-27T12:11:09.55</time>
      </trkpt>
      <trkpt lat="49.31109" lon="2.50518">
        <ele>32.2</ele>
        <time>2014-04-27T12:11:14.53</time>
      </trkpt>
      <trkpt lat="49.31103" lon="2.5051">
        <ele>32.3</ele>
        <time>2014-04-27T12:11:20.55</time>
      </trkpt>
      <trkpt lat="49.31096" lon="2.50512">
        <ele>32.3</ele>
        <time>2014-04-27T12:11:27.52</time>
      </trkpt>
      <trkpt lat="49.31089" lon="2.50506">
        <ele>32.7</ele>
        <time>2014-04-27T12:11:33.52</time>
      </trkpt>
      <trkpt lat="49.31081" lon="2.50507">
        <ele>32.9</ele>
        <time>2014-04-27T12:11:40.52</time>
      </trkpt>
      <trkpt lat="49.31073" lon="2.50506">
        <ele>33</ele>
        <time>2014-04-27T12:11:47.52</time>
      </trkpt>
      <trkpt lat="49.31066" lon="2.50506">
        <ele>33</ele>
        <time>2014-04-27T12:11:54.52</time>
      </trkpt>
      <trkpt lat="49.31058" lon="2.50507">
        <ele>32.9</ele>
        <time>2014-04-27T12:12:01.52</time>
      </trkpt>
      <trkpt lat="49.3105" lon="2.50511">
        <ele>33</ele>
        <time>2014-04-27T12:12:08.52</time>
      </trkpt>
      <trkpt lat="49.31047" lon="2.50513">
        <ele>33.1</ele>
        <time>2014-04-27T12:12:15.52</time>
      </trkpt>
      <trkpt lat="49.31043" lon="2.50514">
        <ele>33.2</ele>
        <time>2014-04-27T12:12:22.53</time>
      </trkpt>
      <trkpt lat="49.31038" lon="2.50514">
        <ele>33.3</ele>
        <time>2014-04-27T12:12:29.52</time>
      </trkpt>
      <trkpt lat="49.31031" lon="2.50513">
        <ele>33.3</ele>
        <time>2014-04-27T12:12:36.52</time>
      </trkpt>
      <trkpt lat="49.31023" lon="2.50513">
        <ele>33.1</ele>
        <time>2014-04-27T12:12:43.52</time>
      </trkpt>
      <trkpt lat="49.31015" lon="2.50513">
        <ele>32.6</ele>
        <time>2014-04-27T12:12:50.52</time>
      </trkpt>
      <trkpt lat="49.3101" lon="2.50517">
        <ele>32.5</ele>
        <time>2014-04-27T12:12:57.52</time>
      </trkpt>
      <trkpt lat="49.31003" lon="2.50513">
        <ele>32.7</ele>
        <time>2014-04-27T12:13:03.52</time>
      </trkpt>
      <trkpt lat="49.30997" lon="2.50505">
        <ele>32.8</ele>
        <time>2014-04-27T12:13:09.52</time>
      </trkpt>
      <trkpt lat="49.30992" lon="2.50497">
        <ele>32.8</ele>
        <time>2014-04-27T12:13:15.52</time>
      </trkpt>
      <trkpt lat="49.30987" lon="2.50489">
        <ele>33</ele>
        <time>2014-04-27T12:13:20.52</time>
      </trkpt>
      <trkpt lat="49.30981" lon="2.5048">
        <ele>33.2</ele>
        <time>2014-04-27T12:13:27.52</time>
      </trkpt>
      <trkpt lat="49.30976" lon="2.5047">
        <ele>33.4</ele>
        <time>2014-04-27T12:13:34.52</time>
      </trkpt>
      <trkpt lat="49.30974" lon="2.50465">
        <ele>33.4</ele>
        <time>2014-04-27T12:13:41.52</time>
      </trkpt>
      <trkpt lat="49.30972" lon="2.5046">
        <ele>33.5</ele>
        <time>2014-04-27T12:13:48.52</time>
      </trkpt>
      <trkpt lat="49.3097" lon="2.50455">
        <ele>33.7</ele>
        <time>2014-04-27T12:13:55.52</time>
      </trkpt>
      <trkpt lat="49.30966" lon="2.50447">
        <ele>34</ele>
        <time>2014-04-27T12:14:02.52</time>
      </trkpt>
      <trkpt lat="49.30961" lon="2.5044">
        <ele>34.2</ele>
        <time>2014-04-27T12:14:09.52</time>
      </trkpt>
      <trkpt lat="49.30956" lon="2.50432">
        <ele>34.4</ele>
        <time>2014-04-27T12:14:16.52</time>
      </trkpt>
      <trkpt lat="49.30951" lon="2.50423">
        <ele>34.6</ele>
        <time>2014-04-27T12:14:23.52</time>
      </trkpt>
      <trkpt lat="49.30944" lon="2.50416">
        <ele>34.6</ele>
        <time>2014-04-27T12:14:28.52</time>
      </trkpt>
      <trkpt lat="49.30938" lon="2.50407">
        <ele>35</ele>
        <time>2014-04-27T12:14:35.52</time>
      </trkpt>
      <trkpt lat="49.30933" lon="2.50399">
        <ele>35.2</ele>
        <time>2014-04-27T12:14:42.52</time>
      </trkpt>
      <trkpt lat="49.30928" lon="2.50392">
        <ele>35.3</ele>
        <time>2014-04-27T12:14:49.52</time>
      </trkpt>
      <trkpt lat="49.30923" lon="2.50384">
        <ele>35.6</ele>
        <time>2014-04-27T12:14:55.52</time>
      </trkpt>
      <trkpt lat="49.30918" lon="2.50375">
        <ele>36</ele>
        <time>2014-04-27T12:15:01.52</time>
      </trkpt>
      <trkpt lat="49.30914" lon="2.50367">
        <ele>36.1</ele>
        <time>2014-04-27T12:15:08.52</time>
      </trkpt>
      <trkpt lat="49.30912" lon="2.50355">
        <ele>36</ele>
        <time>2014-04-27T12:15:15.52</time>
      </trkpt>
      <trkpt lat="49.30909" lon="2.50344">
        <ele>36.1</ele>
        <time>2014-04-27T12:15:21.52</time>
      </trkpt>
      <trkpt lat="49.30906" lon="2.50333">
        <ele>36</ele>
        <time>2014-04-27T12:15:27.52</time>
      </trkpt>
      <trkpt lat="49.30903" lon="2.50323">
        <ele>36</ele>
        <time>2014-04-27T12:15:32.52</time>
      </trkpt>
      <trkpt lat="49.309" lon="2.50311">
        <ele>36.2</ele>
        <time>2014-04-27T12:15:39.52</time>
      </trkpt>
      <trkpt lat="49.30902" lon="2.50301">
        <ele>36.7</ele>
        <time>2014-04-27T12:15:46.52</time>
      </trkpt>
      <trkpt lat="49.309" lon="2.5029">
        <ele>37</ele>
        <time>2014-04-27T12:15:52.52</time>
      </trkpt>
      <trkpt lat="49.30898" lon="2.5028">
        <ele>37.4</ele>
        <time>2014-04-27T12:15:59.52</time>
      </trkpt>
      <trkpt lat="49.30895" lon="2.50273">
        <ele>37.9</ele>
        <time>2014-04-27T12:16:06.52</time>
      </trkpt>
      <trkpt lat="49.30894" lon="2.50263">
        <ele>38.3</ele>
        <time>2014-04-27T12:16:13.54</time>
      </trkpt>
      <trkpt lat="49.30892" lon="2.50256">
        <ele>38.8</ele>
        <time>2014-04-27T12:16:20.52</time>
      </trkpt>
      <trkpt lat="49.30889" lon="2.50247">
        <ele>39.1</ele>
        <time>2014-04-27T12:16:27.52</time>
      </trkpt>
      <trkpt lat="49.30886" lon="2.50238">
        <ele>39.3</ele>
        <time>2014-04-27T12:16:34.54</time>
      </trkpt>
      <trkpt lat="49.30882" lon="2.50228">
        <ele>39.6</ele>
        <time>2014-04-27T12:16:40.53</time>
      </trkpt>
      <trkpt lat="49.3088" lon="2.50219">
        <ele>40.1</ele>
        <time>2014-04-27T12:16:47.52</time>
      </trkpt>
      <trkpt lat="49.30876" lon="2.50208">
        <ele>40.7</ele>
        <time>2014-04-27T12:16:54.52</time>
      </trkpt>
      <trkpt lat="49.30872" lon="2.502">
        <ele>41</ele>
        <time>2014-04-27T12:17:01.53</time>
      </trkpt>
      <trkpt lat="49.30868" lon="2.50191">
        <ele>41.4</ele>
        <time>2014-04-27T12:17:08.52</time>
      </trkpt>
      <trkpt lat="49.30866" lon="2.50181">
        <ele>41.9</ele>
        <time>2014-04-27T12:17:15.52</time>
      </trkpt>
      <trkpt lat="49.30863" lon="2.50172">
        <ele>42.2</ele>
        <time>2014-04-27T12:17:22.52</time>
      </trkpt>
      <trkpt lat="49.3086" lon="2.50161">
        <ele>42.5</ele>
        <time>2014-04-27T12:17:28.52</time>
      </trkpt>
      <trkpt lat="49.30857" lon="2.50149">
        <ele>42.7</ele>
        <time>2014-04-27T12:17:34.52</time>
      </trkpt>
      <trkpt lat="49.30854" lon="2.50139">
        <ele>43</ele>
        <time>2014-04-27T12:17:41.52</time>
      </trkpt>
      <trkpt lat="49.30849" lon="2.50133">
        <ele>43.4</ele>
        <time>2014-04-27T12:17:48.52</time>
      </trkpt>
      <trkpt lat="49.30845" lon="2.50126">
        <ele>43.6</ele>
        <time>2014-04-27T12:17:55.52</time>
      </trkpt>
      <trkpt lat="49.30842" lon="2.50118">
        <ele>43.9</ele>
        <time>2014-04-27T12:18:02.52</time>
      </trkpt>
      <trkpt lat="49.30837" lon="2.50113">
        <ele>44.5</ele>
        <time>2014-04-27T12:18:09.52</time>
      </trkpt>
      <trkpt lat="49.30831" lon="2.50105">
        <ele>45.5</ele>
        <time>2014-04-27T12:18:16.52</time>
      </trkpt>
      <trkpt lat="49.30828" lon="2.50104">
        <ele>46.2</ele>
        <time>2014-04-27T12:18:23.52</time>
      </trkpt>
      <trkpt lat="49.30821" lon="2.50106">
        <ele>46.7</ele>
        <time>2014-04-27T12:18:30.52</time>
      </trkpt>
      <trkpt lat="49.30814" lon="2.50111">
        <ele>47.3</ele>
        <time>2014-04-27T12:18:37.52</time>
      </trkpt>
      <trkpt lat="49.3081" lon="2.50113">
        <ele>47.5</ele>
        <time>2014-04-27T12:18:44.52</time>
      </trkpt>
      <trkpt lat="49.30804" lon="2.50117">
        <ele>47.8</ele>
        <time>2014-04-27T12:18:51.52</time>
      </trkpt>
      <trkpt lat="49.30799" lon="2.50124">
        <ele>48.1</ele>
        <time>2014-04-27T12:18:58.52</time>
      </trkpt>
      <trkpt lat="49.30792" lon="2.5013">
        <ele>48.4</ele>
        <time>2014-04-27T12:19:03.52</time>
      </trkpt>
      <trkpt lat="49.30785" lon="2.50135">
        <ele>48.7</ele>
        <time>2014-04-27T12:19:09.52</time>
      </trkpt>
      <trkpt lat="49.3078" lon="2.50139">
        <ele>49.1</ele>
        <time>2014-04-27T12:19:16.52</time>
      </trkpt>
      <trkpt lat="49.3078" lon="2.50142">
        <ele>50</ele>
        <time>2014-04-27T12:19:23.52</time>
      </trkpt>
      <trkpt lat="49.30775" lon="2.50143">
        <ele>50.4</ele>
        <time>2014-04-27T12:19:30.52</time>
      </trkpt>
      <trkpt lat="49.30769" lon="2.50142">
        <ele>50.7</ele>
        <time>2014-04-27T12:19:37.52</time>
      </trkpt>
      <trkpt lat="49.30761" lon="2.50141">
        <ele>51.1</ele>
        <time>2014-04-27T12:19:44.53</time>
      </trkpt>
      <trkpt lat="49.30759" lon="2.50134">
        <ele>51.5</ele>
        <time>2014-04-27T12:19:51.52</time>
      </trkpt>
      <trkpt lat="49.30756" lon="2.50126">
        <ele>51.8</ele>
        <time>2014-04-27T12:19:58.52</time>
      </trkpt>
      <trkpt lat="49.30752" lon="2.50119">
        <ele>52.1</ele>
        <time>2014-04-27T12:20:05.52</time>
      </trkpt>
      <trkpt lat="49.30751" lon="2.50112">
        <ele>52.5</ele>
        <time>2014-04-27T12:20:12.52</time>
      </trkpt>
      <trkpt lat="49.30749" lon="2.50107">
        <ele>52.9</ele>
        <time>2014-04-27T12:20:19.52</time>
      </trkpt>
      <trkpt lat="49.30746" lon="2.50099">
        <ele>53.5</ele>
        <time>2014-04-27T12:20:26.52</time>
      </trkpt>
      <trkpt lat="49.30744" lon="2.5009">
        <ele>54.1</ele>
        <time>2014-04-27T12:20:33.52</time>
      </trkpt>
      <trkpt lat="49.30746" lon="2.50088">
        <ele>54.4</ele>
        <time>2014-04-27T12:20:40.52</time>
      </trkpt>
      <trkpt lat="49.3074" lon="2.50078">
        <ele>55.4</ele>
        <time>2014-04-27T12:20:42.59</time>
      </trkpt>
      <trkpt lat="49.30738" lon="2.50066">
        <ele>56.3</ele>
        <time>2014-04-27T12:20:48.57</time>
      </trkpt>
      <trkpt lat="49.30733" lon="2.50061">
        <ele>57.3</ele>
        <time>2014-04-27T12:20:55.57</time>
      </trkpt>
      <trkpt lat="49.30728" lon="2.50056">
        <ele>57.8</ele>
        <time>2014-04-27T12:21:02.57</time>
      </trkpt>
      <trkpt lat="49.30723" lon="2.50051">
        <ele>58.3</ele>
        <time>2014-04-27T12:21:09.57</time>
      </trkpt>
      <trkpt lat="49.30719" lon="2.50047">
        <ele>58.6</ele>
        <time>2014-04-27T12:21:16.57</time>
      </trkpt>
      <trkpt lat="49.30715" lon="2.50039">
        <ele>59.3</ele>
        <time>2014-04-27T12:21:23.57</time>
      </trkpt>
      <trkpt lat="49.30709" lon="2.50032">
        <ele>59.9</ele>
        <time>2014-04-27T12:21:30.57</time>
      </trkpt>
      <trkpt lat="49.30704" lon="2.50026">
        <ele>60.5</ele>
        <time>2014-04-27T12:21:37.57</time>
      </trkpt>
      <trkpt lat="49.30698" lon="2.50019">
        <ele>61.2</ele>
        <time>2014-04-27T12:21:44.57</time>
      </trkpt>
      <trkpt lat="49.30694" lon="2.5001">
        <ele>62.1</ele>
        <time>2014-04-27T12:21:51.57</time>
      </trkpt>
      <trkpt lat="49.30691" lon="2.50001">
        <ele>62.7</ele>
        <time>2014-04-27T12:21:58.57</time>
      </trkpt>
      <trkpt lat="49.30688" lon="2.49991">
        <ele>63</ele>
        <time>2014-04-27T12:22:05.57</time>
      </trkpt>
      <trkpt lat="49.30686" lon="2.49981">
        <ele>63.5</ele>
        <time>2014-04-27T12:22:12.57</time>
      </trkpt>
      <trkpt lat="49.30684" lon="2.49972">
        <ele>64</ele>
        <time>2014-04-27T12:22:19.60</time>
      </trkpt>
      <trkpt lat="49.30683" lon="2.49971">
        <ele>64.8</ele>
        <time>2014-04-27T12:22:26.57</time>
      </trkpt>
      <trkpt lat="49.3067" lon="2.49992">
        <ele>72.8</ele>
        <time>2014-04-27T12:22:30.59</time>
      </trkpt>
      <trkpt lat="49.30665" lon="2.5">
        <ele>73.4</ele>
        <time>2014-04-27T12:22:37.57</time>
      </trkpt>
      <trkpt lat="49.30659" lon="2.50009">
        <ele>73.7</ele>
        <time>2014-04-27T12:22:43.57</time>
      </trkpt>
      <trkpt lat="49.30654" lon="2.50017">
        <ele>73.9</ele>
        <time>2014-04-27T12:22:48.57</time>
      </trkpt>
      <trkpt lat="49.30648" lon="2.50026">
        <ele>74.5</ele>
        <time>2014-04-27T12:22:54.57</time>
      </trkpt>
      <trkpt lat="49.30644" lon="2.50036">
        <ele>75</ele>
        <time>2014-04-27T12:23:00.57</time>
      </trkpt>
      <trkpt lat="49.3064" lon="2.50041">
        <ele>75.4</ele>
        <time>2014-04-27T12:23:07.57</time>
      </trkpt>
      <trkpt lat="49.30637" lon="2.50046">
        <ele>75.6</ele>
        <time>2014-04-27T12:23:14.57</time>
      </trkpt>
      <trkpt lat="49.30634" lon="2.50052">
        <ele>76</ele>
        <time>2014-04-27T12:23:21.57</time>
      </trkpt>
      <trkpt lat="49.30631" lon="2.50059">
        <ele>76.4</ele>
        <time>2014-04-27T12:23:28.57</time>
      </trkpt>
      <trkpt lat="49.30628" lon="2.50066">
        <ele>76.7</ele>
        <time>2014-04-27T12:23:35.57</time>
      </trkpt>
      <trkpt lat="49.30623" lon="2.50074">
        <ele>76.9</ele>
        <time>2014-04-27T12:23:42.57</time>
      </trkpt>
      <trkpt lat="49.30616" lon="2.50084">
        <ele>77.1</ele>
        <time>2014-04-27T12:23:46.57</time>
      </trkpt>
      <trkpt lat="49.30612" lon="2.50092">
        <ele>77.1</ele>
        <time>2014-04-27T12:23:51.57</time>
      </trkpt>
      <trkpt lat="49.30605" lon="2.501">
        <ele>77.2</ele>
        <time>2014-04-27T12:23:57.57</time>
      </trkpt>
      <trkpt lat="49.30599" lon="2.50108">
        <ele>77.1</ele>
        <time>2014-04-27T12:24:04.57</time>
      </trkpt>
      <trkpt lat="49.30594" lon="2.50116">
        <ele>77.1</ele>
        <time>2014-04-27T12:24:09.57</time>
      </trkpt>
      <trkpt lat="49.30588" lon="2.50124">
        <ele>77.3</ele>
        <time>2014-04-27T12:24:16.57</time>
      </trkpt>
      <trkpt lat="49.30583" lon="2.50133">
        <ele>77.6</ele>
        <time>2014-04-27T12:24:22.57</time>
      </trkpt>
      <trkpt lat="49.30578" lon="2.50141">
        <ele>77.9</ele>
        <time>2014-04-27T12:24:29.58</time>
      </trkpt>
      <trkpt lat="49.30572" lon="2.50151">
        <ele>78.1</ele>
        <time>2014-04-27T12:24:32.57</time>
      </trkpt>
      <trkpt lat="49.30566" lon="2.50157">
        <ele>78.5</ele>
        <time>2014-04-27T12:24:37.57</time>
      </trkpt>
      <trkpt lat="49.30561" lon="2.50166">
        <ele>78.7</ele>
        <time>2014-04-27T12:24:43.57</time>
      </trkpt>
      <trkpt lat="49.30559" lon="2.50174">
        <ele>78.8</ele>
        <time>2014-04-27T12:24:50.57</time>
      </trkpt>
      <trkpt lat="49.30553" lon="2.50184">
        <ele>79</ele>
        <time>2014-04-27T12:24:56.57</time>
      </trkpt>
      <trkpt lat="49.30548" lon="2.50192">
        <ele>79.3</ele>
        <time>2014-04-27T12:25:01.57</time>
      </trkpt>
      <trkpt lat="49.30543" lon="2.502">
        <ele>79.5</ele>
        <time>2014-04-27T12:25:06.57</time>
      </trkpt>
      <trkpt lat="49.30537" lon="2.50209">
        <ele>79.8</ele>
        <time>2014-04-27T12:25:12.57</time>
      </trkpt>
      <trkpt lat="49.30533" lon="2.50216">
        <ele>80.1</ele>
        <time>2014-04-27T12:25:19.57</time>
      </trkpt>
      <trkpt lat="49.30531" lon="2.50223">
        <ele>80.5</ele>
        <time>2014-04-27T12:25:26.57</time>
      </trkpt>
      <trkpt lat="49.30525" lon="2.50231">
        <ele>80.7</ele>
        <time>2014-04-27T12:25:32.57</time>
      </trkpt>
      <trkpt lat="49.30519" lon="2.50238">
        <ele>80.9</ele>
        <time>2014-04-27T12:25:39.57</time>
      </trkpt>
      <trkpt lat="49.30515" lon="2.50248">
        <ele>81.1</ele>
        <time>2014-04-27T12:25:44.57</time>
      </trkpt>
      <trkpt lat="49.30512" lon="2.5025">
        <ele>81.2</ele>
        <time>2014-04-27T12:25:51.57</time>
      </trkpt>
      <trkpt lat="49.30511" lon="2.50255">
        <ele>81.4</ele>
        <time>2014-04-27T12:25:58.57</time>
      </trkpt>
      <trkpt lat="49.30508" lon="2.50262">
        <ele>81.4</ele>
        <time>2014-04-27T12:26:05.57</time>
      </trkpt>
      <trkpt lat="49.30505" lon="2.5027">
        <ele>81.2</ele>
        <time>2014-04-27T12:26:12.59</time>
      </trkpt>
      <trkpt lat="49.305" lon="2.50279">
        <ele>80.9</ele>
        <time>2014-04-27T12:26:17.57</time>
      </trkpt>
      <trkpt lat="49.30494" lon="2.50284">
        <ele>80.8</ele>
        <time>2014-04-27T12:26:24.57</time>
      </trkpt>
      <trkpt lat="49.3049" lon="2.50291">
        <ele>80.6</ele>
        <time>2014-04-27T12:26:31.57</time>
      </trkpt>
      <trkpt lat="49.30485" lon="2.503">
        <ele>80.5</ele>
        <time>2014-04-27T12:26:38.57</time>
      </trkpt>
      <trkpt lat="49.30481" lon="2.50308">
        <ele>80.7</ele>
        <time>2014-04-27T12:26:45.57</time>
      </trkpt>
      <trkpt lat="49.30478" lon="2.50316">
        <ele>80.6</ele>
        <time>2014-04-27T12:26:52.57</time>
      </trkpt>
      <trkpt lat="49.30473" lon="2.50324">
        <ele>80.5</ele>
        <time>2014-04-27T12:26:59.63</time>
      </trkpt>
      <trkpt lat="49.30468" lon="2.50334">
        <ele>80.6</ele>
        <time>2014-04-27T12:27:06.57</time>
      </trkpt>
      <trkpt lat="49.3046" lon="2.50342">
        <ele>80.6</ele>
        <time>2014-04-27T12:27:11.57</time>
      </trkpt>
      <trkpt lat="49.30455" lon="2.5035">
        <ele>80.8</ele>
        <time>2014-04-27T12:27:15.57</time>
      </trkpt>
      <trkpt lat="49.30449" lon="2.50359">
        <ele>81.1</ele>
        <time>2014-04-27T12:27:16.57</time>
      </trkpt>
      <trkpt lat="49.30443" lon="2.50367">
        <ele>81.3</ele>
        <time>2014-04-27T12:27:18.57</time>
      </trkpt>
      <trkpt lat="49.30436" lon="2.50373">
        <ele>81.5</ele>
        <time>2014-04-27T12:27:23.57</time>
      </trkpt>
      <trkpt lat="49.30431" lon="2.50382">
        <ele>81.9</ele>
        <time>2014-04-27T12:27:29.57</time>
      </trkpt>
      <trkpt lat="49.30427" lon="2.50389">
        <ele>81.9</ele>
        <time>2014-04-27T12:27:36.57</time>
      </trkpt>
      <trkpt lat="49.30422" lon="2.50397">
        <ele>81.7</ele>
        <time>2014-04-27T12:27:42.59</time>
      </trkpt>
      <trkpt lat="49.30415" lon="2.50404">
        <ele>81.6</ele>
        <time>2014-04-27T12:27:48.57</time>
      </trkpt>
      <trkpt lat="49.3041" lon="2.50414">
        <ele>81.6</ele>
        <time>2014-04-27T12:27:52.57</time>
      </trkpt>
      <trkpt lat="49.30404" lon="2.50424">
        <ele>81.5</ele>
        <time>2014-04-27T12:27:58.57</time>
      </trkpt>
      <trkpt lat="49.30398" lon="2.50432">
        <ele>81.8</ele>
        <time>2014-04-27T12:28:01.57</time>
      </trkpt>
      <trkpt lat="49.30391" lon="2.50441">
        <ele>82.1</ele>
        <time>2014-04-27T12:28:04.57</time>
      </trkpt>
      <trkpt lat="49.30386" lon="2.50452">
        <ele>82.3</ele>
        <time>2014-04-27T12:28:09.57</time>
      </trkpt>
      <trkpt lat="49.30382" lon="2.50459">
        <ele>82.3</ele>
        <time>2014-04-27T12:28:16.57</time>
      </trkpt>
      <trkpt lat="49.30377" lon="2.50467">
        <ele>82.3</ele>
        <time>2014-04-27T12:28:23.57</time>
      </trkpt>
      <trkpt lat="49.30372" lon="2.50475">
        <ele>82.4</ele>
        <time>2014-04-27T12:28:30.57</time>
      </trkpt>
      <trkpt lat="49.30367" lon="2.50484">
        <ele>82.4</ele>
        <time>2014-04-27T12:28:34.57</time>
      </trkpt>
      <trkpt lat="49.3036" lon="2.50492">
        <ele>82.5</ele>
        <time>2014-04-27T12:28:40.59</time>
      </trkpt>
      <trkpt lat="49.30355" lon="2.50499">
        <ele>82.4</ele>
        <time>2014-04-27T12:28:47.57</time>
      </trkpt>
      <trkpt lat="49.30349" lon="2.50508">
        <ele>82.4</ele>
        <time>2014-04-27T12:28:54.57</time>
      </trkpt>
      <trkpt lat="49.30343" lon="2.50516">
        <ele>82.4</ele>
        <time>2014-04-27T12:28:59.57</time>
      </trkpt>
      <trkpt lat="49.30336" lon="2.50524">
        <ele>82.3</ele>
        <time>2014-04-27T12:29:06.57</time>
      </trkpt>
      <trkpt lat="49.3033" lon="2.50532">
        <ele>82.3</ele>
        <time>2014-04-27T12:29:12.57</time>
      </trkpt>
      <trkpt lat="49.30326" lon="2.50539">
        <ele>82.2</ele>
        <time>2014-04-27T12:29:19.57</time>
      </trkpt>
      <trkpt lat="49.30322" lon="2.50547">
        <ele>82.1</ele>
        <time>2014-04-27T12:29:26.57</time>
      </trkpt>
      <trkpt lat="49.30318" lon="2.50554">
        <ele>81.9</ele>
        <time>2014-04-27T12:29:33.57</time>
      </trkpt>
      <trkpt lat="49.30311" lon="2.50557">
        <ele>81.8</ele>
        <time>2014-04-27T12:29:40.57</time>
      </trkpt>
      <trkpt lat="49.30308" lon="2.50552">
        <ele>81.8</ele>
        <time>2014-04-27T12:29:47.57</time>
      </trkpt>
      <trkpt lat="49.30308" lon="2.50543">
        <ele>81.4</ele>
        <time>2014-04-27T12:29:54.57</time>
      </trkpt>
      <trkpt lat="49.30308" lon="2.50532">
        <ele>81.2</ele>
        <time>2014-04-27T12:30:01.57</time>
      </trkpt>
      <trkpt lat="49.30308" lon="2.50524">
        <ele>81.2</ele>
        <time>2014-04-27T12:30:08.57</time>
      </trkpt>
      <trkpt lat="49.3031" lon="2.50514">
        <ele>80.9</ele>
        <time>2014-04-27T12:30:15.57</time>
      </trkpt>
      <trkpt lat="49.3031" lon="2.50501">
        <ele>80.9</ele>
        <time>2014-04-27T12:30:21.57</time>
      </trkpt>
      <trkpt lat="49.30306" lon="2.50491">
        <ele>80.8</ele>
        <time>2014-04-27T12:30:28.57</time>
      </trkpt>
      <trkpt lat="49.30308" lon="2.50479">
        <ele>80.8</ele>
        <time>2014-04-27T12:30:35.57</time>
      </trkpt>
      <trkpt lat="49.3031" lon="2.50467">
        <ele>80.6</ele>
        <time>2014-04-27T12:30:42.57</time>
      </trkpt>
      <trkpt lat="49.30309" lon="2.50453">
        <ele>80.6</ele>
        <time>2014-04-27T12:30:46.57</time>
      </trkpt>
      <trkpt lat="49.30307" lon="2.50441">
        <ele>80.4</ele>
        <time>2014-04-27T12:30:52.57</time>
      </trkpt>
      <trkpt lat="49.30306" lon="2.5043">
        <ele>80.4</ele>
        <time>2014-04-27T12:30:58.58</time>
      </trkpt>
      <trkpt lat="49.30299" lon="2.50422">
        <ele>80.4</ele>
        <time>2014-04-27T12:31:05.57</time>
      </trkpt>
      <trkpt lat="49.30294" lon="2.50417">
        <ele>80.4</ele>
        <time>2014-04-27T12:31:12.57</time>
      </trkpt>
      <trkpt lat="49.30289" lon="2.50414">
        <ele>80.5</ele>
        <time>2014-04-27T12:31:19.57</time>
      </trkpt>
      <trkpt lat="49.30284" lon="2.50414">
        <ele>80.8</ele>
        <time>2014-04-27T12:31:26.57</time>
      </trkpt>
      <trkpt lat="49.30277" lon="2.50414">
        <ele>80.9</ele>
        <time>2014-04-27T12:31:33.57</time>
      </trkpt>
      <trkpt lat="49.30269" lon="2.50411">
        <ele>81.1</ele>
        <time>2014-04-27T12:31:40.57</time>
      </trkpt>
      <trkpt lat="49.30262" lon="2.50406">
        <ele>81.1</ele>
        <time>2014-04-27T12:31:46.57</time>
      </trkpt>
      <trkpt lat="49.30255" lon="2.50403">
        <ele>81.3</ele>
        <time>2014-04-27T12:31:53.57</time>
      </trkpt>
      <trkpt lat="49.30248" lon="2.50401">
        <ele>81.5</ele>
        <time>2014-04-27T12:32:00.57</time>
      </trkpt>
      <trkpt lat="49.3024" lon="2.50405">
        <ele>81.6</ele>
        <time>2014-04-27T12:32:07.57</time>
      </trkpt>
      <trkpt lat="49.30232" lon="2.50405">
        <ele>82.2</ele>
        <time>2014-04-27T12:32:13.57</time>
      </trkpt>
      <trkpt lat="49.30223" lon="2.50403">
        <ele>82.4</ele>
        <time>2014-04-27T12:32:20.57</time>
      </trkpt>
      <trkpt lat="49.30215" lon="2.50402">
        <ele>82.3</ele>
        <time>2014-04-27T12:32:27.57</time>
      </trkpt>
      <trkpt lat="49.30207" lon="2.50403">
        <ele>82.5</ele>
        <time>2014-04-27T12:32:32.57</time>
      </trkpt>
      <trkpt lat="49.30202" lon="2.50401">
        <ele>82.4</ele>
        <time>2014-04-27T12:32:39.57</time>
      </trkpt>
      <trkpt lat="49.30194" lon="2.50399">
        <ele>82.6</ele>
        <time>2014-04-27T12:32:44.57</time>
      </trkpt>
      <trkpt lat="49.30187" lon="2.50396">
        <ele>82.5</ele>
        <time>2014-04-27T12:32:51.57</time>
      </trkpt>
      <trkpt lat="49.30179" lon="2.50397">
        <ele>82.5</ele>
        <time>2014-04-27T12:32:58.57</time>
      </trkpt>
      <trkpt lat="49.30172" lon="2.50394">
        <ele>82.5</ele>
        <time>2014-04-27T12:33:04.57</time>
      </trkpt>
      <trkpt lat="49.30163" lon="2.50392">
        <ele>82.4</ele>
        <time>2014-04-27T12:33:08.57</time>
      </trkpt>
      <trkpt lat="49.30156" lon="2.50388">
        <ele>82.2</ele>
        <time>2014-04-27T12:33:14.57</time>
      </trkpt>
      <trkpt lat="49.30149" lon="2.50381">
        <ele>82</ele>
        <time>2014-04-27T12:33:18.57</time>
      </trkpt>
      <trkpt lat="49.30142" lon="2.50372">
        <ele>82.2</ele>
        <time>2014-04-27T12:33:23.57</time>
      </trkpt>
      <trkpt lat="49.30135" lon="2.50364">
        <ele>82.3</ele>
        <time>2014-04-27T12:33:28.57</time>
      </trkpt>
      <trkpt lat="49.30129" lon="2.50358">
        <ele>82.6</ele>
        <time>2014-04-27T12:33:33.57</time>
      </trkpt>
      <trkpt lat="49.30122" lon="2.50352">
        <ele>82.8</ele>
        <time>2014-04-27T12:33:38.57</time>
      </trkpt>
      <trkpt lat="49.30116" lon="2.50347">
        <ele>83.1</ele>
        <time>2014-04-27T12:33:43.57</time>
      </trkpt>
      <trkpt lat="49.30109" lon="2.50341">
        <ele>84.1</ele>
        <time>2014-04-27T12:33:48.57</time>
      </trkpt>
      <trkpt lat="49.30102" lon="2.50336">
        <ele>84.8</ele>
        <time>2014-04-27T12:33:53.57</time>
      </trkpt>
      <trkpt lat="49.30095" lon="2.50329">
        <ele>85.8</ele>
        <time>2014-04-27T12:33:58.57</time>
      </trkpt>
      <trkpt lat="49.30089" lon="2.50324">
        <ele>87</ele>
        <time>2014-04-27T12:34:03.57</time>
      </trkpt>
      <trkpt lat="49.30082" lon="2.50318">
        <ele>87.8</ele>
        <time>2014-04-27T12:34:09.57</time>
      </trkpt>
      <trkpt lat="49.30075" lon="2.50311">
        <ele>88.6</ele>
        <time>2014-04-27T12:34:15.57</time>
      </trkpt>
      <trkpt lat="49.30068" lon="2.50306">
        <ele>89.6</ele>
        <time>2014-04-27T12:34:21.57</time>
      </trkpt>
      <trkpt lat="49.30062" lon="2.503">
        <ele>90.4</ele>
        <time>2014-04-27T12:34:27.57</time>
      </trkpt>
      <trkpt lat="49.30055" lon="2.50296">
        <ele>91.4</ele>
        <time>2014-04-27T12:34:32.57</time>
      </trkpt>
      <trkpt lat="49.30048" lon="2.5029">
        <ele>92.1</ele>
        <time>2014-04-27T12:34:38.57</time>
      </trkpt>
      <trkpt lat="49.30041" lon="2.50285">
        <ele>92.7</ele>
        <time>2014-04-27T12:34:44.57</time>
      </trkpt>
      <trkpt lat="49.30034" lon="2.50279">
        <ele>93.4</ele>
        <time>2014-04-27T12:34:50.57</time>
      </trkpt>
      <trkpt lat="49.30026" lon="2.50275">
        <ele>93.4</ele>
        <time>2014-04-27T12:34:56.57</time>
      </trkpt>
      <trkpt lat="49.30019" lon="2.5027">
        <ele>93.6</ele>
        <time>2014-04-27T12:35:03.57</time>
      </trkpt>
      <trkpt lat="49.30012" lon="2.50265">
        <ele>93.7</ele>
        <time>2014-04-27T12:35:09.57</time>
      </trkpt>
      <trkpt lat="49.30006" lon="2.50258">
        <ele>93.6</ele>
        <time>2014-04-27T12:35:15.57</time>
      </trkpt>
      <trkpt lat="49.29998" lon="2.50254">
        <ele>94</ele>
        <time>2014-04-27T12:35:21.57</time>
      </trkpt>
      <trkpt lat="49.2999" lon="2.50254">
        <ele>94.6</ele>
        <time>2014-04-27T12:35:27.57</time>
      </trkpt>
      <trkpt lat="49.29983" lon="2.50258">
        <ele>94.9</ele>
        <time>2014-04-27T12:35:33.57</time>
      </trkpt>
      <trkpt lat="49.29977" lon="2.50263">
        <ele>95.3</ele>
        <time>2014-04-27T12:35:39.57</time>
      </trkpt>
      <trkpt lat="49.29972" lon="2.50272">
        <ele>95.6</ele>
        <time>2014-04-27T12:35:44.57</time>
      </trkpt>
      <trkpt lat="49.29966" lon="2.5028">
        <ele>95.2</ele>
        <time>2014-04-27T12:35:51.57</time>
      </trkpt>
      <trkpt lat="49.29961" lon="2.50289">
        <ele>95.2</ele>
        <time>2014-04-27T12:35:57.57</time>
      </trkpt>
      <trkpt lat="49.29955" lon="2.50297">
        <ele>95.6</ele>
        <time>2014-04-27T12:36:03.57</time>
      </trkpt>
      <trkpt lat="49.2995" lon="2.50306">
        <ele>96.1</ele>
        <time>2014-04-27T12:36:09.57</time>
      </trkpt>
      <trkpt lat="49.29945" lon="2.50312">
        <ele>96</ele>
        <time>2014-04-27T12:36:16.57</time>
      </trkpt>
      <trkpt lat="49.29941" lon="2.50321">
        <ele>95.7</ele>
        <time>2014-04-27T12:36:22.59</time>
      </trkpt>
      <trkpt lat="49.29936" lon="2.50328">
        <ele>95.2</ele>
        <time>2014-04-27T12:36:29.57</time>
      </trkpt>
      <trkpt lat="49.2993" lon="2.50336">
        <ele>95</ele>
        <time>2014-04-27T12:36:36.57</time>
      </trkpt>
      <trkpt lat="49.29924" lon="2.50343">
        <ele>95.1</ele>
        <time>2014-04-27T12:36:42.57</time>
      </trkpt>
      <trkpt lat="49.29918" lon="2.50351">
        <ele>95.1</ele>
        <time>2014-04-27T12:36:48.57</time>
      </trkpt>
      <trkpt lat="49.29913" lon="2.5036">
        <ele>95.2</ele>
        <time>2014-04-27T12:36:54.57</time>
      </trkpt>
      <trkpt lat="49.29907" lon="2.50369">
        <ele>95</ele>
        <time>2014-04-27T12:37:00.57</time>
      </trkpt>
      <trkpt lat="49.29903" lon="2.50378">
        <ele>94.8</ele>
        <time>2014-04-27T12:37:06.57</time>
      </trkpt>
      <trkpt lat="49.29897" lon="2.50387">
        <ele>94.8</ele>
        <time>2014-04-27T12:37:12.57</time>
      </trkpt>
      <trkpt lat="49.2989" lon="2.50395">
        <ele>94.7</ele>
        <time>2014-04-27T12:37:19.57</time>
      </trkpt>
      <trkpt lat="49.29884" lon="2.50404">
        <ele>94.4</ele>
        <time>2014-04-27T12:37:26.58</time>
      </trkpt>
      <trkpt lat="49.29878" lon="2.50413">
        <ele>94.1</ele>
        <time>2014-04-27T12:37:32.60</time>
      </trkpt>
      <trkpt lat="49.29872" lon="2.50423">
        <ele>93.8</ele>
        <time>2014-04-27T12:37:37.79</time>
      </trkpt>
      <trkpt lat="49.29867" lon="2.5043">
        <ele>94</ele>
        <time>2014-04-27T12:37:42.62</time>
      </trkpt>
      <trkpt lat="49.29862" lon="2.50438">
        <ele>94.2</ele>
        <time>2014-04-27T12:37:47.57</time>
      </trkpt>
      <trkpt lat="49.29856" lon="2.50447">
        <ele>94.9</ele>
        <time>2014-04-27T12:37:53.60</time>
      </trkpt>
      <trkpt lat="49.29851" lon="2.50454">
        <ele>95.3</ele>
        <time>2014-04-27T12:37:59.60</time>
      </trkpt>
      <trkpt lat="49.29844" lon="2.50463">
        <ele>95</ele>
        <time>2014-04-27T12:38:06.58</time>
      </trkpt>
      <trkpt lat="49.29839" lon="2.50472">
        <ele>94.8</ele>
        <time>2014-04-27T12:38:12.57</time>
      </trkpt>
      <trkpt lat="49.29834" lon="2.50481">
        <ele>94.5</ele>
        <time>2014-04-27T12:38:18.61</time>
      </trkpt>
      <trkpt lat="49.29829" lon="2.50487">
        <ele>94</ele>
        <time>2014-04-27T12:38:25.57</time>
      </trkpt>
      <trkpt lat="49.29821" lon="2.5049">
        <ele>93.2</ele>
        <time>2014-04-27T12:38:31.61</time>
      </trkpt>
      <trkpt lat="49.29814" lon="2.50496">
        <ele>93.1</ele>
        <time>2014-04-27T12:38:38.67</time>
      </trkpt>
      <trkpt lat="49.29807" lon="2.50503">
        <ele>92.7</ele>
        <time>2014-04-27T12:38:44.60</time>
      </trkpt>
      <trkpt lat="49.29799" lon="2.50502">
        <ele>92.3</ele>
        <time>2014-04-27T12:38:51.63</time>
      </trkpt>
      <trkpt lat="49.29793" lon="2.50493">
        <ele>92</ele>
        <time>2014-04-27T12:38:58.60</time>
      </trkpt>
      <trkpt lat="49.29788" lon="2.50485">
        <ele>91.3</ele>
        <time>2014-04-27T12:39:05.60</time>
      </trkpt>
      <trkpt lat="49.29782" lon="2.50477">
        <ele>90.5</ele>
        <time>2014-04-27T12:39:12.60</time>
      </trkpt>
      <trkpt lat="49.29776" lon="2.50468">
        <ele>90.1</ele>
        <time>2014-04-27T12:39:19.60</time>
      </trkpt>
      <trkpt lat="49.29772" lon="2.5046">
        <ele>90</ele>
        <time>2014-04-27T12:39:25.60</time>
      </trkpt>
      <trkpt lat="49.29767" lon="2.50452">
        <ele>89.7</ele>
        <time>2014-04-27T12:39:31.62</time>
      </trkpt>
      <trkpt lat="49.29762" lon="2.50441">
        <ele>89.6</ele>
        <time>2014-04-27T12:39:37.60</time>
      </trkpt>
      <trkpt lat="49.29758" lon="2.50432">
        <ele>89.5</ele>
        <time>2014-04-27T12:39:42.60</time>
      </trkpt>
      <trkpt lat="49.29752" lon="2.50423">
        <ele>89.4</ele>
        <time>2014-04-27T12:39:49.60</time>
      </trkpt>
      <trkpt lat="49.29747" lon="2.50414">
        <ele>89</ele>
        <time>2014-04-27T12:39:56.60</time>
      </trkpt>
      <trkpt lat="49.29742" lon="2.50406">
        <ele>88.6</ele>
        <time>2014-04-27T12:40:03.60</time>
      </trkpt>
      <trkpt lat="49.29737" lon="2.50401">
        <ele>88.5</ele>
        <time>2014-04-27T12:40:10.60</time>
      </trkpt>
      <trkpt lat="49.2973" lon="2.50398">
        <ele>88.4</ele>
        <time>2014-04-27T12:40:17.60</time>
      </trkpt>
      <trkpt lat="49.29724" lon="2.50395">
        <ele>88.2</ele>
        <time>2014-04-27T12:40:24.60</time>
      </trkpt>
      <trkpt lat="49.29716" lon="2.50392">
        <ele>87.9</ele>
        <time>2014-04-27T12:40:30.60</time>
      </trkpt>
      <trkpt lat="49.2971" lon="2.50383">
        <ele>87.6</ele>
        <time>2014-04-27T12:40:37.60</time>
      </trkpt>
      <trkpt lat="49.29705" lon="2.50376">
        <ele>87.3</ele>
        <time>2014-04-27T12:40:44.60</time>
      </trkpt>
      <trkpt lat="49.29703" lon="2.50369">
        <ele>87</ele>
        <time>2014-04-27T12:40:51.60</time>
      </trkpt>
      <trkpt lat="49.29707" lon="2.50359">
        <ele>86.5</ele>
        <time>2014-04-27T12:40:58.60</time>
      </trkpt>
      <trkpt lat="49.29707" lon="2.50346">
        <ele>86.3</ele>
        <time>2014-04-27T12:41:05.60</time>
      </trkpt>
      <trkpt lat="49.29701" lon="2.50338">
        <ele>86.1</ele>
        <time>2014-04-27T12:41:12.60</time>
      </trkpt>
      <trkpt lat="49.29692" lon="2.50337">
        <ele>86</ele>
        <time>2014-04-27T12:41:17.60</time>
      </trkpt>
      <trkpt lat="49.29685" lon="2.50333">
        <ele>85.9</ele>
        <time>2014-04-27T12:41:22.60</time>
      </trkpt>
      <trkpt lat="49.29679" lon="2.50331">
        <ele>85.7</ele>
        <time>2014-04-27T12:41:29.60</time>
      </trkpt>
      <trkpt lat="49.29675" lon="2.50326">
        <ele>85.6</ele>
        <time>2014-04-27T12:41:36.60</time>
      </trkpt>
      <trkpt lat="49.2967" lon="2.50318">
        <ele>85.4</ele>
        <time>2014-04-27T12:41:42.61</time>
      </trkpt>
      <trkpt lat="49.29669" lon="2.50308">
        <ele>85.6</ele>
        <time>2014-04-27T12:41:49.60</time>
      </trkpt>
      <trkpt lat="49.29664" lon="2.50299">
        <ele>85.5</ele>
        <time>2014-04-27T12:41:56.60</time>
      </trkpt>
      <trkpt lat="49.2966" lon="2.50289">
        <ele>85.5</ele>
        <time>2014-04-27T12:42:03.60</time>
      </trkpt>
      <trkpt lat="49.29654" lon="2.5028">
        <ele>85.3</ele>
        <time>2014-04-27T12:42:09.60</time>
      </trkpt>
      <trkpt lat="49.29648" lon="2.50274">
        <ele>85.2</ele>
        <time>2014-04-27T12:42:15.60</time>
      </trkpt>
      <trkpt lat="49.29644" lon="2.50263">
        <ele>85</ele>
        <time>2014-04-27T12:42:21.60</time>
      </trkpt>
      <trkpt lat="49.29643" lon="2.50252">
        <ele>84.6</ele>
        <time>2014-04-27T12:42:27.60</time>
      </trkpt>
      <trkpt lat="49.29639" lon="2.50243">
        <ele>84.3</ele>
        <time>2014-04-27T12:42:33.60</time>
      </trkpt>
      <trkpt lat="49.29634" lon="2.50233">
        <ele>84.1</ele>
        <time>2014-04-27T12:42:40.60</time>
      </trkpt>
      <trkpt lat="49.29628" lon="2.50227">
        <ele>84.1</ele>
        <time>2014-04-27T12:42:47.60</time>
      </trkpt>
      <trkpt lat="49.29625" lon="2.50223">
        <ele>84.1</ele>
        <time>2014-04-27T12:42:54.60</time>
      </trkpt>
      <trkpt lat="49.29624" lon="2.50217">
        <ele>83.8</ele>
        <time>2014-04-27T12:43:01.60</time>
      </trkpt>
      <trkpt lat="49.29621" lon="2.50209">
        <ele>83.4</ele>
        <time>2014-04-27T12:43:08.60</time>
      </trkpt>
      <trkpt lat="49.29614" lon="2.50206">
        <ele>83</ele>
        <time>2014-04-27T12:43:14.60</time>
      </trkpt>
      <trkpt lat="49.2961" lon="2.50196">
        <ele>82.6</ele>
        <time>2014-04-27T12:43:20.67</time>
      </trkpt>
      <trkpt lat="49.29603" lon="2.50187">
        <ele>82.3</ele>
        <time>2014-04-27T12:43:26.60</time>
      </trkpt>
      <trkpt lat="49.29599" lon="2.50178">
        <ele>81.9</ele>
        <time>2014-04-27T12:43:33.60</time>
      </trkpt>
      <trkpt lat="49.29596" lon="2.50169">
        <ele>81.8</ele>
        <time>2014-04-27T12:43:40.62</time>
      </trkpt>
      <trkpt lat="49.29594" lon="2.5016">
        <ele>81.9</ele>
        <time>2014-04-27T12:43:47.60</time>
      </trkpt>
      <trkpt lat="49.29593" lon="2.5015">
        <ele>82.4</ele>
        <time>2014-04-27T12:43:54.60</time>
      </trkpt>
      <trkpt lat="49.29589" lon="2.5014">
        <ele>82.9</ele>
        <time>2014-04-27T12:43:59.60</time>
      </trkpt>
      <trkpt lat="49.29583" lon="2.50133">
        <ele>83.3</ele>
        <time>2014-04-27T12:44:02.60</time>
      </trkpt>
      <trkpt lat="49.29581" lon="2.50125">
        <ele>83.4</ele>
        <time>2014-04-27T12:44:09.60</time>
      </trkpt>
      <trkpt lat="49.29578" lon="2.50115">
        <ele>83.2</ele>
        <time>2014-04-27T12:44:16.62</time>
      </trkpt>
      <trkpt lat="49.29572" lon="2.50107">
        <ele>83.1</ele>
        <time>2014-04-27T12:44:21.62</time>
      </trkpt>
      <trkpt lat="49.29574" lon="2.50096">
        <ele>83.3</ele>
        <time>2014-04-27T12:44:28.63</time>
      </trkpt>
      <trkpt lat="49.29577" lon="2.50091">
        <ele>83.6</ele>
        <time>2014-04-27T12:44:35.62</time>
      </trkpt>
      <trkpt lat="49.29583" lon="2.50085">
        <ele>83.9</ele>
        <time>2014-04-27T12:44:41.63</time>
      </trkpt>
      <trkpt lat="49.29587" lon="2.50079">
        <ele>83.8</ele>
        <time>2014-04-27T12:44:48.61</time>
      </trkpt>
      <trkpt lat="49.29589" lon="2.50069">
        <ele>83.8</ele>
        <time>2014-04-27T12:44:55.60</time>
      </trkpt>
      <trkpt lat="49.29591" lon="2.50061">
        <ele>83.7</ele>
        <time>2014-04-27T12:45:02.60</time>
      </trkpt>
      <trkpt lat="49.29591" lon="2.5005">
        <ele>83.8</ele>
        <time>2014-04-27T12:45:09.63</time>
      </trkpt>
      <trkpt lat="49.29589" lon="2.50041">
        <ele>83.9</ele>
        <time>2014-04-27T12:45:16.60</time>
      </trkpt>
      <trkpt lat="49.29586" lon="2.50031">
        <ele>84.1</ele>
        <time>2014-04-27T12:45:22.60</time>
      </trkpt>
      <trkpt lat="49.29583" lon="2.50026">
        <ele>84</ele>
        <time>2014-04-27T12:45:29.60</time>
      </trkpt>
      <trkpt lat="49.29579" lon="2.50022">
        <ele>85</ele>
        <time>2014-04-27T12:45:34.62</time>
      </trkpt>
      <trkpt lat="49.29577" lon="2.50012">
        <ele>85.3</ele>
        <time>2014-04-27T12:45:37.61</time>
      </trkpt>
      <trkpt lat="49.29582" lon="2.50012">
        <ele>86.6</ele>
        <time>2014-04-27T12:45:41.62</time>
      </trkpt>
      <trkpt lat="49.29578" lon="2.50024">
        <ele>87</ele>
        <time>2014-04-27T12:45:43.62</time>
      </trkpt>
      <trkpt lat="49.29578" lon="2.50034">
        <ele>86.7</ele>
        <time>2014-04-27T12:45:50.60</time>
      </trkpt>
      <trkpt lat="49.29577" lon="2.50044">
        <ele>86.7</ele>
        <time>2014-04-27T12:45:57.60</time>
      </trkpt>
      <trkpt lat="49.29573" lon="2.50052">
        <ele>86.6</ele>
        <time>2014-04-27T12:46:04.60</time>
      </trkpt>
      <trkpt lat="49.29569" lon="2.50057">
        <ele>86.5</ele>
        <time>2014-04-27T12:46:11.60</time>
      </trkpt>
      <trkpt lat="49.29563" lon="2.50061">
        <ele>86.4</ele>
        <time>2014-04-27T12:46:18.60</time>
      </trkpt>
      <trkpt lat="49.29557" lon="2.50066">
        <ele>86.1</ele>
        <time>2014-04-27T12:46:25.60</time>
      </trkpt>
      <trkpt lat="49.2955" lon="2.50073">
        <ele>85.9</ele>
        <time>2014-04-27T12:46:32.60</time>
      </trkpt>
      <trkpt lat="49.29545" lon="2.5008">
        <ele>85.7</ele>
        <time>2014-04-27T12:46:39.67</time>
      </trkpt>
      <trkpt lat="49.2954" lon="2.50084">
        <ele>85.6</ele>
        <time>2014-04-27T12:46:46.60</time>
      </trkpt>
      <trkpt lat="49.29534" lon="2.50092">
        <ele>85.2</ele>
        <time>2014-04-27T12:46:53.60</time>
      </trkpt>
      <trkpt lat="49.29529" lon="2.50098">
        <ele>84.8</ele>
        <time>2014-04-27T12:47:00.60</time>
      </trkpt>
      <trkpt lat="49.29524" lon="2.50106">
        <ele>84.3</ele>
        <time>2014-04-27T12:47:07.60</time>
      </trkpt>
      <trkpt lat="49.2952" lon="2.50111">
        <ele>83.9</ele>
        <time>2014-04-27T12:47:14.60</time>
      </trkpt>
      <trkpt lat="49.29517" lon="2.50116">
        <ele>83.5</ele>
        <time>2014-04-27T12:47:21.60</time>
      </trkpt>
      <trkpt lat="49.29511" lon="2.50124">
        <ele>83.2</ele>
        <time>2014-04-27T12:47:28.60</time>
      </trkpt>
      <trkpt lat="49.29504" lon="2.50128">
        <ele>82.7</ele>
        <time>2014-04-27T12:47:35.60</time>
      </trkpt>
      <trkpt lat="49.29496" lon="2.50135">
        <ele>82.2</ele>
        <time>2014-04-27T12:47:40.60</time>
      </trkpt>
      <trkpt lat="49.29492" lon="2.50145">
        <ele>81.7</ele>
        <time>2014-04-27T12:47:45.60</time>
      </trkpt>
      <trkpt lat="49.29489" lon="2.50154">
        <ele>81.4</ele>
        <time>2014-04-27T12:47:52.60</time>
      </trkpt>
      <trkpt lat="49.29489" lon="2.50161">
        <ele>81</ele>
        <time>2014-04-27T12:47:59.60</time>
      </trkpt>
      <trkpt lat="49.29489" lon="2.50155">
        <ele>79.6</ele>
        <time>2014-04-27T12:48:06.61</time>
      </trkpt>
      <trkpt lat="49.29483" lon="2.50149">
        <ele>79.3</ele>
        <time>2014-04-27T12:48:13.60</time>
      </trkpt>
      <trkpt lat="49.29475" lon="2.50146">
        <ele>78.8</ele>
        <time>2014-04-27T12:48:18.60</time>
      </trkpt>
      <trkpt lat="49.29468" lon="2.50138">
        <ele>78.3</ele>
        <time>2014-04-27T12:48:23.60</time>
      </trkpt>
      <trkpt lat="49.2946" lon="2.50137">
        <ele>77.7</ele>
        <time>2014-04-27T12:48:29.60</time>
      </trkpt>
      <trkpt lat="49.29452" lon="2.50138">
        <ele>77.3</ele>
        <time>2014-04-27T12:48:34.60</time>
      </trkpt>
      <trkpt lat="49.29444" lon="2.50138">
        <ele>76.9</ele>
        <time>2014-04-27T12:48:39.60</time>
      </trkpt>
      <trkpt lat="49.29436" lon="2.50136">
        <ele>76.3</ele>
        <time>2014-04-27T12:48:44.60</time>
      </trkpt>
      <trkpt lat="49.29428" lon="2.50138">
        <ele>75.7</ele>
        <time>2014-04-27T12:48:50.60</time>
      </trkpt>
      <trkpt lat="49.29422" lon="2.50134">
        <ele>75.2</ele>
        <time>2014-04-27T12:48:57.60</time>
      </trkpt>
      <trkpt lat="49.29417" lon="2.50125">
        <ele>74.5</ele>
        <time>2014-04-27T12:49:03.60</time>
      </trkpt>
      <trkpt lat="49.29408" lon="2.50122">
        <ele>74</ele>
        <time>2014-04-27T12:49:09.60</time>
      </trkpt>
      <trkpt lat="49.29402" lon="2.50116">
        <ele>73.5</ele>
        <time>2014-04-27T12:49:16.60</time>
      </trkpt>
      <trkpt lat="49.29396" lon="2.50109">
        <ele>73</ele>
        <time>2014-04-27T12:49:22.60</time>
      </trkpt>
      <trkpt lat="49.2939" lon="2.501">
        <ele>72.2</ele>
        <time>2014-04-27T12:49:27.60</time>
      </trkpt>
      <trkpt lat="49.29383" lon="2.50093">
        <ele>71.6</ele>
        <time>2014-04-27T12:49:31.60</time>
      </trkpt>
      <trkpt lat="49.29379" lon="2.50084">
        <ele>70.9</ele>
        <time>2014-04-27T12:49:37.60</time>
      </trkpt>
      <trkpt lat="49.29376" lon="2.50074">
        <ele>70</ele>
        <time>2014-04-27T12:49:44.60</time>
      </trkpt>
      <trkpt lat="49.29375" lon="2.50063">
        <ele>68.6</ele>
        <time>2014-04-27T12:49:50.60</time>
      </trkpt>
      <trkpt lat="49.29375" lon="2.50051">
        <ele>67</ele>
        <time>2014-04-27T12:49:56.60</time>
      </trkpt>
      <trkpt lat="49.2938" lon="2.50045">
        <ele>65.8</ele>
        <time>2014-04-27T12:50:03.60</time>
      </trkpt>
      <trkpt lat="49.29386" lon="2.50041">
        <ele>64.7</ele>
        <time>2014-04-27T12:50:10.65</time>
      </trkpt>
      <trkpt lat="49.29391" lon="2.5004">
        <ele>63.7</ele>
        <time>2014-04-27T12:50:17.60</time>
      </trkpt>
      <trkpt lat="49.29397" lon="2.50036">
        <ele>62.8</ele>
        <time>2014-04-27T12:50:24.60</time>
      </trkpt>
      <trkpt lat="49.29405" lon="2.50032">
        <ele>62</ele>
        <time>2014-04-27T12:50:31.60</time>
      </trkpt>
      <trkpt lat="49.29412" lon="2.50024">
        <ele>61.2</ele>
        <time>2014-04-27T12:50:37.60</time>
      </trkpt>
      <trkpt lat="49.29419" lon="2.50014">
        <ele>60.3</ele>
        <time>2014-04-27T12:50:43.60</time>
      </trkpt>
      <trkpt lat="49.29423" lon="2.50005">
        <ele>59.2</ele>
        <time>2014-04-27T12:50:48.60</time>
      </trkpt>
      <trkpt lat="49.29428" lon="2.49996">
        <ele>58.1</ele>
        <time>2014-04-27T12:50:53.60</time>
      </trkpt>
      <trkpt lat="49.29433" lon="2.49988">
        <ele>56.8</ele>
        <time>2014-04-27T12:51:00.60</time>
      </trkpt>
      <trkpt lat="49.29438" lon="2.49978">
        <ele>55.3</ele>
        <time>2014-04-27T12:51:07.60</time>
      </trkpt>
      <trkpt lat="49.29442" lon="2.49969">
        <ele>54.5</ele>
        <time>2014-04-27T12:51:13.60</time>
      </trkpt>
      <trkpt lat="49.29446" lon="2.49958">
        <ele>53.8</ele>
        <time>2014-04-27T12:51:19.60</time>
      </trkpt>
      <trkpt lat="49.29449" lon="2.49946">
        <ele>52.9</ele>
        <time>2014-04-27T12:51:25.60</time>
      </trkpt>
      <trkpt lat="49.29449" lon="2.49935">
        <ele>51.9</ele>
        <time>2014-04-27T12:51:32.60</time>
      </trkpt>
      <trkpt lat="49.29441" lon="2.49929">
        <ele>51.1</ele>
        <time>2014-04-27T12:51:37.60</time>
      </trkpt>
      <trkpt lat="49.29435" lon="2.49922">
        <ele>50.3</ele>
        <time>2014-04-27T12:51:42.60</time>
      </trkpt>
      <trkpt lat="49.29427" lon="2.49918">
        <ele>49.6</ele>
        <time>2014-04-27T12:51:49.60</time>
      </trkpt>
      <trkpt lat="49.2942" lon="2.49914">
        <ele>48.9</ele>
        <time>2014-04-27T12:51:56.60</time>
      </trkpt>
      <trkpt lat="49.29416" lon="2.49914">
        <ele>48.1</ele>
        <time>2014-04-27T12:52:03.60</time>
      </trkpt>
      <trkpt lat="49.29408" lon="2.49912">
        <ele>47.5</ele>
        <time>2014-04-27T12:52:10.60</time>
      </trkpt>
      <trkpt lat="49.29402" lon="2.49913">
        <ele>46.4</ele>
        <time>2014-04-27T12:52:17.60</time>
      </trkpt>
      <trkpt lat="49.29394" lon="2.49915">
        <ele>45.5</ele>
        <time>2014-04-27T12:52:23.60</time>
      </trkpt>
      <trkpt lat="49.29387" lon="2.49916">
        <ele>44.9</ele>
        <time>2014-04-27T12:52:28.60</time>
      </trkpt>
      <trkpt lat="49.2938" lon="2.49918">
        <ele>44.1</ele>
        <time>2014-04-27T12:52:34.60</time>
      </trkpt>
      <trkpt lat="49.29375" lon="2.49919">
        <ele>43.4</ele>
        <time>2014-04-27T12:52:41.60</time>
      </trkpt>
      <trkpt lat="49.29375" lon="2.49917">
        <ele>42.6</ele>
        <time>2014-04-27T12:52:48.60</time>
      </trkpt>
      <trkpt lat="49.29372" lon="2.49916">
        <ele>41.9</ele>
        <time>2014-04-27T12:52:55.60</time>
      </trkpt>
      <trkpt lat="49.29367" lon="2.49918">
        <ele>41</ele>
        <time>2014-04-27T12:53:02.60</time>
      </trkpt>
      <trkpt lat="49.29361" lon="2.49922">
        <ele>40.2</ele>
        <time>2014-04-27T12:53:09.60</time>
      </trkpt>
      <trkpt lat="49.29353" lon="2.49925">
        <ele>39.5</ele>
        <time>2014-04-27T12:53:15.60</time>
      </trkpt>
      <trkpt lat="49.29345" lon="2.49929">
        <ele>38.8</ele>
        <time>2014-04-27T12:53:21.60</time>
      </trkpt>
      <trkpt lat="49.29339" lon="2.49933">
        <ele>37.9</ele>
        <time>2014-04-27T12:53:28.60</time>
      </trkpt>
      <trkpt lat="49.2933" lon="2.49937">
        <ele>37.1</ele>
        <time>2014-04-27T12:53:34.60</time>
      </trkpt>
      <trkpt lat="49.29324" lon="2.49941">
        <ele>36.4</ele>
        <time>2014-04-27T12:53:39.60</time>
      </trkpt>
      <trkpt lat="49.2932" lon="2.4995">
        <ele>35.9</ele>
        <time>2014-04-27T12:53:46.60</time>
      </trkpt>
      <trkpt lat="49.29321" lon="2.49953">
        <ele>36.5</ele>
        <time>2014-04-27T12:53:53.60</time>
      </trkpt>
      <trkpt lat="49.29321" lon="2.49961">
        <ele>37.2</ele>
        <time>2014-04-27T12:53:56.62</time>
      </trkpt>
      <trkpt lat="49.29314" lon="2.49963">
        <ele>37.4</ele>
        <time>2014-04-27T12:54:03.59</time>
      </trkpt>
      <trkpt lat="49.29306" lon="2.49963">
        <ele>37.4</ele>
        <time>2014-04-27T12:54:10.59</time>
      </trkpt>
      <trkpt lat="49.29298" lon="2.49965">
        <ele>37.4</ele>
        <time>2014-04-27T12:54:17.59</time>
      </trkpt>
      <trkpt lat="49.29292" lon="2.49967">
        <ele>37.3</ele>
        <time>2014-04-27T12:54:24.60</time>
      </trkpt>
      <trkpt lat="49.29283" lon="2.49971">
        <ele>37.2</ele>
        <time>2014-04-27T12:54:31.59</time>
      </trkpt>
      <trkpt lat="49.29275" lon="2.49974">
        <ele>37.3</ele>
        <time>2014-04-27T12:54:36.60</time>
      </trkpt>
      <trkpt lat="49.29269" lon="2.4998">
        <ele>37</ele>
        <time>2014-04-27T12:54:43.59</time>
      </trkpt>
      <trkpt lat="49.29261" lon="2.49983">
        <ele>37.1</ele>
        <time>2014-04-27T12:54:49.59</time>
      </trkpt>
      <trkpt lat="49.29254" lon="2.49985">
        <ele>37</ele>
        <time>2014-04-27T12:54:55.59</time>
      </trkpt>
      <trkpt lat="49.29247" lon="2.49987">
        <ele>36.9</ele>
        <time>2014-04-27T12:55:01.59</time>
      </trkpt>
      <trkpt lat="49.2924" lon="2.49993">
        <ele>36.8</ele>
        <time>2014-04-27T12:55:08.60</time>
      </trkpt>
      <trkpt lat="49.29233" lon="2.49996">
        <ele>36.7</ele>
        <time>2014-04-27T12:55:14.60</time>
      </trkpt>
      <trkpt lat="49.29226" lon="2.49999">
        <ele>36.4</ele>
        <time>2014-04-27T12:55:21.59</time>
      </trkpt>
      <trkpt lat="49.2922" lon="2.50002">
        <ele>36.5</ele>
        <time>2014-04-27T12:55:28.59</time>
      </trkpt>
      <trkpt lat="49.29219" lon="2.5">
        <ele>36.2</ele>
        <time>2014-04-27T12:55:35.64</time>
      </trkpt>
      <trkpt lat="49.29219" lon="2.5">
        <ele>36.2</ele>
        <time>2014-04-27T12:55:39.59</time>
      </trkpt>
    </trkseg>
  </trk>
</gpx>